<?xml version="1.0" encoding="UTF-8" standalone="no" ?>
<gpx xmlns="http://www.topografix.com/GPX/1/1" xmlns:xsi="http://www.w3.org/2001/XMLSchema-instance" creator="Kurviger.de" version="1.1" xmlns:gh="https://kurviger.de/public/schema/gpx/1.1">
<metadata>
<name>Eisenberg_Domitreffen</name>
<copyright author="OpenStreetMap contributors"/>
<link href="https://kurviger.de">
<text>Kurviger.de GPX</text>
</link>
<time>2024-04-25T06:50:47Z</time>
</metadata>
<wpt lat="47.530548" lon="10.265357"><name>Falkenstraße</name><desc>Continue onto Falkenstraße</desc><sym>Flag, Green</sym><type>start</type></wpt>
<wpt lat="47.634361" lon="10.328187"><name>OA 3</name><desc>Continue onto OA 3</desc><sym>Waypoint</sym><type>shaping</type></wpt>
<wpt lat="47.62322" lon="10.495191"><name>St 2520</name><desc>Continue onto St 2520</desc><sym>Waypoint</sym><type>shaping</type></wpt>
<wpt lat="47.617283" lon="10.539376"><name>Hertingen</name><desc>Continue onto Hertingen</desc><sym>Waypoint</sym><type>shaping</type></wpt>
<wpt lat="47.602854" lon="10.568326"><name>Waypoint 1</name><desc>Waypoint 1</desc><sym>Flag, Blue</sym><type>via</type></wpt>
<wpt lat="47.612645" lon="10.592515"><name>Waypoint 2</name><desc>Waypoint 2</desc><sym>Flag, Blue</sym><type>via</type></wpt>
<wpt lat="47.642131" lon="10.583469"><name>Continue</name><desc>Continue</desc><sym>Waypoint</sym><type>shaping</type></wpt>
<wpt lat="47.665907" lon="10.558728"><name>Waypoint 3</name><desc>Waypoint 3</desc><sym>Flag, Blue</sym><type>via</type></wpt>
<wpt lat="47.697177" lon="10.561936"><name>Continue</name><desc>Continue</desc><sym>Waypoint</sym><type>shaping</type></wpt>
<wpt lat="47.646681" lon="10.360482"><name>Continue</name><desc>Continue</desc><sym>Waypoint</sym><type>shaping</type></wpt>
<wpt lat="47.593108" lon="10.241575"><name>Alpenstraße</name><desc>Continue onto Alpenstraße</desc><sym>Waypoint</sym><type>shaping</type></wpt>
<wpt lat="47.54787" lon="10.241554"><name>Continue</name><desc>Continue</desc><sym>Waypoint</sym><type>shaping</type></wpt>
<wpt lat="47.530548" lon="10.265357"><name>Arrive at destination</name><desc>Arrive at destination</desc><sym>Flag, Red</sym><type>destination</type></wpt>
<rte><name>Eisenberg_Domitreffen</name>
<rtept lat="47.530548" lon="10.265357"><name>Falkenstraße</name><desc>Continue onto Falkenstraße</desc><sym>Flag, Green</sym><type>start</type></rtept>
<rtept lat="47.634361" lon="10.328187"><name>OA 3</name><desc>Continue onto OA 3</desc><sym>Waypoint</sym><type>shaping</type></rtept>
<rtept lat="47.62322" lon="10.495191"><name>St 2520</name><desc>Continue onto St 2520</desc><sym>Waypoint</sym><type>shaping</type></rtept>
<rtept lat="47.617283" lon="10.539376"><name>Hertingen</name><desc>Continue onto Hertingen</desc><sym>Waypoint</sym><type>shaping</type></rtept>
<rtept lat="47.602854" lon="10.568326"><name>Waypoint 1</name><desc>Waypoint 1</desc><sym>Flag, Blue</sym><type>via</type></rtept>
<rtept lat="47.612645" lon="10.592515"><name>Waypoint 2</name><desc>Waypoint 2</desc><sym>Flag, Blue</sym><type>via</type></rtept>
<rtept lat="47.642131" lon="10.583469"><name>Continue</name><desc>Continue</desc><sym>Waypoint</sym><type>shaping</type></rtept>
<rtept lat="47.665907" lon="10.558728"><name>Waypoint 3</name><desc>Waypoint 3</desc><sym>Flag, Blue</sym><type>via</type></rtept>
<rtept lat="47.697177" lon="10.561936"><name>Continue</name><desc>Continue</desc><sym>Waypoint</sym><type>shaping</type></rtept>
<rtept lat="47.646681" lon="10.360482"><name>Continue</name><desc>Continue</desc><sym>Waypoint</sym><type>shaping</type></rtept>
<rtept lat="47.593108" lon="10.241575"><name>Alpenstraße</name><desc>Continue onto Alpenstraße</desc><sym>Waypoint</sym><type>shaping</type></rtept>
<rtept lat="47.54787" lon="10.241554"><name>Continue</name><desc>Continue</desc><sym>Waypoint</sym><type>shaping</type></rtept>
<rtept lat="47.530548" lon="10.265357"><name>Arrive at destination</name><desc>Arrive at destination</desc><sym>Flag, Red</sym><type>destination</type></rtept>
</rte>
<trk><name>Eisenberg_Domitreffen</name><trkseg>
<trkpt lat="47.530548" lon="10.265357"><ele>732.75</ele><time>2024-04-25T06:50:47Z</time></trkpt>
<trkpt lat="47.530186" lon="10.266235"><ele>733.78</ele><time>2024-04-25T06:50:54Z</time></trkpt>
<trkpt lat="47.530091" lon="10.266349"><ele>734.53</ele><time>2024-04-25T06:51:01Z</time></trkpt>
<trkpt lat="47.529958" lon="10.266408"><ele>735.22</ele><time>2024-04-25T06:51:07Z</time></trkpt>
<trkpt lat="47.529761" lon="10.266434"><ele>736.02</ele><time>2024-04-25T06:51:14Z</time></trkpt>
<trkpt lat="47.52924" lon="10.266451"><ele>738.53</ele><time>2024-04-25T06:51:21Z</time></trkpt>
<trkpt lat="47.528862" lon="10.26636"><ele>736.51</ele><time>2024-04-25T06:51:28Z</time></trkpt>
<trkpt lat="47.528649" lon="10.26646"><ele>734.92</ele><time>2024-04-25T06:51:34Z</time></trkpt>
<trkpt lat="47.528507" lon="10.266753"><ele>735.87</ele><time>2024-04-25T06:51:41Z</time></trkpt>
<trkpt lat="47.528511" lon="10.267068"><ele>737.88</ele><time>2024-04-25T06:51:48Z</time></trkpt>
<trkpt lat="47.528659" lon="10.267588"><ele>737.19</ele><time>2024-04-25T06:51:55Z</time></trkpt>
<trkpt lat="47.528548" lon="10.268149"><ele>735.89</ele><time>2024-04-25T06:52:02Z</time></trkpt>
<trkpt lat="47.52842" lon="10.268546"><ele>735.69</ele><time>2024-04-25T06:52:08Z</time></trkpt>
<trkpt lat="47.528295" lon="10.268745"><ele>735.52</ele><time>2024-04-25T06:52:15Z</time></trkpt>
<trkpt lat="47.528192" lon="10.268855"><ele>735.12</ele><time>2024-04-25T06:52:22Z</time></trkpt>
<trkpt lat="47.527513" lon="10.268804"><ele>734.0</ele><time>2024-04-25T06:52:38Z</time></trkpt>
<trkpt lat="47.527071" lon="10.269804"><ele>735.7</ele><time>2024-04-25T06:53:05Z</time></trkpt>
<trkpt lat="47.526252" lon="10.271756"><ele>735.32</ele><time>2024-04-25T06:53:32Z</time></trkpt>
<trkpt lat="47.525271" lon="10.27116"><ele>737.2</ele><time>2024-04-25T06:53:45Z</time></trkpt>
<trkpt lat="47.525021" lon="10.271178"><ele>737.94</ele><time>2024-04-25T06:53:58Z</time></trkpt>
<trkpt lat="47.524656" lon="10.271251"><ele>739.62</ele><time>2024-04-25T06:54:11Z</time></trkpt>
<trkpt lat="47.524632" lon="10.271591"><ele>741.29</ele><time>2024-04-25T06:54:22Z</time></trkpt>
<trkpt lat="47.524313" lon="10.273759"><ele>741.35</ele><time>2024-04-25T06:54:33Z</time></trkpt>
<trkpt lat="47.524096" lon="10.275472"><ele>739.0</ele><time>2024-04-25T06:54:40Z</time></trkpt>
<trkpt lat="47.524008" lon="10.276067"><ele>739.0</ele><time>2024-04-25T06:54:46Z</time></trkpt>
<trkpt lat="47.524016" lon="10.27639"><ele>740.0</ele><time>2024-04-25T06:54:52Z</time></trkpt>
<trkpt lat="47.524081" lon="10.276657"><ele>741.63</ele><time>2024-04-25T06:54:59Z</time></trkpt>
<trkpt lat="47.524677" lon="10.27784"><ele>743.19</ele><time>2024-04-25T06:55:05Z</time></trkpt>
<trkpt lat="47.524713" lon="10.278461"><ele>743.44</ele><time>2024-04-25T06:55:11Z</time></trkpt>
<trkpt lat="47.52462" lon="10.279061"><ele>745.23</ele><time>2024-04-25T06:55:18Z</time></trkpt>
<trkpt lat="47.524528" lon="10.279525"><ele>746.6</ele><time>2024-04-25T06:55:24Z</time></trkpt>
<trkpt lat="47.524255" lon="10.280383"><ele>744.62</ele><time>2024-04-25T06:55:30Z</time></trkpt>
<trkpt lat="47.524106" lon="10.280686"><ele>743.85</ele><time>2024-04-25T06:55:37Z</time></trkpt>
<trkpt lat="47.523773" lon="10.281264"><ele>745.6</ele><time>2024-04-25T06:55:43Z</time></trkpt>
<trkpt lat="47.523793" lon="10.281591"><ele>745.09</ele><time>2024-04-25T06:55:49Z</time></trkpt>
<trkpt lat="47.523881" lon="10.28157"><ele>745.01</ele><time>2024-04-25T06:55:54Z</time></trkpt>
<trkpt lat="47.524059" lon="10.281568"><ele>744.71</ele><time>2024-04-25T06:55:58Z</time></trkpt>
<trkpt lat="47.524454" lon="10.281633"><ele>744.03</ele><time>2024-04-25T06:56:03Z</time></trkpt>
<trkpt lat="47.524699" lon="10.281583"><ele>744.64</ele><time>2024-04-25T06:56:07Z</time></trkpt>
<trkpt lat="47.52557" lon="10.281076"><ele>742.0</ele><time>2024-04-25T06:56:11Z</time></trkpt>
<trkpt lat="47.526229" lon="10.280811"><ele>742.92</ele><time>2024-04-25T06:56:16Z</time></trkpt>
<trkpt lat="47.526736" lon="10.280668"><ele>742.55</ele><time>2024-04-25T06:56:20Z</time></trkpt>
<trkpt lat="47.527452" lon="10.280643"><ele>740.18</ele><time>2024-04-25T06:56:25Z</time></trkpt>
<trkpt lat="47.527777" lon="10.280679"><ele>740.89</ele><time>2024-04-25T06:56:29Z</time></trkpt>
<trkpt lat="47.528065" lon="10.280743"><ele>742.74</ele><time>2024-04-25T06:56:34Z</time></trkpt>
<trkpt lat="47.528777" lon="10.281048"><ele>744.67</ele><time>2024-04-25T06:56:38Z</time></trkpt>
<trkpt lat="47.530147" lon="10.281911"><ele>742.83</ele><time>2024-04-25T06:56:42Z</time></trkpt>
<trkpt lat="47.532568" lon="10.28321"><ele>740.97</ele><time>2024-04-25T06:56:47Z</time></trkpt>
<trkpt lat="47.532866" lon="10.283387"><ele>741.19</ele><time>2024-04-25T06:56:51Z</time></trkpt>
<trkpt lat="47.533517" lon="10.283784"><ele>743.87</ele><time>2024-04-25T06:56:56Z</time></trkpt>
<trkpt lat="47.534949" lon="10.28482"><ele>744.18</ele><time>2024-04-25T06:57:00Z</time></trkpt>
<trkpt lat="47.535863" lon="10.285228"><ele>744.0</ele><time>2024-04-25T06:57:04Z</time></trkpt>
<trkpt lat="47.536238" lon="10.285428"><ele>744.46</ele><time>2024-04-25T06:57:09Z</time></trkpt>
<trkpt lat="47.536659" lon="10.285706"><ele>745.53</ele><time>2024-04-25T06:57:13Z</time></trkpt>
<trkpt lat="47.536791" lon="10.285726"><ele>746.06</ele><time>2024-04-25T06:57:18Z</time></trkpt>
<trkpt lat="47.536971" lon="10.285688"><ele>746.47</ele><time>2024-04-25T06:57:22Z</time></trkpt>
<trkpt lat="47.53741" lon="10.285437"><ele>744.96</ele><time>2024-04-25T06:57:27Z</time></trkpt>
<trkpt lat="47.537761" lon="10.285364"><ele>746.5</ele><time>2024-04-25T06:57:31Z</time></trkpt>
<trkpt lat="47.538081" lon="10.285395"><ele>748.84</ele><time>2024-04-25T06:57:35Z</time></trkpt>
<trkpt lat="47.538183" lon="10.285433"><ele>749.12</ele><time>2024-04-25T06:57:40Z</time></trkpt>
<trkpt lat="47.53843" lon="10.285605"><ele>750.35</ele><time>2024-04-25T06:57:44Z</time></trkpt>
<trkpt lat="47.538632" lon="10.285709"><ele>751.14</ele><time>2024-04-25T06:57:49Z</time></trkpt>
<trkpt lat="47.53879" lon="10.285723"><ele>751.46</ele><time>2024-04-25T06:57:53Z</time></trkpt>
<trkpt lat="47.539234" lon="10.285614"><ele>750.42</ele><time>2024-04-25T06:57:57Z</time></trkpt>
<trkpt lat="47.539617" lon="10.28563"><ele>750.53</ele><time>2024-04-25T06:58:02Z</time></trkpt>
<trkpt lat="47.539884" lon="10.285679"><ele>751.21</ele><time>2024-04-25T06:58:06Z</time></trkpt>
<trkpt lat="47.540174" lon="10.285801"><ele>751.18</ele><time>2024-04-25T06:58:11Z</time></trkpt>
<trkpt lat="47.540526" lon="10.285985"><ele>749.9</ele><time>2024-04-25T06:58:15Z</time></trkpt>
<trkpt lat="47.540629" lon="10.286008"><ele>749.45</ele><time>2024-04-25T06:58:19Z</time></trkpt>
<trkpt lat="47.540697" lon="10.285998"><ele>748.96</ele><time>2024-04-25T06:58:24Z</time></trkpt>
<trkpt lat="47.540806" lon="10.28594"><ele>747.91</ele><time>2024-04-25T06:58:28Z</time></trkpt>
<trkpt lat="47.540921" lon="10.285837"><ele>747.03</ele><time>2024-04-25T06:58:33Z</time></trkpt>
<trkpt lat="47.541001" lon="10.285704"><ele>746.35</ele><time>2024-04-25T06:58:37Z</time></trkpt>
<trkpt lat="47.541074" lon="10.285491"><ele>745.63</ele><time>2024-04-25T06:58:42Z</time></trkpt>
<trkpt lat="47.541279" lon="10.28465"><ele>740.9</ele><time>2024-04-25T06:58:46Z</time></trkpt>
<trkpt lat="47.541388" lon="10.284368"><ele>740.72</ele><time>2024-04-25T06:58:50Z</time></trkpt>
<trkpt lat="47.54149" lon="10.284245"><ele>740.28</ele><time>2024-04-25T06:58:55Z</time></trkpt>
<trkpt lat="47.541619" lon="10.28415"><ele>739.95</ele><time>2024-04-25T06:58:59Z</time></trkpt>
<trkpt lat="47.542543" lon="10.28375"><ele>735.31</ele><time>2024-04-25T06:59:04Z</time></trkpt>
<trkpt lat="47.542662" lon="10.283632"><ele>735.31</ele><time>2024-04-25T06:59:08Z</time></trkpt>
<trkpt lat="47.543087" lon="10.283084"><ele>735.2</ele><time>2024-04-25T06:59:12Z</time></trkpt>
<trkpt lat="47.543359" lon="10.282685"><ele>738.31</ele><time>2024-04-25T06:59:17Z</time></trkpt>
<trkpt lat="47.543663" lon="10.282145"><ele>732.62</ele><time>2024-04-25T06:59:21Z</time></trkpt>
<trkpt lat="47.543796" lon="10.281975"><ele>730.29</ele><time>2024-04-25T06:59:26Z</time></trkpt>
<trkpt lat="47.54391" lon="10.281863"><ele>729.43</ele><time>2024-04-25T06:59:30Z</time></trkpt>
<trkpt lat="47.54421" lon="10.281662"><ele>729.31</ele><time>2024-04-25T06:59:34Z</time></trkpt>
<trkpt lat="47.544359" lon="10.281605"><ele>730.23</ele><time>2024-04-25T06:59:39Z</time></trkpt>
<trkpt lat="47.544593" lon="10.281568"><ele>731.52</ele><time>2024-04-25T06:59:43Z</time></trkpt>
<trkpt lat="47.54491" lon="10.281613"><ele>733.29</ele><time>2024-04-25T06:59:48Z</time></trkpt>
<trkpt lat="47.545352" lon="10.281821"><ele>733.61</ele><time>2024-04-25T06:59:52Z</time></trkpt>
<trkpt lat="47.545607" lon="10.281896"><ele>730.59</ele><time>2024-04-25T06:59:57Z</time></trkpt>
<trkpt lat="47.546043" lon="10.281892"><ele>729.57</ele><time>2024-04-25T07:00:01Z</time></trkpt>
<trkpt lat="47.546309" lon="10.281781"><ele>731.42</ele><time>2024-04-25T07:00:05Z</time></trkpt>
<trkpt lat="47.54703" lon="10.281238"><ele>731.61</ele><time>2024-04-25T07:00:10Z</time></trkpt>
<trkpt lat="47.547412" lon="10.280937"><ele>733.76</ele><time>2024-04-25T07:00:14Z</time></trkpt>
<trkpt lat="47.547585" lon="10.280822"><ele>733.21</ele><time>2024-04-25T07:00:19Z</time></trkpt>
<trkpt lat="47.547673" lon="10.280792"><ele>733.23</ele><time>2024-04-25T07:00:23Z</time></trkpt>
<trkpt lat="47.548337" lon="10.280795"><ele>733.44</ele><time>2024-04-25T07:00:27Z</time></trkpt>
<trkpt lat="47.548884" lon="10.280841"><ele>729.14</ele><time>2024-04-25T07:00:32Z</time></trkpt>
<trkpt lat="47.549895" lon="10.280087"><ele>725.74</ele><time>2024-04-25T07:00:36Z</time></trkpt>
<trkpt lat="47.550385" lon="10.279637"><ele>728.69</ele><time>2024-04-25T07:00:41Z</time></trkpt>
<trkpt lat="47.550624" lon="10.279462"><ele>729.95</ele><time>2024-04-25T07:00:45Z</time></trkpt>
<trkpt lat="47.55074" lon="10.279426"><ele>730.07</ele><time>2024-04-25T07:00:49Z</time></trkpt>
<trkpt lat="47.550855" lon="10.279437"><ele>730.02</ele><time>2024-04-25T07:00:54Z</time></trkpt>
<trkpt lat="47.551094" lon="10.279556"><ele>730.0</ele><time>2024-04-25T07:00:58Z</time></trkpt>
<trkpt lat="47.551227" lon="10.27968"><ele>729.52</ele><time>2024-04-25T07:01:03Z</time></trkpt>
<trkpt lat="47.551389" lon="10.279779"><ele>729.0</ele><time>2024-04-25T07:01:07Z</time></trkpt>
<trkpt lat="47.551609" lon="10.279853"><ele>728.58</ele><time>2024-04-25T07:01:12Z</time></trkpt>
<trkpt lat="47.55219" lon="10.279949"><ele>730.38</ele><time>2024-04-25T07:01:16Z</time></trkpt>
<trkpt lat="47.552823" lon="10.280181"><ele>730.36</ele><time>2024-04-25T07:01:20Z</time></trkpt>
<trkpt lat="47.553039" lon="10.28021"><ele>730.74</ele><time>2024-04-25T07:01:25Z</time></trkpt>
<trkpt lat="47.553201" lon="10.280185"><ele>731.72</ele><time>2024-04-25T07:01:29Z</time></trkpt>
<trkpt lat="47.553838" lon="10.279928"><ele>734.0</ele><time>2024-04-25T07:01:34Z</time></trkpt>
<trkpt lat="47.554066" lon="10.279792"><ele>732.88</ele><time>2024-04-25T07:01:38Z</time></trkpt>
<trkpt lat="47.554698" lon="10.279303"><ele>728.58</ele><time>2024-04-25T07:01:42Z</time></trkpt>
<trkpt lat="47.554997" lon="10.279097"><ele>728.0</ele><time>2024-04-25T07:01:47Z</time></trkpt>
<trkpt lat="47.55576" lon="10.2787"><ele>728.5</ele><time>2024-04-25T07:01:51Z</time></trkpt>
<trkpt lat="47.555995" lon="10.278646"><ele>727.54</ele><time>2024-04-25T07:01:56Z</time></trkpt>
<trkpt lat="47.556801" lon="10.278608"><ele>727.02</ele><time>2024-04-25T07:02:00Z</time></trkpt>
<trkpt lat="47.557019" lon="10.278573"><ele>725.5</ele><time>2024-04-25T07:02:05Z</time></trkpt>
<trkpt lat="47.557168" lon="10.278524"><ele>724.64</ele><time>2024-04-25T07:02:09Z</time></trkpt>
<trkpt lat="47.557651" lon="10.278306"><ele>725.15</ele><time>2024-04-25T07:02:13Z</time></trkpt>
<trkpt lat="47.55793" lon="10.278142"><ele>726.55</ele><time>2024-04-25T07:02:18Z</time></trkpt>
<trkpt lat="47.559705" lon="10.276965"><ele>728.94</ele><time>2024-04-25T07:02:22Z</time></trkpt>
<trkpt lat="47.559906" lon="10.276844"><ele>729.24</ele><time>2024-04-25T07:02:27Z</time></trkpt>
<trkpt lat="47.560181" lon="10.276768"><ele>728.98</ele><time>2024-04-25T07:02:31Z</time></trkpt>
<trkpt lat="47.560221" lon="10.27681"><ele>728.69</ele><time>2024-04-25T07:02:34Z</time></trkpt>
<trkpt lat="47.560315" lon="10.276839"><ele>728.46</ele><time>2024-04-25T07:02:37Z</time></trkpt>
<trkpt lat="47.560406" lon="10.276792"><ele>728.76</ele><time>2024-04-25T07:02:40Z</time></trkpt>
<trkpt lat="47.560438" lon="10.27675"><ele>728.87</ele><time>2024-04-25T07:02:43Z</time></trkpt>
<trkpt lat="47.560477" lon="10.27664"><ele>729.03</ele><time>2024-04-25T07:02:46Z</time></trkpt>
<trkpt lat="47.560476" lon="10.276499"><ele>729.17</ele><time>2024-04-25T07:02:49Z</time></trkpt>
<trkpt lat="47.560718" lon="10.276087"><ele>730.59</ele><time>2024-04-25T07:02:53Z</time></trkpt>
<trkpt lat="47.56101" lon="10.275659"><ele>732.03</ele><time>2024-04-25T07:02:56Z</time></trkpt>
<trkpt lat="47.561187" lon="10.275433"><ele>732.85</ele><time>2024-04-25T07:02:59Z</time></trkpt>
<trkpt lat="47.56165" lon="10.274941"><ele>732.72</ele><time>2024-04-25T07:03:02Z</time></trkpt>
<trkpt lat="47.562212" lon="10.27416"><ele>736.95</ele><time>2024-04-25T07:03:05Z</time></trkpt>
<trkpt lat="47.562769" lon="10.273568"><ele>740.15</ele><time>2024-04-25T07:03:08Z</time></trkpt>
<trkpt lat="47.562903" lon="10.273453"><ele>741.54</ele><time>2024-04-25T07:03:11Z</time></trkpt>
<trkpt lat="47.563088" lon="10.273333"><ele>743.88</ele><time>2024-04-25T07:03:14Z</time></trkpt>
<trkpt lat="47.563393" lon="10.273197"><ele>742.46</ele><time>2024-04-25T07:03:17Z</time></trkpt>
<trkpt lat="47.56424" lon="10.273093"><ele>738.27</ele><time>2024-04-25T07:03:20Z</time></trkpt>
<trkpt lat="47.564543" lon="10.273124"><ele>738.56</ele><time>2024-04-25T07:03:23Z</time></trkpt>
<trkpt lat="47.564895" lon="10.27328"><ele>736.45</ele><time>2024-04-25T07:03:26Z</time></trkpt>
<trkpt lat="47.565016" lon="10.273294"><ele>735.96</ele><time>2024-04-25T07:03:29Z</time></trkpt>
<trkpt lat="47.565139" lon="10.273275"><ele>735.71</ele><time>2024-04-25T07:03:32Z</time></trkpt>
<trkpt lat="47.565246" lon="10.273226"><ele>735.8</ele><time>2024-04-25T07:03:35Z</time></trkpt>
<trkpt lat="47.566505" lon="10.272323"><ele>736.58</ele><time>2024-04-25T07:03:39Z</time></trkpt>
<trkpt lat="47.566666" lon="10.272243"><ele>736.07</ele><time>2024-04-25T07:03:42Z</time></trkpt>
<trkpt lat="47.568304" lon="10.271627"><ele>733.91</ele><time>2024-04-25T07:03:45Z</time></trkpt>
<trkpt lat="47.568477" lon="10.271523"><ele>735.3</ele><time>2024-04-25T07:03:48Z</time></trkpt>
<trkpt lat="47.568601" lon="10.271426"><ele>736.77</ele><time>2024-04-25T07:03:51Z</time></trkpt>
<trkpt lat="47.56924" lon="10.270786"><ele>740.29</ele><time>2024-04-25T07:03:54Z</time></trkpt>
<trkpt lat="47.569355" lon="10.270643"><ele>740.91</ele><time>2024-04-25T07:03:57Z</time></trkpt>
<trkpt lat="47.569605" lon="10.270256"><ele>741.53</ele><time>2024-04-25T07:04:00Z</time></trkpt>
<trkpt lat="47.569701" lon="10.270164"><ele>741.52</ele><time>2024-04-25T07:04:03Z</time></trkpt>
<trkpt lat="47.569821" lon="10.270099"><ele>741.64</ele><time>2024-04-25T07:04:06Z</time></trkpt>
<trkpt lat="47.570242" lon="10.270002"><ele>743.73</ele><time>2024-04-25T07:04:09Z</time></trkpt>
<trkpt lat="47.570887" lon="10.269842"><ele>743.03</ele><time>2024-04-25T07:04:12Z</time></trkpt>
<trkpt lat="47.571039" lon="10.269838"><ele>742.73</ele><time>2024-04-25T07:04:15Z</time></trkpt>
<trkpt lat="47.571246" lon="10.269887"><ele>741.92</ele><time>2024-04-25T07:04:18Z</time></trkpt>
<trkpt lat="47.571809" lon="10.270102"><ele>739.5</ele><time>2024-04-25T07:04:21Z</time></trkpt>
<trkpt lat="47.572374" lon="10.270276"><ele>743.09</ele><time>2024-04-25T07:04:25Z</time></trkpt>
<trkpt lat="47.572626" lon="10.270325"><ele>744.24</ele><time>2024-04-25T07:04:28Z</time></trkpt>
<trkpt lat="47.572876" lon="10.270373"><ele>744.8</ele><time>2024-04-25T07:04:31Z</time></trkpt>
<trkpt lat="47.573118" lon="10.270487"><ele>745.05</ele><time>2024-04-25T07:04:34Z</time></trkpt>
<trkpt lat="47.573554" lon="10.270804"><ele>744.29</ele><time>2024-04-25T07:04:37Z</time></trkpt>
<trkpt lat="47.573746" lon="10.271032"><ele>743.52</ele><time>2024-04-25T07:04:40Z</time></trkpt>
<trkpt lat="47.57394" lon="10.271425"><ele>741.69</ele><time>2024-04-25T07:04:43Z</time></trkpt>
<trkpt lat="47.574186" lon="10.271786"><ele>739.49</ele><time>2024-04-25T07:04:46Z</time></trkpt>
<trkpt lat="47.574388" lon="10.271956"><ele>739.03</ele><time>2024-04-25T07:04:49Z</time></trkpt>
<trkpt lat="47.574786" lon="10.272207"><ele>741.19</ele><time>2024-04-25T07:04:52Z</time></trkpt>
<trkpt lat="47.575098" lon="10.272327"><ele>742.17</ele><time>2024-04-25T07:04:55Z</time></trkpt>
<trkpt lat="47.576155" lon="10.272662"><ele>752.09</ele><time>2024-04-25T07:04:58Z</time></trkpt>
<trkpt lat="47.576346" lon="10.272696"><ele>751.46</ele><time>2024-04-25T07:05:01Z</time></trkpt>
<trkpt lat="47.576867" lon="10.272721"><ele>760.08</ele><time>2024-04-25T07:05:04Z</time></trkpt>
<trkpt lat="47.577267" lon="10.272638"><ele>763.6</ele><time>2024-04-25T07:05:08Z</time></trkpt>
<trkpt lat="47.57749" lon="10.272623"><ele>761.54</ele><time>2024-04-25T07:05:11Z</time></trkpt>
<trkpt lat="47.577666" lon="10.272749"><ele>757.59</ele><time>2024-04-25T07:05:14Z</time></trkpt>
<trkpt lat="47.577832" lon="10.273023"><ele>754.59</ele><time>2024-04-25T07:05:17Z</time></trkpt>
<trkpt lat="47.578184" lon="10.273463"><ele>741.48</ele><time>2024-04-25T07:05:20Z</time></trkpt>
<trkpt lat="47.578424" lon="10.273824"><ele>735.97</ele><time>2024-04-25T07:05:23Z</time></trkpt>
<trkpt lat="47.578575" lon="10.273997"><ele>734.38</ele><time>2024-04-25T07:05:26Z</time></trkpt>
<trkpt lat="47.578885" lon="10.274237"><ele>728.14</ele><time>2024-04-25T07:05:29Z</time></trkpt>
<trkpt lat="47.579262" lon="10.274463"><ele>726.29</ele><time>2024-04-25T07:05:32Z</time></trkpt>
<trkpt lat="47.579762" lon="10.274531"><ele>722.29</ele><time>2024-04-25T07:05:35Z</time></trkpt>
<trkpt lat="47.580088" lon="10.27467"><ele>721.07</ele><time>2024-04-25T07:05:38Z</time></trkpt>
<trkpt lat="47.580275" lon="10.274776"><ele>722.58</ele><time>2024-04-25T07:05:41Z</time></trkpt>
<trkpt lat="47.580897" lon="10.275286"><ele>725.18</ele><time>2024-04-25T07:05:44Z</time></trkpt>
<trkpt lat="47.581218" lon="10.275647"><ele>724.91</ele><time>2024-04-25T07:05:47Z</time></trkpt>
<trkpt lat="47.582119" lon="10.276934"><ele>729.78</ele><time>2024-04-25T07:05:50Z</time></trkpt>
<trkpt lat="47.582301" lon="10.277141"><ele>729.35</ele><time>2024-04-25T07:05:54Z</time></trkpt>
<trkpt lat="47.582875" lon="10.277648"><ele>728.82</ele><time>2024-04-25T07:05:57Z</time></trkpt>
<trkpt lat="47.583444" lon="10.278118"><ele>727.53</ele><time>2024-04-25T07:06:00Z</time></trkpt>
<trkpt lat="47.5836" lon="10.278194"><ele>724.26</ele><time>2024-04-25T07:06:03Z</time></trkpt>
<trkpt lat="47.583694" lon="10.27821"><ele>723.98</ele><time>2024-04-25T07:06:06Z</time></trkpt>
<trkpt lat="47.584285" lon="10.278154"><ele>720.35</ele><time>2024-04-25T07:06:09Z</time></trkpt>
<trkpt lat="47.584501" lon="10.278157"><ele>720.16</ele><time>2024-04-25T07:06:12Z</time></trkpt>
<trkpt lat="47.584974" lon="10.278339"><ele>719.17</ele><time>2024-04-25T07:06:15Z</time></trkpt>
<trkpt lat="47.585096" lon="10.278369"><ele>719.81</ele><time>2024-04-25T07:06:18Z</time></trkpt>
<trkpt lat="47.585774" lon="10.27846"><ele>722.79</ele><time>2024-04-25T07:06:21Z</time></trkpt>
<trkpt lat="47.586495" lon="10.278854"><ele>723.56</ele><time>2024-04-25T07:06:24Z</time></trkpt>
<trkpt lat="47.587027" lon="10.279213"><ele>722.56</ele><time>2024-04-25T07:06:27Z</time></trkpt>
<trkpt lat="47.587289" lon="10.279436"><ele>723.47</ele><time>2024-04-25T07:06:30Z</time></trkpt>
<trkpt lat="47.587395" lon="10.279557"><ele>723.56</ele><time>2024-04-25T07:06:33Z</time></trkpt>
<trkpt lat="47.587558" lon="10.279804"><ele>723.67</ele><time>2024-04-25T07:06:36Z</time></trkpt>
<trkpt lat="47.58789" lon="10.280816"><ele>722.13</ele><time>2024-04-25T07:06:40Z</time></trkpt>
<trkpt lat="47.58812" lon="10.28135"><ele>726.78</ele><time>2024-04-25T07:06:43Z</time></trkpt>
<trkpt lat="47.588222" lon="10.281497"><ele>728.3</ele><time>2024-04-25T07:06:46Z</time></trkpt>
<trkpt lat="47.588911" lon="10.282169"><ele>731.98</ele><time>2024-04-25T07:06:49Z</time></trkpt>
<trkpt lat="47.590168" lon="10.283371"><ele>735.35</ele><time>2024-04-25T07:06:52Z</time></trkpt>
<trkpt lat="47.591088" lon="10.284079"><ele>740.31</ele><time>2024-04-25T07:06:55Z</time></trkpt>
<trkpt lat="47.591924" lon="10.284788"><ele>738.49</ele><time>2024-04-25T07:06:58Z</time></trkpt>
<trkpt lat="47.592159" lon="10.285039"><ele>738.73</ele><time>2024-04-25T07:07:01Z</time></trkpt>
<trkpt lat="47.592338" lon="10.285168"><ele>738.54</ele><time>2024-04-25T07:07:04Z</time></trkpt>
<trkpt lat="47.593058" lon="10.28549"><ele>742.49</ele><time>2024-04-25T07:07:07Z</time></trkpt>
<trkpt lat="47.59416" lon="10.285907"><ele>738.33</ele><time>2024-04-25T07:07:10Z</time></trkpt>
<trkpt lat="47.594347" lon="10.286003"><ele>736.66</ele><time>2024-04-25T07:07:13Z</time></trkpt>
<trkpt lat="47.595244" lon="10.286711"><ele>736.85</ele><time>2024-04-25T07:07:16Z</time></trkpt>
<trkpt lat="47.595605" lon="10.286948"><ele>742.05</ele><time>2024-04-25T07:07:19Z</time></trkpt>
<trkpt lat="47.595864" lon="10.287091"><ele>741.88</ele><time>2024-04-25T07:07:23Z</time></trkpt>
<trkpt lat="47.596141" lon="10.2872"><ele>737.53</ele><time>2024-04-25T07:07:26Z</time></trkpt>
<trkpt lat="47.596669" lon="10.287486"><ele>739.88</ele><time>2024-04-25T07:07:29Z</time></trkpt>
<trkpt lat="47.596906" lon="10.287651"><ele>739.36</ele><time>2024-04-25T07:07:32Z</time></trkpt>
<trkpt lat="47.597383" lon="10.288056"><ele>739.42</ele><time>2024-04-25T07:07:35Z</time></trkpt>
<trkpt lat="47.598037" lon="10.288372"><ele>744.01</ele><time>2024-04-25T07:07:38Z</time></trkpt>
<trkpt lat="47.598814" lon="10.288793"><ele>739.44</ele><time>2024-04-25T07:07:41Z</time></trkpt>
<trkpt lat="47.600339" lon="10.289358"><ele>737.09</ele><time>2024-04-25T07:07:44Z</time></trkpt>
<trkpt lat="47.600737" lon="10.28954"><ele>734.53</ele><time>2024-04-25T07:07:47Z</time></trkpt>
<trkpt lat="47.600864" lon="10.289641"><ele>734.65</ele><time>2024-04-25T07:07:50Z</time></trkpt>
<trkpt lat="47.601026" lon="10.28984"><ele>736.28</ele><time>2024-04-25T07:07:53Z</time></trkpt>
<trkpt lat="47.601252" lon="10.290363"><ele>738.94</ele><time>2024-04-25T07:07:56Z</time></trkpt>
<trkpt lat="47.601364" lon="10.29055"><ele>739.14</ele><time>2024-04-25T07:07:59Z</time></trkpt>
<trkpt lat="47.601419" lon="10.290614"><ele>739.02</ele><time>2024-04-25T07:08:02Z</time></trkpt>
<trkpt lat="47.60161" lon="10.290739"><ele>738.6</ele><time>2024-04-25T07:08:05Z</time></trkpt>
<trkpt lat="47.602596" lon="10.291094"><ele>737.72</ele><time>2024-04-25T07:08:09Z</time></trkpt>
<trkpt lat="47.60335" lon="10.291571"><ele>740.21</ele><time>2024-04-25T07:08:12Z</time></trkpt>
<trkpt lat="47.605183" lon="10.29304"><ele>742.68</ele><time>2024-04-25T07:08:15Z</time></trkpt>
<trkpt lat="47.605846" lon="10.293584"><ele>741.14</ele><time>2024-04-25T07:08:18Z</time></trkpt>
<trkpt lat="47.606556" lon="10.294337"><ele>744.6</ele><time>2024-04-25T07:08:21Z</time></trkpt>
<trkpt lat="47.606631" lon="10.294434"><ele>744.87</ele><time>2024-04-25T07:08:24Z</time></trkpt>
<trkpt lat="47.606986" lon="10.295086"><ele>744.99</ele><time>2024-04-25T07:08:27Z</time></trkpt>
<trkpt lat="47.607178" lon="10.295343"><ele>745.48</ele><time>2024-04-25T07:08:30Z</time></trkpt>
<trkpt lat="47.607946" lon="10.296135"><ele>745.07</ele><time>2024-04-25T07:08:33Z</time></trkpt>
<trkpt lat="47.608055" lon="10.29619"><ele>745.42</ele><time>2024-04-25T07:08:36Z</time></trkpt>
<trkpt lat="47.60835" lon="10.296133"><ele>744.65</ele><time>2024-04-25T07:08:39Z</time></trkpt>
<trkpt lat="47.608415" lon="10.296151"><ele>743.27</ele><time>2024-04-25T07:08:42Z</time></trkpt>
<trkpt lat="47.608513" lon="10.29625"><ele>741.45</ele><time>2024-04-25T07:08:45Z</time></trkpt>
<trkpt lat="47.608748" lon="10.2966"><ele>739.3</ele><time>2024-04-25T07:08:48Z</time></trkpt>
<trkpt lat="47.608953" lon="10.296797"><ele>739.54</ele><time>2024-04-25T07:08:51Z</time></trkpt>
<trkpt lat="47.609217" lon="10.296976"><ele>738.59</ele><time>2024-04-25T07:08:55Z</time></trkpt>
<trkpt lat="47.60956" lon="10.297204"><ele>734.36</ele><time>2024-04-25T07:08:58Z</time></trkpt>
<trkpt lat="47.609885" lon="10.297386"><ele>728.91</ele><time>2024-04-25T07:09:01Z</time></trkpt>
<trkpt lat="47.610567" lon="10.297709"><ele>721.62</ele><time>2024-04-25T07:09:04Z</time></trkpt>
<trkpt lat="47.610792" lon="10.297875"><ele>719.8</ele><time>2024-04-25T07:09:07Z</time></trkpt>
<trkpt lat="47.611476" lon="10.298544"><ele>717.97</ele><time>2024-04-25T07:09:10Z</time></trkpt>
<trkpt lat="47.611821" lon="10.298825"><ele>716.88</ele><time>2024-04-25T07:09:13Z</time></trkpt>
<trkpt lat="47.612566" lon="10.299379"><ele>714.77</ele><time>2024-04-25T07:09:16Z</time></trkpt>
<trkpt lat="47.613315" lon="10.299937"><ele>715.77</ele><time>2024-04-25T07:09:19Z</time></trkpt>
<trkpt lat="47.61361" lon="10.300198"><ele>715.72</ele><time>2024-04-25T07:09:22Z</time></trkpt>
<trkpt lat="47.613855" lon="10.300385"><ele>718.48</ele><time>2024-04-25T07:09:25Z</time></trkpt>
<trkpt lat="47.614063" lon="10.300514"><ele>719.61</ele><time>2024-04-25T07:09:28Z</time></trkpt>
<trkpt lat="47.614991" lon="10.300892"><ele>707.72</ele><time>2024-04-25T07:09:31Z</time></trkpt>
<trkpt lat="47.615776" lon="10.301352"><ele>712.56</ele><time>2024-04-25T07:09:34Z</time></trkpt>
<trkpt lat="47.615997" lon="10.301524"><ele>714.17</ele><time>2024-04-25T07:09:37Z</time></trkpt>
<trkpt lat="47.616682" lon="10.302393"><ele>716.7</ele><time>2024-04-25T07:09:41Z</time></trkpt>
<trkpt lat="47.616823" lon="10.302545"><ele>719.45</ele><time>2024-04-25T07:09:44Z</time></trkpt>
<trkpt lat="47.61698" lon="10.30267"><ele>722.38</ele><time>2024-04-25T07:09:47Z</time></trkpt>
<trkpt lat="47.617263" lon="10.302827"><ele>725.21</ele><time>2024-04-25T07:09:50Z</time></trkpt>
<trkpt lat="47.618296" lon="10.303008"><ele>731.58</ele><time>2024-04-25T07:09:53Z</time></trkpt>
<trkpt lat="47.618463" lon="10.303014"><ele>732.31</ele><time>2024-04-25T07:09:56Z</time></trkpt>
<trkpt lat="47.619119" lon="10.302898"><ele>733.75</ele><time>2024-04-25T07:09:59Z</time></trkpt>
<trkpt lat="47.61934" lon="10.302926"><ele>735.24</ele><time>2024-04-25T07:10:02Z</time></trkpt>
<trkpt lat="47.619529" lon="10.303065"><ele>737.19</ele><time>2024-04-25T07:10:05Z</time></trkpt>
<trkpt lat="47.619622" lon="10.303195"><ele>738.05</ele><time>2024-04-25T07:10:08Z</time></trkpt>
<trkpt lat="47.620063" lon="10.304027"><ele>740.98</ele><time>2024-04-25T07:10:11Z</time></trkpt>
<trkpt lat="47.621701" lon="10.306782"><ele>742.71</ele><time>2024-04-25T07:10:14Z</time></trkpt>
<trkpt lat="47.622171" lon="10.3076"><ele>751.96</ele><time>2024-04-25T07:10:17Z</time></trkpt>
<trkpt lat="47.622445" lon="10.308108"><ele>747.03</ele><time>2024-04-25T07:10:20Z</time></trkpt>
<trkpt lat="47.622825" lon="10.308935"><ele>738.24</ele><time>2024-04-25T07:10:24Z</time></trkpt>
<trkpt lat="47.623115" lon="10.309472"><ele>736.67</ele><time>2024-04-25T07:10:27Z</time></trkpt>
<trkpt lat="47.624229" lon="10.311324"><ele>728.41</ele><time>2024-04-25T07:10:30Z</time></trkpt>
<trkpt lat="47.62432" lon="10.311445"><ele>727.8</ele><time>2024-04-25T07:10:33Z</time></trkpt>
<trkpt lat="47.624495" lon="10.311589"><ele>727.59</ele><time>2024-04-25T07:10:36Z</time></trkpt>
<trkpt lat="47.624825" lon="10.311694"><ele>729.37</ele><time>2024-04-25T07:10:39Z</time></trkpt>
<trkpt lat="47.625211" lon="10.311863"><ele>730.31</ele><time>2024-04-25T07:10:42Z</time></trkpt>
<trkpt lat="47.625362" lon="10.312015"><ele>730.95</ele><time>2024-04-25T07:10:45Z</time></trkpt>
<trkpt lat="47.625557" lon="10.312318"><ele>730.98</ele><time>2024-04-25T07:10:48Z</time></trkpt>
<trkpt lat="47.625688" lon="10.312553"><ele>730.05</ele><time>2024-04-25T07:10:51Z</time></trkpt>
<trkpt lat="47.626001" lon="10.313284"><ele>729.61</ele><time>2024-04-25T07:10:54Z</time></trkpt>
<trkpt lat="47.626072" lon="10.313498"><ele>729.88</ele><time>2024-04-25T07:10:57Z</time></trkpt>
<trkpt lat="47.626137" lon="10.313769"><ele>730.47</ele><time>2024-04-25T07:11:00Z</time></trkpt>
<trkpt lat="47.626223" lon="10.314296"><ele>731.19</ele><time>2024-04-25T07:11:03Z</time></trkpt>
<trkpt lat="47.626123" lon="10.314355"><ele>731.03</ele><time>2024-04-25T07:11:08Z</time></trkpt>
<trkpt lat="47.625752" lon="10.314858"><ele>732.29</ele><time>2024-04-25T07:11:12Z</time></trkpt>
<trkpt lat="47.625539" lon="10.315379"><ele>735.46</ele><time>2024-04-25T07:11:16Z</time></trkpt>
<trkpt lat="47.625417" lon="10.31551"><ele>736.41</ele><time>2024-04-25T07:11:20Z</time></trkpt>
<trkpt lat="47.625307" lon="10.315691"><ele>737.0</ele><time>2024-04-25T07:11:24Z</time></trkpt>
<trkpt lat="47.625261" lon="10.315894"><ele>737.42</ele><time>2024-04-25T07:11:28Z</time></trkpt>
<trkpt lat="47.625192" lon="10.316624"><ele>743.54</ele><time>2024-04-25T07:11:32Z</time></trkpt>
<trkpt lat="47.625188" lon="10.316994"><ele>747.53</ele><time>2024-04-25T07:11:36Z</time></trkpt>
<trkpt lat="47.625298" lon="10.317345"><ele>751.67</ele><time>2024-04-25T07:11:41Z</time></trkpt>
<trkpt lat="47.625518" lon="10.317614"><ele>753.55</ele><time>2024-04-25T07:11:45Z</time></trkpt>
<trkpt lat="47.625594" lon="10.317874"><ele>754.95</ele><time>2024-04-25T07:11:49Z</time></trkpt>
<trkpt lat="47.625575" lon="10.318288"><ele>759.17</ele><time>2024-04-25T07:11:53Z</time></trkpt>
<trkpt lat="47.625622" lon="10.318616"><ele>760.54</ele><time>2024-04-25T07:11:57Z</time></trkpt>
<trkpt lat="47.62572" lon="10.31884"><ele>761.13</ele><time>2024-04-25T07:12:01Z</time></trkpt>
<trkpt lat="47.625912" lon="10.319404"><ele>760.67</ele><time>2024-04-25T07:12:05Z</time></trkpt>
<trkpt lat="47.626035" lon="10.319876"><ele>764.64</ele><time>2024-04-25T07:12:09Z</time></trkpt>
<trkpt lat="47.626263" lon="10.319861"><ele>764.54</ele><time>2024-04-25T07:12:12Z</time></trkpt>
<trkpt lat="47.626494" lon="10.319881"><ele>765.6</ele><time>2024-04-25T07:12:15Z</time></trkpt>
<trkpt lat="47.626696" lon="10.319611"><ele>765.55</ele><time>2024-04-25T07:12:17Z</time></trkpt>
<trkpt lat="47.626851" lon="10.319491"><ele>766.88</ele><time>2024-04-25T07:12:20Z</time></trkpt>
<trkpt lat="47.627" lon="10.319513"><ele>768.09</ele><time>2024-04-25T07:12:22Z</time></trkpt>
<trkpt lat="47.627141" lon="10.319645"><ele>768.53</ele><time>2024-04-25T07:12:24Z</time></trkpt>
<trkpt lat="47.627346" lon="10.320085"><ele>765.16</ele><time>2024-04-25T07:12:27Z</time></trkpt>
<trkpt lat="47.627577" lon="10.32039"><ele>762.62</ele><time>2024-04-25T07:12:29Z</time></trkpt>
<trkpt lat="47.627793" lon="10.320776"><ele>763.82</ele><time>2024-04-25T07:12:32Z</time></trkpt>
<trkpt lat="47.627839" lon="10.320809"><ele>762.55</ele><time>2024-04-25T07:12:34Z</time></trkpt>
<trkpt lat="47.627888" lon="10.320791"><ele>760.57</ele><time>2024-04-25T07:12:36Z</time></trkpt>
<trkpt lat="47.627941" lon="10.320908"><ele>759.68</ele><time>2024-04-25T07:12:40Z</time></trkpt>
<trkpt lat="47.6282" lon="10.321338"><ele>756.12</ele><time>2024-04-25T07:12:44Z</time></trkpt>
<trkpt lat="47.628518" lon="10.321803"><ele>754.34</ele><time>2024-04-25T07:12:47Z</time></trkpt>
<trkpt lat="47.628693" lon="10.322001"><ele>752.97</ele><time>2024-04-25T07:12:51Z</time></trkpt>
<trkpt lat="47.628956" lon="10.322249"><ele>754.07</ele><time>2024-04-25T07:12:54Z</time></trkpt>
<trkpt lat="47.629898" lon="10.32289"><ele>753.05</ele><time>2024-04-25T07:12:58Z</time></trkpt>
<trkpt lat="47.630414" lon="10.323218"><ele>756.29</ele><time>2024-04-25T07:13:02Z</time></trkpt>
<trkpt lat="47.630631" lon="10.323418"><ele>756.26</ele><time>2024-04-25T07:13:05Z</time></trkpt>
<trkpt lat="47.63141" lon="10.324557"><ele>750.25</ele><time>2024-04-25T07:13:09Z</time></trkpt>
<trkpt lat="47.632626" lon="10.326341"><ele>752.75</ele><time>2024-04-25T07:13:12Z</time></trkpt>
<trkpt lat="47.633224" lon="10.327386"><ele>756.56</ele><time>2024-04-25T07:13:16Z</time></trkpt>
<trkpt lat="47.633373" lon="10.327607"><ele>755.43</ele><time>2024-04-25T07:13:20Z</time></trkpt>
<trkpt lat="47.633555" lon="10.327769"><ele>754.57</ele><time>2024-04-25T07:13:23Z</time></trkpt>
<trkpt lat="47.633687" lon="10.327852"><ele>754.59</ele><time>2024-04-25T07:13:27Z</time></trkpt>
<trkpt lat="47.634361" lon="10.328187"><ele>751.21</ele><time>2024-04-25T07:13:30Z</time></trkpt>
<trkpt lat="47.634718" lon="10.328491"><ele>747.62</ele><time>2024-04-25T07:13:34Z</time></trkpt>
<trkpt lat="47.634973" lon="10.328736"><ele>747.5</ele><time>2024-04-25T07:13:38Z</time></trkpt>
<trkpt lat="47.635554" lon="10.329403"><ele>752.71</ele><time>2024-04-25T07:13:41Z</time></trkpt>
<trkpt lat="47.636645" lon="10.330887"><ele>749.57</ele><time>2024-04-25T07:13:45Z</time></trkpt>
<trkpt lat="47.637364" lon="10.332012"><ele>754.08</ele><time>2024-04-25T07:13:48Z</time></trkpt>
<trkpt lat="47.637619" lon="10.332379"><ele>754.36</ele><time>2024-04-25T07:13:52Z</time></trkpt>
<trkpt lat="47.638039" lon="10.332825"><ele>754.61</ele><time>2024-04-25T07:13:56Z</time></trkpt>
<trkpt lat="47.638395" lon="10.333136"><ele>757.08</ele><time>2024-04-25T07:13:59Z</time></trkpt>
<trkpt lat="47.638786" lon="10.333384"><ele>754.81</ele><time>2024-04-25T07:14:03Z</time></trkpt>
<trkpt lat="47.638888" lon="10.333411"><ele>754.01</ele><time>2024-04-25T07:14:06Z</time></trkpt>
<trkpt lat="47.639325" lon="10.333405"><ele>755.68</ele><time>2024-04-25T07:14:10Z</time></trkpt>
<trkpt lat="47.639718" lon="10.333346"><ele>754.08</ele><time>2024-04-25T07:14:14Z</time></trkpt>
<trkpt lat="47.640065" lon="10.333137"><ele>753.22</ele><time>2024-04-25T07:14:17Z</time></trkpt>
<trkpt lat="47.640194" lon="10.333113"><ele>753.06</ele><time>2024-04-25T07:14:21Z</time></trkpt>
<trkpt lat="47.640272" lon="10.333142"><ele>753.01</ele><time>2024-04-25T07:14:24Z</time></trkpt>
<trkpt lat="47.640444" lon="10.33327"><ele>751.8</ele><time>2024-04-25T07:14:28Z</time></trkpt>
<trkpt lat="47.640224" lon="10.33364"><ele>754.38</ele><time>2024-04-25T07:14:31Z</time></trkpt>
<trkpt lat="47.639984" lon="10.333962"><ele>756.34</ele><time>2024-04-25T07:14:34Z</time></trkpt>
<trkpt lat="47.639572" lon="10.334276"><ele>760.68</ele><time>2024-04-25T07:14:37Z</time></trkpt>
<trkpt lat="47.639499" lon="10.334417"><ele>762.23</ele><time>2024-04-25T07:14:40Z</time></trkpt>
<trkpt lat="47.63948" lon="10.334518"><ele>763.88</ele><time>2024-04-25T07:14:43Z</time></trkpt>
<trkpt lat="47.63949" lon="10.335439"><ele>783.3</ele><time>2024-04-25T07:14:46Z</time></trkpt>
<trkpt lat="47.6395" lon="10.336098"><ele>795.77</ele><time>2024-04-25T07:14:49Z</time></trkpt>
<trkpt lat="47.639535" lon="10.336195"><ele>796.56</ele><time>2024-04-25T07:14:52Z</time></trkpt>
<trkpt lat="47.639687" lon="10.3364"><ele>797.13</ele><time>2024-04-25T07:14:55Z</time></trkpt>
<trkpt lat="47.63975" lon="10.336455"><ele>796.56</ele><time>2024-04-25T07:14:58Z</time></trkpt>
<trkpt lat="47.640322" lon="10.336827"><ele>794.38</ele><time>2024-04-25T07:15:01Z</time></trkpt>
<trkpt lat="47.640541" lon="10.337089"><ele>796.08</ele><time>2024-04-25T07:15:05Z</time></trkpt>
<trkpt lat="47.640604" lon="10.337198"><ele>796.17</ele><time>2024-04-25T07:15:08Z</time></trkpt>
<trkpt lat="47.64065" lon="10.33733"><ele>796.34</ele><time>2024-04-25T07:15:11Z</time></trkpt>
<trkpt lat="47.640693" lon="10.337533"><ele>796.43</ele><time>2024-04-25T07:15:14Z</time></trkpt>
<trkpt lat="47.640825" lon="10.339111"><ele>807.17</ele><time>2024-04-25T07:15:17Z</time></trkpt>
<trkpt lat="47.640833" lon="10.339631"><ele>813.02</ele><time>2024-04-25T07:15:20Z</time></trkpt>
<trkpt lat="47.640794" lon="10.339825"><ele>814.74</ele><time>2024-04-25T07:15:23Z</time></trkpt>
<trkpt lat="47.640604" lon="10.340493"><ele>816.17</ele><time>2024-04-25T07:15:26Z</time></trkpt>
<trkpt lat="47.640566" lon="10.340834"><ele>816.04</ele><time>2024-04-25T07:15:29Z</time></trkpt>
<trkpt lat="47.64059" lon="10.341138"><ele>817.0</ele><time>2024-04-25T07:15:32Z</time></trkpt>
<trkpt lat="47.640656" lon="10.341389"><ele>817.0</ele><time>2024-04-25T07:15:35Z</time></trkpt>
<trkpt lat="47.640992" lon="10.342401"><ele>822.63</ele><time>2024-04-25T07:15:38Z</time></trkpt>
<trkpt lat="47.641082" lon="10.342899"><ele>825.27</ele><time>2024-04-25T07:15:41Z</time></trkpt>
<trkpt lat="47.64109" lon="10.343083"><ele>826.13</ele><time>2024-04-25T07:15:44Z</time></trkpt>
<trkpt lat="47.641086" lon="10.343461"><ele>829.8</ele><time>2024-04-25T07:15:47Z</time></trkpt>
<trkpt lat="47.641061" lon="10.343691"><ele>832.69</ele><time>2024-04-25T07:15:50Z</time></trkpt>
<trkpt lat="47.640829" lon="10.344883"><ele>842.12</ele><time>2024-04-25T07:15:53Z</time></trkpt>
<trkpt lat="47.640805" lon="10.345222"><ele>845.11</ele><time>2024-04-25T07:15:56Z</time></trkpt>
<trkpt lat="47.640785" lon="10.346442"><ele>848.03</ele><time>2024-04-25T07:15:59Z</time></trkpt>
<trkpt lat="47.64081" lon="10.346903"><ele>849.01</ele><time>2024-04-25T07:16:02Z</time></trkpt>
<trkpt lat="47.640845" lon="10.347232"><ele>850.91</ele><time>2024-04-25T07:16:05Z</time></trkpt>
<trkpt lat="47.640912" lon="10.347619"><ele>852.41</ele><time>2024-04-25T07:16:08Z</time></trkpt>
<trkpt lat="47.640959" lon="10.347804"><ele>853.78</ele><time>2024-04-25T07:16:12Z</time></trkpt>
<trkpt lat="47.641126" lon="10.348313"><ele>856.0</ele><time>2024-04-25T07:16:15Z</time></trkpt>
<trkpt lat="47.641284" lon="10.348619"><ele>856.42</ele><time>2024-04-25T07:16:18Z</time></trkpt>
<trkpt lat="47.641621" lon="10.349188"><ele>859.24</ele><time>2024-04-25T07:16:21Z</time></trkpt>
<trkpt lat="47.641866" lon="10.349732"><ele>865.07</ele><time>2024-04-25T07:16:24Z</time></trkpt>
<trkpt lat="47.642398" lon="10.351511"><ele>867.44</ele><time>2024-04-25T07:16:27Z</time></trkpt>
<trkpt lat="47.642713" lon="10.352638"><ele>874.52</ele><time>2024-04-25T07:16:30Z</time></trkpt>
<trkpt lat="47.642892" lon="10.353366"><ele>879.0</ele><time>2024-04-25T07:16:33Z</time></trkpt>
<trkpt lat="47.642972" lon="10.353556"><ele>879.0</ele><time>2024-04-25T07:16:36Z</time></trkpt>
<trkpt lat="47.642871" lon="10.355218"><ele>885.92</ele><time>2024-04-25T07:16:38Z</time></trkpt>
<trkpt lat="47.642822" lon="10.355818"><ele>890.42</ele><time>2024-04-25T07:16:41Z</time></trkpt>
<trkpt lat="47.642772" lon="10.356072"><ele>889.96</ele><time>2024-04-25T07:16:43Z</time></trkpt>
<trkpt lat="47.642696" lon="10.356286"><ele>888.78</ele><time>2024-04-25T07:16:45Z</time></trkpt>
<trkpt lat="47.642591" lon="10.356446"><ele>887.66</ele><time>2024-04-25T07:16:48Z</time></trkpt>
<trkpt lat="47.642461" lon="10.356584"><ele>886.76</ele><time>2024-04-25T07:16:50Z</time></trkpt>
<trkpt lat="47.642291" lon="10.356627"><ele>885.6</ele><time>2024-04-25T07:16:52Z</time></trkpt>
<trkpt lat="47.64203" lon="10.356605"><ele>885.91</ele><time>2024-04-25T07:16:55Z</time></trkpt>
<trkpt lat="47.640531" lon="10.356168"><ele>886.63</ele><time>2024-04-25T07:16:57Z</time></trkpt>
<trkpt lat="47.640297" lon="10.356076"><ele>888.79</ele><time>2024-04-25T07:16:59Z</time></trkpt>
<trkpt lat="47.64005" lon="10.355945"><ele>891.96</ele><time>2024-04-25T07:17:01Z</time></trkpt>
<trkpt lat="47.639863" lon="10.355814"><ele>892.11</ele><time>2024-04-25T07:17:04Z</time></trkpt>
<trkpt lat="47.639708" lon="10.355666"><ele>892.08</ele><time>2024-04-25T07:17:06Z</time></trkpt>
<trkpt lat="47.638991" lon="10.35487"><ele>893.64</ele><time>2024-04-25T07:17:08Z</time></trkpt>
<trkpt lat="47.638818" lon="10.354724"><ele>891.19</ele><time>2024-04-25T07:17:11Z</time></trkpt>
<trkpt lat="47.638719" lon="10.354695"><ele>888.98</ele><time>2024-04-25T07:17:13Z</time></trkpt>
<trkpt lat="47.638511" lon="10.354708"><ele>884.7</ele><time>2024-04-25T07:17:15Z</time></trkpt>
<trkpt lat="47.63838" lon="10.354751"><ele>882.46</ele><time>2024-04-25T07:17:18Z</time></trkpt>
<trkpt lat="47.637478" lon="10.355351"><ele>878.84</ele><time>2024-04-25T07:17:20Z</time></trkpt>
<trkpt lat="47.637098" lon="10.355532"><ele>877.0</ele><time>2024-04-25T07:17:22Z</time></trkpt>
<trkpt lat="47.636901" lon="10.355547"><ele>876.7</ele><time>2024-04-25T07:17:25Z</time></trkpt>
<trkpt lat="47.63676" lon="10.355535"><ele>875.77</ele><time>2024-04-25T07:17:27Z</time></trkpt>
<trkpt lat="47.635378" lon="10.355367"><ele>871.64</ele><time>2024-04-25T07:17:29Z</time></trkpt>
<trkpt lat="47.635166" lon="10.355384"><ele>872.25</ele><time>2024-04-25T07:17:32Z</time></trkpt>
<trkpt lat="47.634455" lon="10.355671"><ele>867.81</ele><time>2024-04-25T07:17:34Z</time></trkpt>
<trkpt lat="47.634211" lon="10.355709"><ele>866.12</ele><time>2024-04-25T07:17:36Z</time></trkpt>
<trkpt lat="47.634002" lon="10.355692"><ele>864.84</ele><time>2024-04-25T07:17:39Z</time></trkpt>
<trkpt lat="47.633563" lon="10.35557"><ele>863.96</ele><time>2024-04-25T07:17:41Z</time></trkpt>
<trkpt lat="47.63343" lon="10.355557"><ele>864.0</ele><time>2024-04-25T07:17:43Z</time></trkpt>
<trkpt lat="47.633289" lon="10.355571"><ele>863.83</ele><time>2024-04-25T07:17:46Z</time></trkpt>
<trkpt lat="47.632874" lon="10.355722"><ele>862.01</ele><time>2024-04-25T07:17:48Z</time></trkpt>
<trkpt lat="47.632359" lon="10.355983"><ele>858.4</ele><time>2024-04-25T07:17:50Z</time></trkpt>
<trkpt lat="47.631584" lon="10.356421"><ele>854.47</ele><time>2024-04-25T07:17:53Z</time></trkpt>
<trkpt lat="47.631494" lon="10.356504"><ele>855.65</ele><time>2024-04-25T07:17:55Z</time></trkpt>
<trkpt lat="47.631375" lon="10.356674"><ele>857.66</ele><time>2024-04-25T07:17:57Z</time></trkpt>
<trkpt lat="47.631328" lon="10.356829"><ele>857.54</ele><time>2024-04-25T07:18:00Z</time></trkpt>
<trkpt lat="47.631355" lon="10.358112"><ele>861.11</ele><time>2024-04-25T07:18:02Z</time></trkpt>
<trkpt lat="47.631332" lon="10.358309"><ele>857.54</ele><time>2024-04-25T07:18:04Z</time></trkpt>
<trkpt lat="47.631239" lon="10.358473"><ele>855.11</ele><time>2024-04-25T07:18:07Z</time></trkpt>
<trkpt lat="47.631177" lon="10.358519"><ele>854.12</ele><time>2024-04-25T07:18:09Z</time></trkpt>
<trkpt lat="47.631099" lon="10.358538"><ele>853.03</ele><time>2024-04-25T07:18:11Z</time></trkpt>
<trkpt lat="47.631005" lon="10.35851"><ele>851.32</ele><time>2024-04-25T07:18:14Z</time></trkpt>
<trkpt lat="47.63091" lon="10.358432"><ele>849.56</ele><time>2024-04-25T07:18:16Z</time></trkpt>
<trkpt lat="47.630813" lon="10.358313"><ele>847.21</ele><time>2024-04-25T07:18:18Z</time></trkpt>
<trkpt lat="47.630645" lon="10.358028"><ele>840.93</ele><time>2024-04-25T07:18:21Z</time></trkpt>
<trkpt lat="47.630412" lon="10.357682"><ele>833.69</ele><time>2024-04-25T07:18:23Z</time></trkpt>
<trkpt lat="47.629738" lon="10.356862"><ele>825.13</ele><time>2024-04-25T07:18:25Z</time></trkpt>
<trkpt lat="47.629451" lon="10.356575"><ele>822.4</ele><time>2024-04-25T07:18:28Z</time></trkpt>
<trkpt lat="47.628861" lon="10.356057"><ele>819.79</ele><time>2024-04-25T07:18:30Z</time></trkpt>
<trkpt lat="47.628409" lon="10.355733"><ele>815.91</ele><time>2024-04-25T07:18:32Z</time></trkpt>
<trkpt lat="47.628254" lon="10.355666"><ele>815.14</ele><time>2024-04-25T07:18:35Z</time></trkpt>
<trkpt lat="47.628136" lon="10.355647"><ele>814.49</ele><time>2024-04-25T07:18:37Z</time></trkpt>
<trkpt lat="47.627855" lon="10.35568"><ele>812.96</ele><time>2024-04-25T07:18:39Z</time></trkpt>
<trkpt lat="47.626659" lon="10.356141"><ele>811.03</ele><time>2024-04-25T07:18:42Z</time></trkpt>
<trkpt lat="47.626784" lon="10.356405"><ele>811.42</ele><time>2024-04-25T07:18:44Z</time></trkpt>
<trkpt lat="47.62705" lon="10.356882"><ele>812.0</ele><time>2024-04-25T07:18:47Z</time></trkpt>
<trkpt lat="47.627161" lon="10.357227"><ele>813.27</ele><time>2024-04-25T07:18:49Z</time></trkpt>
<trkpt lat="47.627203" lon="10.357527"><ele>816.34</ele><time>2024-04-25T07:18:52Z</time></trkpt>
<trkpt lat="47.627207" lon="10.357986"><ele>820.47</ele><time>2024-04-25T07:18:54Z</time></trkpt>
<trkpt lat="47.627185" lon="10.358668"><ele>826.12</ele><time>2024-04-25T07:18:57Z</time></trkpt>
<trkpt lat="47.627196" lon="10.359056"><ele>833.32</ele><time>2024-04-25T07:18:59Z</time></trkpt>
<trkpt lat="47.627309" lon="10.359453"><ele>835.02</ele><time>2024-04-25T07:19:02Z</time></trkpt>
<trkpt lat="47.627465" lon="10.359784"><ele>832.91</ele><time>2024-04-25T07:19:04Z</time></trkpt>
<trkpt lat="47.627615" lon="10.360052"><ele>832.34</ele><time>2024-04-25T07:19:07Z</time></trkpt>
<trkpt lat="47.627773" lon="10.360419"><ele>832.51</ele><time>2024-04-25T07:19:10Z</time></trkpt>
<trkpt lat="47.627853" lon="10.360668"><ele>834.24</ele><time>2024-04-25T07:19:12Z</time></trkpt>
<trkpt lat="47.627915" lon="10.360935"><ele>836.59</ele><time>2024-04-25T07:19:15Z</time></trkpt>
<trkpt lat="47.627961" lon="10.36137"><ele>840.53</ele><time>2024-04-25T07:19:17Z</time></trkpt>
<trkpt lat="47.62795" lon="10.362251"><ele>850.77</ele><time>2024-04-25T07:19:20Z</time></trkpt>
<trkpt lat="47.628003" lon="10.362609"><ele>856.4</ele><time>2024-04-25T07:19:22Z</time></trkpt>
<trkpt lat="47.628047" lon="10.362762"><ele>859.69</ele><time>2024-04-25T07:19:25Z</time></trkpt>
<trkpt lat="47.628956" lon="10.365041"><ele>870.32</ele><time>2024-04-25T07:19:27Z</time></trkpt>
<trkpt lat="47.629143" lon="10.365424"><ele>864.99</ele><time>2024-04-25T07:19:30Z</time></trkpt>
<trkpt lat="47.629311" lon="10.365665"><ele>863.13</ele><time>2024-04-25T07:19:32Z</time></trkpt>
<trkpt lat="47.629423" lon="10.365865"><ele>860.77</ele><time>2024-04-25T07:19:35Z</time></trkpt>
<trkpt lat="47.62957" lon="10.36621"><ele>861.93</ele><time>2024-04-25T07:19:37Z</time></trkpt>
<trkpt lat="47.629667" lon="10.366593"><ele>862.48</ele><time>2024-04-25T07:19:40Z</time></trkpt>
<trkpt lat="47.629685" lon="10.366765"><ele>862.27</ele><time>2024-04-25T07:19:43Z</time></trkpt>
<trkpt lat="47.62969" lon="10.367161"><ele>862.48</ele><time>2024-04-25T07:19:45Z</time></trkpt>
<trkpt lat="47.629661" lon="10.367975"><ele>866.21</ele><time>2024-04-25T07:19:48Z</time></trkpt>
<trkpt lat="47.629671" lon="10.368309"><ele>868.53</ele><time>2024-04-25T07:19:50Z</time></trkpt>
<trkpt lat="47.629731" lon="10.368863"><ele>870.2</ele><time>2024-04-25T07:19:53Z</time></trkpt>
<trkpt lat="47.629949" lon="10.370205"><ele>865.36</ele><time>2024-04-25T07:19:55Z</time></trkpt>
<trkpt lat="47.630006" lon="10.371194"><ele>858.57</ele><time>2024-04-25T07:19:58Z</time></trkpt>
<trkpt lat="47.630033" lon="10.371408"><ele>857.47</ele><time>2024-04-25T07:20:00Z</time></trkpt>
<trkpt lat="47.630091" lon="10.371656"><ele>857.0</ele><time>2024-04-25T07:20:03Z</time></trkpt>
<trkpt lat="47.630208" lon="10.372032"><ele>853.28</ele><time>2024-04-25T07:20:05Z</time></trkpt>
<trkpt lat="47.630369" lon="10.372437"><ele>848.75</ele><time>2024-04-25T07:20:08Z</time></trkpt>
<trkpt lat="47.631042" lon="10.373561"><ele>851.73</ele><time>2024-04-25T07:20:11Z</time></trkpt>
<trkpt lat="47.631296" lon="10.374048"><ele>854.91</ele><time>2024-04-25T07:20:13Z</time></trkpt>
<trkpt lat="47.631518" lon="10.374572"><ele>861.73</ele><time>2024-04-25T07:20:16Z</time></trkpt>
<trkpt lat="47.631638" lon="10.374902"><ele>864.91</ele><time>2024-04-25T07:20:18Z</time></trkpt>
<trkpt lat="47.631925" lon="10.375796"><ele>874.8</ele><time>2024-04-25T07:20:21Z</time></trkpt>
<trkpt lat="47.632108" lon="10.376196"><ele>876.95</ele><time>2024-04-25T07:20:23Z</time></trkpt>
<trkpt lat="47.632418" lon="10.376759"><ele>882.38</ele><time>2024-04-25T07:20:26Z</time></trkpt>
<trkpt lat="47.632644" lon="10.377338"><ele>883.51</ele><time>2024-04-25T07:20:28Z</time></trkpt>
<trkpt lat="47.632679" lon="10.377607"><ele>885.11</ele><time>2024-04-25T07:20:31Z</time></trkpt>
<trkpt lat="47.632688" lon="10.377923"><ele>884.12</ele><time>2024-04-25T07:20:33Z</time></trkpt>
<trkpt lat="47.632677" lon="10.378418"><ele>881.0</ele><time>2024-04-25T07:20:36Z</time></trkpt>
<trkpt lat="47.632577" lon="10.379781"><ele>884.57</ele><time>2024-04-25T07:20:38Z</time></trkpt>
<trkpt lat="47.632585" lon="10.380161"><ele>882.84</ele><time>2024-04-25T07:20:41Z</time></trkpt>
<trkpt lat="47.632623" lon="10.380538"><ele>880.12</ele><time>2024-04-25T07:20:44Z</time></trkpt>
<trkpt lat="47.632671" lon="10.380831"><ele>879.39</ele><time>2024-04-25T07:20:46Z</time></trkpt>
<trkpt lat="47.632743" lon="10.38114"><ele>879.37</ele><time>2024-04-25T07:20:49Z</time></trkpt>
<trkpt lat="47.632817" lon="10.381363"><ele>879.64</ele><time>2024-04-25T07:20:51Z</time></trkpt>
<trkpt lat="47.632932" lon="10.381626"><ele>878.89</ele><time>2024-04-25T07:20:54Z</time></trkpt>
<trkpt lat="47.633298" lon="10.382291"><ele>875.47</ele><time>2024-04-25T07:20:56Z</time></trkpt>
<trkpt lat="47.634394" lon="10.383942"><ele>869.21</ele><time>2024-04-25T07:20:59Z</time></trkpt>
<trkpt lat="47.634512" lon="10.384152"><ele>868.51</ele><time>2024-04-25T07:21:01Z</time></trkpt>
<trkpt lat="47.634608" lon="10.384371"><ele>871.08</ele><time>2024-04-25T07:21:04Z</time></trkpt>
<trkpt lat="47.63465" lon="10.384529"><ele>873.14</ele><time>2024-04-25T07:21:06Z</time></trkpt>
<trkpt lat="47.634768" lon="10.38529"><ele>877.47</ele><time>2024-04-25T07:21:09Z</time></trkpt>
<trkpt lat="47.63485" lon="10.385849"><ele>877.57</ele><time>2024-04-25T07:21:12Z</time></trkpt>
<trkpt lat="47.634954" lon="10.386189"><ele>878.05</ele><time>2024-04-25T07:21:14Z</time></trkpt>
<trkpt lat="47.635308" lon="10.386833"><ele>881.6</ele><time>2024-04-25T07:21:17Z</time></trkpt>
<trkpt lat="47.635635" lon="10.387608"><ele>882.1</ele><time>2024-04-25T07:21:19Z</time></trkpt>
<trkpt lat="47.635784" lon="10.38786"><ele>882.72</ele><time>2024-04-25T07:21:22Z</time></trkpt>
<trkpt lat="47.635913" lon="10.388021"><ele>883.5</ele><time>2024-04-25T07:21:24Z</time></trkpt>
<trkpt lat="47.636094" lon="10.388188"><ele>883.51</ele><time>2024-04-25T07:21:27Z</time></trkpt>
<trkpt lat="47.636282" lon="10.388328"><ele>883.97</ele><time>2024-04-25T07:21:29Z</time></trkpt>
<trkpt lat="47.636681" lon="10.388529"><ele>882.55</ele><time>2024-04-25T07:21:32Z</time></trkpt>
<trkpt lat="47.637147" lon="10.38884"><ele>877.81</ele><time>2024-04-25T07:21:34Z</time></trkpt>
<trkpt lat="47.637676" lon="10.389193"><ele>875.43</ele><time>2024-04-25T07:21:37Z</time></trkpt>
<trkpt lat="47.638167" lon="10.389793"><ele>877.74</ele><time>2024-04-25T07:21:39Z</time></trkpt>
<trkpt lat="47.638339" lon="10.389784"><ele>877.74</ele><time>2024-04-25T07:21:42Z</time></trkpt>
<trkpt lat="47.638673" lon="10.389661"><ele>875.95</ele><time>2024-04-25T07:21:45Z</time></trkpt>
<trkpt lat="47.638736" lon="10.389695"><ele>875.6</ele><time>2024-04-25T07:21:47Z</time></trkpt>
<trkpt lat="47.639248" lon="10.390447"><ele>871.48</ele><time>2024-04-25T07:21:50Z</time></trkpt>
<trkpt lat="47.63971" lon="10.391044"><ele>871.57</ele><time>2024-04-25T07:21:52Z</time></trkpt>
<trkpt lat="47.639889" lon="10.391249"><ele>870.7</ele><time>2024-04-25T07:21:55Z</time></trkpt>
<trkpt lat="47.641286" lon="10.392933"><ele>858.2</ele><time>2024-04-25T07:21:57Z</time></trkpt>
<trkpt lat="47.641559" lon="10.393326"><ele>857.49</ele><time>2024-04-25T07:22:00Z</time></trkpt>
<trkpt lat="47.641784" lon="10.393708"><ele>857.63</ele><time>2024-04-25T07:22:02Z</time></trkpt>
<trkpt lat="47.641997" lon="10.394129"><ele>858.37</ele><time>2024-04-25T07:22:05Z</time></trkpt>
<trkpt lat="47.642123" lon="10.394438"><ele>856.73</ele><time>2024-04-25T07:22:07Z</time></trkpt>
<trkpt lat="47.642238" lon="10.394805"><ele>853.6</ele><time>2024-04-25T07:22:10Z</time></trkpt>
<trkpt lat="47.643022" lon="10.397999"><ele>851.12</ele><time>2024-04-25T07:22:13Z</time></trkpt>
<trkpt lat="47.643186" lon="10.398592"><ele>854.86</ele><time>2024-04-25T07:22:15Z</time></trkpt>
<trkpt lat="47.643452" lon="10.399284"><ele>856.38</ele><time>2024-04-25T07:22:18Z</time></trkpt>
<trkpt lat="47.643704" lon="10.399845"><ele>856.98</ele><time>2024-04-25T07:22:20Z</time></trkpt>
<trkpt lat="47.64389" lon="10.400305"><ele>859.18</ele><time>2024-04-25T07:22:23Z</time></trkpt>
<trkpt lat="47.644047" lon="10.400754"><ele>859.38</ele><time>2024-04-25T07:22:25Z</time></trkpt>
<trkpt lat="47.644312" lon="10.40171"><ele>857.43</ele><time>2024-04-25T07:22:28Z</time></trkpt>
<trkpt lat="47.644491" lon="10.402235"><ele>854.98</ele><time>2024-04-25T07:22:30Z</time></trkpt>
<trkpt lat="47.644664" lon="10.402537"><ele>853.29</ele><time>2024-04-25T07:22:33Z</time></trkpt>
<trkpt lat="47.644783" lon="10.402698"><ele>852.22</ele><time>2024-04-25T07:22:35Z</time></trkpt>
<trkpt lat="47.644947" lon="10.402868"><ele>852.0</ele><time>2024-04-25T07:22:38Z</time></trkpt>
<trkpt lat="47.645278" lon="10.403106"><ele>851.82</ele><time>2024-04-25T07:22:40Z</time></trkpt>
<trkpt lat="47.645443" lon="10.403157"><ele>851.26</ele><time>2024-04-25T07:22:43Z</time></trkpt>
<trkpt lat="47.645787" lon="10.40318"><ele>850.63</ele><time>2024-04-25T07:22:46Z</time></trkpt>
<trkpt lat="47.645953" lon="10.40316"><ele>851.48</ele><time>2024-04-25T07:22:48Z</time></trkpt>
<trkpt lat="47.646878" lon="10.402947"><ele>865.18</ele><time>2024-04-25T07:22:51Z</time></trkpt>
<trkpt lat="47.647092" lon="10.402926"><ele>866.53</ele><time>2024-04-25T07:22:53Z</time></trkpt>
<trkpt lat="47.647454" lon="10.402973"><ele>867.83</ele><time>2024-04-25T07:22:56Z</time></trkpt>
<trkpt lat="47.648584" lon="10.403367"><ele>877.01</ele><time>2024-04-25T07:22:58Z</time></trkpt>
<trkpt lat="47.648751" lon="10.403396"><ele>877.73</ele><time>2024-04-25T07:23:01Z</time></trkpt>
<trkpt lat="47.648981" lon="10.403379"><ele>878.5</ele><time>2024-04-25T07:23:03Z</time></trkpt>
<trkpt lat="47.649126" lon="10.403396"><ele>879.08</ele><time>2024-04-25T07:23:06Z</time></trkpt>
<trkpt lat="47.649299" lon="10.403529"><ele>879.56</ele><time>2024-04-25T07:23:08Z</time></trkpt>
<trkpt lat="47.649361" lon="10.403632"><ele>880.0</ele><time>2024-04-25T07:23:11Z</time></trkpt>
<trkpt lat="47.649421" lon="10.403816"><ele>880.0</ele><time>2024-04-25T07:23:13Z</time></trkpt>
<trkpt lat="47.649558" lon="10.404381"><ele>880.28</ele><time>2024-04-25T07:23:16Z</time></trkpt>
<trkpt lat="47.649669" lon="10.404581"><ele>881.3</ele><time>2024-04-25T07:23:19Z</time></trkpt>
<trkpt lat="47.64977" lon="10.40471"><ele>882.14</ele><time>2024-04-25T07:23:21Z</time></trkpt>
<trkpt lat="47.649888" lon="10.404804"><ele>882.59</ele><time>2024-04-25T07:23:24Z</time></trkpt>
<trkpt lat="47.650075" lon="10.404899"><ele>883.27</ele><time>2024-04-25T07:23:26Z</time></trkpt>
<trkpt lat="47.650257" lon="10.405023"><ele>883.84</ele><time>2024-04-25T07:23:29Z</time></trkpt>
<trkpt lat="47.650383" lon="10.405151"><ele>884.21</ele><time>2024-04-25T07:23:31Z</time></trkpt>
<trkpt lat="47.650848" lon="10.405814"><ele>886.05</ele><time>2024-04-25T07:23:34Z</time></trkpt>
<trkpt lat="47.651015" lon="10.405955"><ele>886.22</ele><time>2024-04-25T07:23:36Z</time></trkpt>
<trkpt lat="47.651165" lon="10.406053"><ele>886.44</ele><time>2024-04-25T07:23:39Z</time></trkpt>
<trkpt lat="47.652113" lon="10.4064"><ele>897.43</ele><time>2024-04-25T07:23:41Z</time></trkpt>
<trkpt lat="47.65237" lon="10.406532"><ele>898.47</ele><time>2024-04-25T07:23:44Z</time></trkpt>
<trkpt lat="47.652769" lon="10.40678"><ele>895.28</ele><time>2024-04-25T07:23:47Z</time></trkpt>
<trkpt lat="47.653014" lon="10.407005"><ele>893.56</ele><time>2024-04-25T07:23:49Z</time></trkpt>
<trkpt lat="47.653339" lon="10.407423"><ele>889.09</ele><time>2024-04-25T07:23:52Z</time></trkpt>
<trkpt lat="47.65352" lon="10.407732"><ele>885.38</ele><time>2024-04-25T07:23:54Z</time></trkpt>
<trkpt lat="47.653666" lon="10.408024"><ele>883.4</ele><time>2024-04-25T07:23:57Z</time></trkpt>
<trkpt lat="47.653839" lon="10.408505"><ele>885.08</ele><time>2024-04-25T07:23:59Z</time></trkpt>
<trkpt lat="47.65399" lon="10.40902"><ele>889.77</ele><time>2024-04-25T07:24:02Z</time></trkpt>
<trkpt lat="47.654548" lon="10.411937"><ele>883.64</ele><time>2024-04-25T07:24:04Z</time></trkpt>
<trkpt lat="47.654643" lon="10.412097"><ele>882.58</ele><time>2024-04-25T07:24:07Z</time></trkpt>
<trkpt lat="47.654748" lon="10.412208"><ele>882.05</ele><time>2024-04-25T07:24:09Z</time></trkpt>
<trkpt lat="47.654851" lon="10.412237"><ele>881.98</ele><time>2024-04-25T07:24:12Z</time></trkpt>
<trkpt lat="47.655133" lon="10.412144"><ele>881.18</ele><time>2024-04-25T07:24:14Z</time></trkpt>
<trkpt lat="47.655187" lon="10.412182"><ele>880.75</ele><time>2024-04-25T07:24:17Z</time></trkpt>
<trkpt lat="47.655375" lon="10.412499"><ele>879.3</ele><time>2024-04-25T07:24:20Z</time></trkpt>
<trkpt lat="47.655548" lon="10.412607"><ele>878.06</ele><time>2024-04-25T07:24:22Z</time></trkpt>
<trkpt lat="47.655676" lon="10.412615"><ele>878.68</ele><time>2024-04-25T07:24:25Z</time></trkpt>
<trkpt lat="47.655797" lon="10.412651"><ele>879.26</ele><time>2024-04-25T07:24:27Z</time></trkpt>
<trkpt lat="47.655943" lon="10.41274"><ele>880.82</ele><time>2024-04-25T07:24:30Z</time></trkpt>
<trkpt lat="47.656079" lon="10.412902"><ele>881.74</ele><time>2024-04-25T07:24:32Z</time></trkpt>
<trkpt lat="47.656146" lon="10.413053"><ele>881.66</ele><time>2024-04-25T07:24:35Z</time></trkpt>
<trkpt lat="47.656224" lon="10.413496"><ele>882.21</ele><time>2024-04-25T07:24:37Z</time></trkpt>
<trkpt lat="47.656334" lon="10.413897"><ele>885.01</ele><time>2024-04-25T07:24:40Z</time></trkpt>
<trkpt lat="47.656443" lon="10.414108"><ele>886.19</ele><time>2024-04-25T07:24:42Z</time></trkpt>
<trkpt lat="47.656757" lon="10.414581"><ele>888.47</ele><time>2024-04-25T07:24:45Z</time></trkpt>
<trkpt lat="47.656866" lon="10.414821"><ele>890.68</ele><time>2024-04-25T07:24:47Z</time></trkpt>
<trkpt lat="47.656945" lon="10.415054"><ele>892.4</ele><time>2024-04-25T07:24:50Z</time></trkpt>
<trkpt lat="47.657009" lon="10.415341"><ele>895.1</ele><time>2024-04-25T07:24:52Z</time></trkpt>
<trkpt lat="47.657038" lon="10.415607"><ele>896.13</ele><time>2024-04-25T07:24:55Z</time></trkpt>
<trkpt lat="47.657046" lon="10.415846"><ele>896.76</ele><time>2024-04-25T07:24:57Z</time></trkpt>
<trkpt lat="47.656845" lon="10.41839"><ele>896.85</ele><time>2024-04-25T07:25:00Z</time></trkpt>
<trkpt lat="47.65684" lon="10.418818"><ele>897.12</ele><time>2024-04-25T07:25:02Z</time></trkpt>
<trkpt lat="47.656857" lon="10.41919"><ele>897.02</ele><time>2024-04-25T07:25:05Z</time></trkpt>
<trkpt lat="47.656922" lon="10.419683"><ele>897.46</ele><time>2024-04-25T07:25:08Z</time></trkpt>
<trkpt lat="47.65705" lon="10.420198"><ele>896.52</ele><time>2024-04-25T07:25:10Z</time></trkpt>
<trkpt lat="47.65738" lon="10.421154"><ele>896.09</ele><time>2024-04-25T07:25:13Z</time></trkpt>
<trkpt lat="47.657626" lon="10.421639"><ele>896.51</ele><time>2024-04-25T07:25:15Z</time></trkpt>
<trkpt lat="47.659267" lon="10.424437"><ele>892.37</ele><time>2024-04-25T07:25:18Z</time></trkpt>
<trkpt lat="47.659498" lon="10.424785"><ele>891.59</ele><time>2024-04-25T07:25:20Z</time></trkpt>
<trkpt lat="47.660516" lon="10.425899"><ele>886.28</ele><time>2024-04-25T07:25:23Z</time></trkpt>
<trkpt lat="47.660264" lon="10.426434"><ele>888.06</ele><time>2024-04-25T07:25:28Z</time></trkpt>
<trkpt lat="47.65919" lon="10.429622"><ele>872.84</ele><time>2024-04-25T07:25:32Z</time></trkpt>
<trkpt lat="47.658871" lon="10.430626"><ele>865.62</ele><time>2024-04-25T07:25:37Z</time></trkpt>
<trkpt lat="47.657941" lon="10.433704"><ele>853.86</ele><time>2024-04-25T07:25:42Z</time></trkpt>
<trkpt lat="47.657741" lon="10.434518"><ele>853.5</ele><time>2024-04-25T07:25:47Z</time></trkpt>
<trkpt lat="47.656943" lon="10.437989"><ele>853.01</ele><time>2024-04-25T07:25:52Z</time></trkpt>
<trkpt lat="47.656261" lon="10.440812"><ele>866.24</ele><time>2024-04-25T07:25:56Z</time></trkpt>
<trkpt lat="47.656209" lon="10.441299"><ele>869.07</ele><time>2024-04-25T07:26:01Z</time></trkpt>
<trkpt lat="47.656187" lon="10.441738"><ele>869.26</ele><time>2024-04-25T07:26:06Z</time></trkpt>
<trkpt lat="47.656233" lon="10.442521"><ele>875.77</ele><time>2024-04-25T07:26:11Z</time></trkpt>
<trkpt lat="47.656396" lon="10.444062"><ele>886.43</ele><time>2024-04-25T07:26:16Z</time></trkpt>
<trkpt lat="47.656419" lon="10.444467"><ele>884.24</ele><time>2024-04-25T07:26:20Z</time></trkpt>
<trkpt lat="47.656408" lon="10.444973"><ele>883.2</ele><time>2024-04-25T07:26:25Z</time></trkpt>
<trkpt lat="47.656375" lon="10.445378"><ele>879.7</ele><time>2024-04-25T07:26:30Z</time></trkpt>
<trkpt lat="47.656286" lon="10.446011"><ele>874.05</ele><time>2024-04-25T07:26:35Z</time></trkpt>
<trkpt lat="47.656084" lon="10.446813"><ele>871.52</ele><time>2024-04-25T07:26:40Z</time></trkpt>
<trkpt lat="47.655662" lon="10.448154"><ele>871.84</ele><time>2024-04-25T07:26:44Z</time></trkpt>
<trkpt lat="47.655559" lon="10.448723"><ele>873.98</ele><time>2024-04-25T07:26:49Z</time></trkpt>
<trkpt lat="47.655493" lon="10.449342"><ele>875.08</ele><time>2024-04-25T07:26:54Z</time></trkpt>
<trkpt lat="47.655469" lon="10.449884"><ele>874.93</ele><time>2024-04-25T07:26:59Z</time></trkpt>
<trkpt lat="47.655867" lon="10.454956"><ele>873.04</ele><time>2024-04-25T07:27:04Z</time></trkpt>
<trkpt lat="47.655886" lon="10.455731"><ele>869.99</ele><time>2024-04-25T07:27:08Z</time></trkpt>
<trkpt lat="47.655852" lon="10.456283"><ele>871.45</ele><time>2024-04-25T07:27:13Z</time></trkpt>
<trkpt lat="47.655741" lon="10.456307"><ele>872.14</ele><time>2024-04-25T07:27:15Z</time></trkpt>
<trkpt lat="47.655638" lon="10.45642"><ele>872.7</ele><time>2024-04-25T07:27:18Z</time></trkpt>
<trkpt lat="47.655604" lon="10.456522"><ele>872.83</ele><time>2024-04-25T07:27:20Z</time></trkpt>
<trkpt lat="47.655591" lon="10.456637"><ele>872.87</ele><time>2024-04-25T07:27:22Z</time></trkpt>
<trkpt lat="47.655606" lon="10.456763"><ele>872.82</ele><time>2024-04-25T07:27:24Z</time></trkpt>
<trkpt lat="47.655684" lon="10.456919"><ele>872.54</ele><time>2024-04-25T07:27:26Z</time></trkpt>
<trkpt lat="47.655768" lon="10.456981"><ele>872.13</ele><time>2024-04-25T07:27:28Z</time></trkpt>
<trkpt lat="47.655877" lon="10.456986"><ele>871.69</ele><time>2024-04-25T07:27:31Z</time></trkpt>
<trkpt lat="47.655985" lon="10.45691"><ele>871.46</ele><time>2024-04-25T07:27:33Z</time></trkpt>
<trkpt lat="47.656043" lon="10.456803"><ele>871.24</ele><time>2024-04-25T07:27:35Z</time></trkpt>
<trkpt lat="47.656071" lon="10.45666"><ele>871.12</ele><time>2024-04-25T07:27:37Z</time></trkpt>
<trkpt lat="47.656376" lon="10.456787"><ele>869.09</ele><time>2024-04-25T07:27:39Z</time></trkpt>
<trkpt lat="47.656522" lon="10.456869"><ele>867.91</ele><time>2024-04-25T07:27:41Z</time></trkpt>
<trkpt lat="47.656909" lon="10.457185"><ele>867.76</ele><time>2024-04-25T07:27:44Z</time></trkpt>
<trkpt lat="47.657247" lon="10.457405"><ele>866.51</ele><time>2024-04-25T07:27:46Z</time></trkpt>
<trkpt lat="47.657599" lon="10.457508"><ele>865.03</ele><time>2024-04-25T07:27:48Z</time></trkpt>
<trkpt lat="47.658515" lon="10.457499"><ele>863.0</ele><time>2024-04-25T07:27:50Z</time></trkpt>
<trkpt lat="47.658831" lon="10.457532"><ele>862.18</ele><time>2024-04-25T07:27:52Z</time></trkpt>
<trkpt lat="47.659299" lon="10.457675"><ele>862.47</ele><time>2024-04-25T07:27:55Z</time></trkpt>
<trkpt lat="47.659628" lon="10.457911"><ele>864.49</ele><time>2024-04-25T07:27:57Z</time></trkpt>
<trkpt lat="47.660075" lon="10.4584"><ele>865.74</ele><time>2024-04-25T07:27:59Z</time></trkpt>
<trkpt lat="47.660288" lon="10.458761"><ele>867.05</ele><time>2024-04-25T07:28:01Z</time></trkpt>
<trkpt lat="47.660925" lon="10.460393"><ele>868.66</ele><time>2024-04-25T07:28:03Z</time></trkpt>
<trkpt lat="47.661269" lon="10.461015"><ele>868.91</ele><time>2024-04-25T07:28:05Z</time></trkpt>
<trkpt lat="47.661474" lon="10.461297"><ele>869.71</ele><time>2024-04-25T07:28:08Z</time></trkpt>
<trkpt lat="47.661816" lon="10.461675"><ele>873.14</ele><time>2024-04-25T07:28:10Z</time></trkpt>
<trkpt lat="47.662365" lon="10.462118"><ele>878.71</ele><time>2024-04-25T07:28:12Z</time></trkpt>
<trkpt lat="47.662833" lon="10.462528"><ele>882.05</ele><time>2024-04-25T07:28:14Z</time></trkpt>
<trkpt lat="47.663078" lon="10.462781"><ele>885.15</ele><time>2024-04-25T07:28:16Z</time></trkpt>
<trkpt lat="47.66348" lon="10.463327"><ele>886.07</ele><time>2024-04-25T07:28:19Z</time></trkpt>
<trkpt lat="47.663669" lon="10.463676"><ele>887.05</ele><time>2024-04-25T07:28:21Z</time></trkpt>
<trkpt lat="47.663827" lon="10.464039"><ele>889.59</ele><time>2024-04-25T07:28:23Z</time></trkpt>
<trkpt lat="47.664009" lon="10.464563"><ele>890.36</ele><time>2024-04-25T07:28:25Z</time></trkpt>
<trkpt lat="47.664375" lon="10.465853"><ele>888.5</ele><time>2024-04-25T07:28:27Z</time></trkpt>
<trkpt lat="47.664648" lon="10.466586"><ele>889.48</ele><time>2024-04-25T07:28:29Z</time></trkpt>
<trkpt lat="47.665056" lon="10.467339"><ele>890.45</ele><time>2024-04-25T07:28:32Z</time></trkpt>
<trkpt lat="47.665441" lon="10.467919"><ele>890.29</ele><time>2024-04-25T07:28:34Z</time></trkpt>
<trkpt lat="47.665791" lon="10.46832"><ele>889.05</ele><time>2024-04-25T07:28:36Z</time></trkpt>
<trkpt lat="47.666214" lon="10.468732"><ele>888.94</ele><time>2024-04-25T07:28:38Z</time></trkpt>
<trkpt lat="47.666114" lon="10.469155"><ele>887.05</ele><time>2024-04-25T07:28:43Z</time></trkpt>
<trkpt lat="47.66603" lon="10.469668"><ele>885.85</ele><time>2024-04-25T07:28:48Z</time></trkpt>
<trkpt lat="47.665971" lon="10.470194"><ele>884.99</ele><time>2024-04-25T07:28:52Z</time></trkpt>
<trkpt lat="47.66594" lon="10.470708"><ele>885.93</ele><time>2024-04-25T07:28:57Z</time></trkpt>
<trkpt lat="47.665959" lon="10.472325"><ele>892.71</ele><time>2024-04-25T07:29:02Z</time></trkpt>
<trkpt lat="47.666021" lon="10.472765"><ele>895.95</ele><time>2024-04-25T07:29:06Z</time></trkpt>
<trkpt lat="47.666041" lon="10.473178"><ele>896.49</ele><time>2024-04-25T07:29:11Z</time></trkpt>
<trkpt lat="47.6659" lon="10.474541"><ele>891.0</ele><time>2024-04-25T07:29:16Z</time></trkpt>
<trkpt lat="47.665655" lon="10.478408"><ele>881.82</ele><time>2024-04-25T07:29:20Z</time></trkpt>
<trkpt lat="47.665632" lon="10.478636"><ele>883.47</ele><time>2024-04-25T07:29:25Z</time></trkpt>
<trkpt lat="47.665592" lon="10.478856"><ele>883.85</ele><time>2024-04-25T07:29:29Z</time></trkpt>
<trkpt lat="47.665537" lon="10.479021"><ele>883.99</ele><time>2024-04-25T07:29:34Z</time></trkpt>
<trkpt lat="47.665419" lon="10.479185"><ele>884.46</ele><time>2024-04-25T07:29:39Z</time></trkpt>
<trkpt lat="47.665301" lon="10.479297"><ele>884.88</ele><time>2024-04-25T07:29:43Z</time></trkpt>
<trkpt lat="47.665138" lon="10.479312"><ele>885.02</ele><time>2024-04-25T07:29:48Z</time></trkpt>
<trkpt lat="47.664103" lon="10.479191"><ele>878.57</ele><time>2024-04-25T07:29:53Z</time></trkpt>
<trkpt lat="47.66384" lon="10.479254"><ele>876.37</ele><time>2024-04-25T07:29:57Z</time></trkpt>
<trkpt lat="47.662994" lon="10.479735"><ele>866.17</ele><time>2024-04-25T07:30:02Z</time></trkpt>
<trkpt lat="47.662804" lon="10.479892"><ele>864.55</ele><time>2024-04-25T07:30:07Z</time></trkpt>
<trkpt lat="47.662622" lon="10.48014"><ele>863.54</ele><time>2024-04-25T07:30:11Z</time></trkpt>
<trkpt lat="47.66239" lon="10.480501"><ele>862.22</ele><time>2024-04-25T07:30:16Z</time></trkpt>
<trkpt lat="47.662225" lon="10.480819"><ele>860.04</ele><time>2024-04-25T07:30:21Z</time></trkpt>
<trkpt lat="47.662121" lon="10.481095"><ele>859.04</ele><time>2024-04-25T07:30:25Z</time></trkpt>
<trkpt lat="47.662041" lon="10.48139"><ele>860.02</ele><time>2024-04-25T07:30:30Z</time></trkpt>
<trkpt lat="47.661987" lon="10.481668"><ele>862.85</ele><time>2024-04-25T07:30:35Z</time></trkpt>
<trkpt lat="47.661972" lon="10.481981"><ele>864.13</ele><time>2024-04-25T07:30:39Z</time></trkpt>
<trkpt lat="47.662032" lon="10.482982"><ele>867.3</ele><time>2024-04-25T07:30:44Z</time></trkpt>
<trkpt lat="47.662013" lon="10.483123"><ele>868.44</ele><time>2024-04-25T07:30:49Z</time></trkpt>
<trkpt lat="47.661976" lon="10.48325"><ele>869.87</ele><time>2024-04-25T07:30:53Z</time></trkpt>
<trkpt lat="47.661868" lon="10.48346"><ele>871.46</ele><time>2024-04-25T07:30:58Z</time></trkpt>
<trkpt lat="47.661787" lon="10.48356"><ele>871.82</ele><time>2024-04-25T07:31:03Z</time></trkpt>
<trkpt lat="47.66165" lon="10.483643"><ele>871.94</ele><time>2024-04-25T07:31:07Z</time></trkpt>
<trkpt lat="47.661072" lon="10.483784"><ele>871.63</ele><time>2024-04-25T07:31:12Z</time></trkpt>
<trkpt lat="47.66093" lon="10.483846"><ele>872.01</ele><time>2024-04-25T07:31:17Z</time></trkpt>
<trkpt lat="47.660782" lon="10.483946"><ele>872.2</ele><time>2024-04-25T07:31:21Z</time></trkpt>
<trkpt lat="47.660667" lon="10.484056"><ele>872.95</ele><time>2024-04-25T07:31:26Z</time></trkpt>
<trkpt lat="47.659783" lon="10.485471"><ele>870.0</ele><time>2024-04-25T07:31:31Z</time></trkpt>
<trkpt lat="47.659651" lon="10.485656"><ele>871.15</ele><time>2024-04-25T07:31:35Z</time></trkpt>
<trkpt lat="47.659518" lon="10.485772"><ele>872.46</ele><time>2024-04-25T07:31:40Z</time></trkpt>
<trkpt lat="47.659373" lon="10.485848"><ele>873.39</ele><time>2024-04-25T07:31:45Z</time></trkpt>
<trkpt lat="47.659047" lon="10.485923"><ele>873.89</ele><time>2024-04-25T07:31:49Z</time></trkpt>
<trkpt lat="47.65844" lon="10.485972"><ele>870.07</ele><time>2024-04-25T07:31:54Z</time></trkpt>
<trkpt lat="47.658239" lon="10.486007"><ele>869.62</ele><time>2024-04-25T07:31:59Z</time></trkpt>
<trkpt lat="47.657955" lon="10.486123"><ele>870.11</ele><time>2024-04-25T07:32:03Z</time></trkpt>
<trkpt lat="47.656623" lon="10.487204"><ele>876.64</ele><time>2024-04-25T07:32:08Z</time></trkpt>
<trkpt lat="47.656409" lon="10.487554"><ele>880.57</ele><time>2024-04-25T07:32:13Z</time></trkpt>
<trkpt lat="47.655965" lon="10.489418"><ele>889.48</ele><time>2024-04-25T07:32:17Z</time></trkpt>
<trkpt lat="47.655858" lon="10.489633"><ele>890.59</ele><time>2024-04-25T07:32:22Z</time></trkpt>
<trkpt lat="47.655748" lon="10.48977"><ele>892.44</ele><time>2024-04-25T07:32:27Z</time></trkpt>
<trkpt lat="47.655619" lon="10.489837"><ele>894.56</ele><time>2024-04-25T07:32:31Z</time></trkpt>
<trkpt lat="47.65505" lon="10.49"><ele>895.53</ele><time>2024-04-25T07:32:36Z</time></trkpt>
<trkpt lat="47.654879" lon="10.490132"><ele>895.99</ele><time>2024-04-25T07:32:41Z</time></trkpt>
<trkpt lat="47.654478" lon="10.490541"><ele>895.31</ele><time>2024-04-25T07:32:45Z</time></trkpt>
<trkpt lat="47.654398" lon="10.49059"><ele>894.09</ele><time>2024-04-25T07:32:50Z</time></trkpt>
<trkpt lat="47.654327" lon="10.490598"><ele>892.86</ele><time>2024-04-25T07:32:55Z</time></trkpt>
<trkpt lat="47.654078" lon="10.490559"><ele>890.01</ele><time>2024-04-25T07:32:59Z</time></trkpt>
<trkpt lat="47.653996" lon="10.490581"><ele>890.09</ele><time>2024-04-25T07:33:04Z</time></trkpt>
<trkpt lat="47.653613" lon="10.490927"><ele>891.99</ele><time>2024-04-25T07:33:09Z</time></trkpt>
<trkpt lat="47.653442" lon="10.490945"><ele>890.42</ele><time>2024-04-25T07:33:13Z</time></trkpt>
<trkpt lat="47.653324" lon="10.490888"><ele>889.09</ele><time>2024-04-25T07:33:18Z</time></trkpt>
<trkpt lat="47.653093" lon="10.490898"><ele>886.44</ele><time>2024-04-25T07:33:23Z</time></trkpt>
<trkpt lat="47.652705" lon="10.491002"><ele>884.08</ele><time>2024-04-25T07:33:27Z</time></trkpt>
<trkpt lat="47.652575" lon="10.491002"><ele>883.14</ele><time>2024-04-25T07:33:32Z</time></trkpt>
<trkpt lat="47.65247" lon="10.490944"><ele>882.24</ele><time>2024-04-25T07:33:37Z</time></trkpt>
<trkpt lat="47.651709" lon="10.49032"><ele>878.43</ele><time>2024-04-25T07:33:41Z</time></trkpt>
<trkpt lat="47.651224" lon="10.489846"><ele>875.36</ele><time>2024-04-25T07:33:46Z</time></trkpt>
<trkpt lat="47.65076" lon="10.489332"><ele>876.3</ele><time>2024-04-25T07:33:51Z</time></trkpt>
<trkpt lat="47.650609" lon="10.489213"><ele>876.16</ele><time>2024-04-25T07:33:55Z</time></trkpt>
<trkpt lat="47.650348" lon="10.489095"><ele>873.95</ele><time>2024-04-25T07:34:00Z</time></trkpt>
<trkpt lat="47.64979" lon="10.488847"><ele>870.28</ele><time>2024-04-25T07:34:11Z</time></trkpt>
<trkpt lat="47.648425" lon="10.488524"><ele>888.34</ele><time>2024-04-25T07:34:23Z</time></trkpt>
<trkpt lat="47.64811" lon="10.487923"><ele>890.93</ele><time>2024-04-25T07:34:27Z</time></trkpt>
<trkpt lat="47.647903" lon="10.487642"><ele>891.11</ele><time>2024-04-25T07:34:31Z</time></trkpt>
<trkpt lat="47.647859" lon="10.487438"><ele>891.12</ele><time>2024-04-25T07:34:35Z</time></trkpt>
<trkpt lat="47.64776" lon="10.486728"><ele>894.64</ele><time>2024-04-25T07:34:39Z</time></trkpt>
<trkpt lat="47.647721" lon="10.485799"><ele>894.01</ele><time>2024-04-25T07:34:43Z</time></trkpt>
<trkpt lat="47.6477" lon="10.485659"><ele>893.37</ele><time>2024-04-25T07:34:47Z</time></trkpt>
<trkpt lat="47.647573" lon="10.485112"><ele>897.33</ele><time>2024-04-25T07:34:51Z</time></trkpt>
<trkpt lat="47.647377" lon="10.484605"><ele>901.16</ele><time>2024-04-25T07:34:55Z</time></trkpt>
<trkpt lat="47.64721" lon="10.484316"><ele>905.31</ele><time>2024-04-25T07:35:00Z</time></trkpt>
<trkpt lat="47.647046" lon="10.484135"><ele>906.46</ele><time>2024-04-25T07:35:04Z</time></trkpt>
<trkpt lat="47.646701" lon="10.483854"><ele>909.76</ele><time>2024-04-25T07:35:08Z</time></trkpt>
<trkpt lat="47.646479" lon="10.483704"><ele>911.57</ele><time>2024-04-25T07:35:12Z</time></trkpt>
<trkpt lat="47.646284" lon="10.483527"><ele>911.32</ele><time>2024-04-25T07:35:16Z</time></trkpt>
<trkpt lat="47.646167" lon="10.483369"><ele>910.33</ele><time>2024-04-25T07:35:20Z</time></trkpt>
<trkpt lat="47.646039" lon="10.483142"><ele>908.79</ele><time>2024-04-25T07:35:24Z</time></trkpt>
<trkpt lat="47.645627" lon="10.482339"><ele>906.85</ele><time>2024-04-25T07:35:28Z</time></trkpt>
<trkpt lat="47.645299" lon="10.481759"><ele>905.36</ele><time>2024-04-25T07:35:32Z</time></trkpt>
<trkpt lat="47.645004" lon="10.48135"><ele>901.86</ele><time>2024-04-25T07:35:36Z</time></trkpt>
<trkpt lat="47.644572" lon="10.480856"><ele>896.13</ele><time>2024-04-25T07:35:41Z</time></trkpt>
<trkpt lat="47.643936" lon="10.481106"><ele>899.59</ele><time>2024-04-25T07:35:45Z</time></trkpt>
<trkpt lat="47.643666" lon="10.481276"><ele>903.6</ele><time>2024-04-25T07:35:49Z</time></trkpt>
<trkpt lat="47.643314" lon="10.481646"><ele>905.92</ele><time>2024-04-25T07:35:53Z</time></trkpt>
<trkpt lat="47.643174" lon="10.481849"><ele>907.03</ele><time>2024-04-25T07:35:57Z</time></trkpt>
<trkpt lat="47.642978" lon="10.482277"><ele>907.92</ele><time>2024-04-25T07:36:01Z</time></trkpt>
<trkpt lat="47.642846" lon="10.48261"><ele>908.54</ele><time>2024-04-25T07:36:05Z</time></trkpt>
<trkpt lat="47.64262" lon="10.482992"><ele>910.34</ele><time>2024-04-25T07:36:10Z</time></trkpt>
<trkpt lat="47.642233" lon="10.483523"><ele>919.65</ele><time>2024-04-25T07:36:14Z</time></trkpt>
<trkpt lat="47.642172" lon="10.483574"><ele>920.8</ele><time>2024-04-25T07:36:18Z</time></trkpt>
<trkpt lat="47.642102" lon="10.483599"><ele>921.67</ele><time>2024-04-25T07:36:22Z</time></trkpt>
<trkpt lat="47.64202" lon="10.483596"><ele>922.2</ele><time>2024-04-25T07:36:26Z</time></trkpt>
<trkpt lat="47.641264" lon="10.483503"><ele>921.06</ele><time>2024-04-25T07:36:30Z</time></trkpt>
<trkpt lat="47.640795" lon="10.483482"><ele>921.0</ele><time>2024-04-25T07:36:34Z</time></trkpt>
<trkpt lat="47.640743" lon="10.483722"><ele>922.07</ele><time>2024-04-25T07:36:39Z</time></trkpt>
<trkpt lat="47.640658" lon="10.483851"><ele>922.23</ele><time>2024-04-25T07:36:43Z</time></trkpt>
<trkpt lat="47.640318" lon="10.484219"><ele>924.38</ele><time>2024-04-25T07:36:48Z</time></trkpt>
<trkpt lat="47.640267" lon="10.484143"><ele>923.83</ele><time>2024-04-25T07:36:55Z</time></trkpt>
<trkpt lat="47.640022" lon="10.484051"><ele>923.55</ele><time>2024-04-25T07:37:02Z</time></trkpt>
<trkpt lat="47.639012" lon="10.484224"><ele>921.54</ele><time>2024-04-25T07:37:09Z</time></trkpt>
<trkpt lat="47.63884" lon="10.484103"><ele>920.4</ele><time>2024-04-25T07:37:16Z</time></trkpt>
<trkpt lat="47.638367" lon="10.483604"><ele>917.85</ele><time>2024-04-25T07:37:23Z</time></trkpt>
<trkpt lat="47.638217" lon="10.48352"><ele>917.53</ele><time>2024-04-25T07:37:30Z</time></trkpt>
<trkpt lat="47.637495" lon="10.48326"><ele>914.72</ele><time>2024-04-25T07:37:37Z</time></trkpt>
<trkpt lat="47.636661" lon="10.482905"><ele>909.48</ele><time>2024-04-25T07:37:44Z</time></trkpt>
<trkpt lat="47.635357" lon="10.482111"><ele>896.57</ele><time>2024-04-25T07:37:51Z</time></trkpt>
<trkpt lat="47.634983" lon="10.481996"><ele>894.0</ele><time>2024-04-25T07:37:58Z</time></trkpt>
<trkpt lat="47.634742" lon="10.482038"><ele>894.0</ele><time>2024-04-25T07:38:05Z</time></trkpt>
<trkpt lat="47.634624" lon="10.4818"><ele>893.83</ele><time>2024-04-25T07:38:10Z</time></trkpt>
<trkpt lat="47.633867" lon="10.480638"><ele>895.55</ele><time>2024-04-25T07:38:15Z</time></trkpt>
<trkpt lat="47.633753" lon="10.48038"><ele>895.33</ele><time>2024-04-25T07:38:20Z</time></trkpt>
<trkpt lat="47.633639" lon="10.480069"><ele>895.17</ele><time>2024-04-25T07:38:24Z</time></trkpt>
<trkpt lat="47.633305" lon="10.478626"><ele>892.59</ele><time>2024-04-25T07:38:29Z</time></trkpt>
<trkpt lat="47.633234" lon="10.478521"><ele>892.14</ele><time>2024-04-25T07:38:34Z</time></trkpt>
<trkpt lat="47.63315" lon="10.478464"><ele>891.19</ele><time>2024-04-25T07:38:39Z</time></trkpt>
<trkpt lat="47.633009" lon="10.479026"><ele>888.5</ele><time>2024-04-25T07:38:43Z</time></trkpt>
<trkpt lat="47.632788" lon="10.479753"><ele>885.0</ele><time>2024-04-25T07:38:46Z</time></trkpt>
<trkpt lat="47.632695" lon="10.479997"><ele>885.22</ele><time>2024-04-25T07:38:50Z</time></trkpt>
<trkpt lat="47.632216" lon="10.481093"><ele>886.26</ele><time>2024-04-25T07:38:53Z</time></trkpt>
<trkpt lat="47.632009" lon="10.481474"><ele>886.63</ele><time>2024-04-25T07:38:57Z</time></trkpt>
<trkpt lat="47.631765" lon="10.481842"><ele>887.01</ele><time>2024-04-25T07:39:00Z</time></trkpt>
<trkpt lat="47.631187" lon="10.482541"><ele>887.79</ele><time>2024-04-25T07:39:04Z</time></trkpt>
<trkpt lat="47.63087" lon="10.482882"><ele>888.19</ele><time>2024-04-25T07:39:07Z</time></trkpt>
<trkpt lat="47.630505" lon="10.483231"><ele>891.45</ele><time>2024-04-25T07:39:11Z</time></trkpt>
<trkpt lat="47.629164" lon="10.484418"><ele>893.01</ele><time>2024-04-25T07:39:14Z</time></trkpt>
<trkpt lat="47.627833" lon="10.485676"><ele>893.71</ele><time>2024-04-25T07:39:18Z</time></trkpt>
<trkpt lat="47.627214" lon="10.486318"><ele>896.23</ele><time>2024-04-25T07:39:21Z</time></trkpt>
<trkpt lat="47.625002" lon="10.48899"><ele>900.64</ele><time>2024-04-25T07:39:25Z</time></trkpt>
<trkpt lat="47.624746" lon="10.489362"><ele>900.97</ele><time>2024-04-25T07:39:28Z</time></trkpt>
<trkpt lat="47.624593" lon="10.48964"><ele>902.64</ele><time>2024-04-25T07:39:32Z</time></trkpt>
<trkpt lat="47.62443" lon="10.489957"><ele>903.94</ele><time>2024-04-25T07:39:35Z</time></trkpt>
<trkpt lat="47.624211" lon="10.49048"><ele>902.16</ele><time>2024-04-25T07:39:39Z</time></trkpt>
<trkpt lat="47.623529" lon="10.49184"><ele>899.59</ele><time>2024-04-25T07:39:42Z</time></trkpt>
<trkpt lat="47.623351" lon="10.492325"><ele>901.35</ele><time>2024-04-25T07:39:46Z</time></trkpt>
<trkpt lat="47.623245" lon="10.492719"><ele>902.32</ele><time>2024-04-25T07:39:49Z</time></trkpt>
<trkpt lat="47.623171" lon="10.493102"><ele>902.59</ele><time>2024-04-25T07:39:53Z</time></trkpt>
<trkpt lat="47.623124" lon="10.493473"><ele>902.25</ele><time>2024-04-25T07:39:56Z</time></trkpt>
<trkpt lat="47.623114" lon="10.493698"><ele>901.16</ele><time>2024-04-25T07:40:00Z</time></trkpt>
<trkpt lat="47.623113" lon="10.494063"><ele>898.04</ele><time>2024-04-25T07:40:03Z</time></trkpt>
<trkpt lat="47.623139" lon="10.494677"><ele>895.16</ele><time>2024-04-25T07:40:07Z</time></trkpt>
<trkpt lat="47.62322" lon="10.495191"><ele>893.75</ele><time>2024-04-25T07:40:10Z</time></trkpt>
<trkpt lat="47.623397" lon="10.495849"><ele>891.3</ele><time>2024-04-25T07:40:14Z</time></trkpt>
<trkpt lat="47.62373" lon="10.496941"><ele>884.59</ele><time>2024-04-25T07:40:17Z</time></trkpt>
<trkpt lat="47.624732" lon="10.498903"><ele>883.95</ele><time>2024-04-25T07:40:21Z</time></trkpt>
<trkpt lat="47.624786" lon="10.499047"><ele>883.3</ele><time>2024-04-25T07:40:24Z</time></trkpt>
<trkpt lat="47.624803" lon="10.499155"><ele>882.76</ele><time>2024-04-25T07:40:28Z</time></trkpt>
<trkpt lat="47.624791" lon="10.499307"><ele>881.49</ele><time>2024-04-25T07:40:31Z</time></trkpt>
<trkpt lat="47.624761" lon="10.499396"><ele>880.98</ele><time>2024-04-25T07:40:35Z</time></trkpt>
<trkpt lat="47.624664" lon="10.499519"><ele>879.89</ele><time>2024-04-25T07:40:38Z</time></trkpt>
<trkpt lat="47.624514" lon="10.499553"><ele>878.91</ele><time>2024-04-25T07:40:42Z</time></trkpt>
<trkpt lat="47.624412" lon="10.499495"><ele>878.26</ele><time>2024-04-25T07:40:45Z</time></trkpt>
<trkpt lat="47.62434" lon="10.499401"><ele>877.27</ele><time>2024-04-25T07:40:49Z</time></trkpt>
<trkpt lat="47.624303" lon="10.499265"><ele>877.1</ele><time>2024-04-25T07:40:52Z</time></trkpt>
<trkpt lat="47.624225" lon="10.498757"><ele>878.52</ele><time>2024-04-25T07:40:56Z</time></trkpt>
<trkpt lat="47.62412" lon="10.498492"><ele>878.19</ele><time>2024-04-25T07:40:59Z</time></trkpt>
<trkpt lat="47.623754" lon="10.498083"><ele>875.81</ele><time>2024-04-25T07:41:03Z</time></trkpt>
<trkpt lat="47.623682" lon="10.497979"><ele>875.64</ele><time>2024-04-25T07:41:06Z</time></trkpt>
<trkpt lat="47.623437" lon="10.497529"><ele>875.91</ele><time>2024-04-25T07:41:10Z</time></trkpt>
<trkpt lat="47.623372" lon="10.497452"><ele>875.62</ele><time>2024-04-25T07:41:13Z</time></trkpt>
<trkpt lat="47.623297" lon="10.497421"><ele>874.93</ele><time>2024-04-25T07:41:17Z</time></trkpt>
<trkpt lat="47.623221" lon="10.497427"><ele>874.15</ele><time>2024-04-25T07:41:20Z</time></trkpt>
<trkpt lat="47.623141" lon="10.497477"><ele>873.06</ele><time>2024-04-25T07:41:24Z</time></trkpt>
<trkpt lat="47.622879" lon="10.497737"><ele>871.15</ele><time>2024-04-25T07:41:27Z</time></trkpt>
<trkpt lat="47.622468" lon="10.498206"><ele>871.54</ele><time>2024-04-25T07:41:31Z</time></trkpt>
<trkpt lat="47.622395" lon="10.498343"><ele>872.0</ele><time>2024-04-25T07:41:34Z</time></trkpt>
<trkpt lat="47.622247" lon="10.498812"><ele>872.66</ele><time>2024-04-25T07:41:38Z</time></trkpt>
<trkpt lat="47.622123" lon="10.499179"><ele>873.71</ele><time>2024-04-25T07:41:41Z</time></trkpt>
<trkpt lat="47.622048" lon="10.499352"><ele>874.26</ele><time>2024-04-25T07:41:45Z</time></trkpt>
<trkpt lat="47.622203" lon="10.499499"><ele>872.93</ele><time>2024-04-25T07:41:49Z</time></trkpt>
<trkpt lat="47.622886" lon="10.499931"><ele>867.0</ele><time>2024-04-25T07:41:54Z</time></trkpt>
<trkpt lat="47.623399" lon="10.500347"><ele>865.34</ele><time>2024-04-25T07:41:58Z</time></trkpt>
<trkpt lat="47.623527" lon="10.500482"><ele>864.38</ele><time>2024-04-25T07:42:03Z</time></trkpt>
<trkpt lat="47.623853" lon="10.501011"><ele>861.49</ele><time>2024-04-25T07:42:07Z</time></trkpt>
<trkpt lat="47.624049" lon="10.501376"><ele>858.89</ele><time>2024-04-25T07:42:12Z</time></trkpt>
<trkpt lat="47.624174" lon="10.501543"><ele>858.55</ele><time>2024-04-25T07:42:16Z</time></trkpt>
<trkpt lat="47.624803" lon="10.502157"><ele>858.73</ele><time>2024-04-25T07:42:21Z</time></trkpt>
<trkpt lat="47.624961" lon="10.502398"><ele>858.68</ele><time>2024-04-25T07:42:25Z</time></trkpt>
<trkpt lat="47.625019" lon="10.502543"><ele>859.02</ele><time>2024-04-25T07:42:30Z</time></trkpt>
<trkpt lat="47.625046" lon="10.502715"><ele>859.44</ele><time>2024-04-25T07:42:34Z</time></trkpt>
<trkpt lat="47.625032" lon="10.503279"><ele>862.87</ele><time>2024-04-25T07:42:38Z</time></trkpt>
<trkpt lat="47.625065" lon="10.503425"><ele>863.89</ele><time>2024-04-25T07:42:43Z</time></trkpt>
<trkpt lat="47.625125" lon="10.503514"><ele>864.75</ele><time>2024-04-25T07:42:47Z</time></trkpt>
<trkpt lat="47.62625" lon="10.504524"><ele>880.3</ele><time>2024-04-25T07:42:52Z</time></trkpt>
<trkpt lat="47.626398" lon="10.504718"><ele>881.76</ele><time>2024-04-25T07:42:56Z</time></trkpt>
<trkpt lat="47.6265" lon="10.504922"><ele>886.14</ele><time>2024-04-25T07:43:01Z</time></trkpt>
<trkpt lat="47.626548" lon="10.505127"><ele>890.2</ele><time>2024-04-25T07:43:05Z</time></trkpt>
<trkpt lat="47.626563" lon="10.505334"><ele>893.39</ele><time>2024-04-25T07:43:10Z</time></trkpt>
<trkpt lat="47.626542" lon="10.505552"><ele>895.76</ele><time>2024-04-25T07:43:14Z</time></trkpt>
<trkpt lat="47.626398" lon="10.506227"><ele>897.95</ele><time>2024-04-25T07:43:19Z</time></trkpt>
<trkpt lat="47.626326" lon="10.50673"><ele>898.54</ele><time>2024-04-25T07:43:23Z</time></trkpt>
<trkpt lat="47.626337" lon="10.507277"><ele>897.81</ele><time>2024-04-25T07:43:28Z</time></trkpt>
<trkpt lat="47.626387" lon="10.507581"><ele>897.7</ele><time>2024-04-25T07:43:32Z</time></trkpt>
<trkpt lat="47.626489" lon="10.507923"><ele>897.72</ele><time>2024-04-25T07:43:37Z</time></trkpt>
<trkpt lat="47.626588" lon="10.508135"><ele>898.6</ele><time>2024-04-25T07:43:41Z</time></trkpt>
<trkpt lat="47.627848" lon="10.509995"><ele>904.25</ele><time>2024-04-25T07:43:46Z</time></trkpt>
<trkpt lat="47.627951" lon="10.510179"><ele>905.27</ele><time>2024-04-25T07:43:50Z</time></trkpt>
<trkpt lat="47.628138" lon="10.510604"><ele>907.12</ele><time>2024-04-25T07:43:54Z</time></trkpt>
<trkpt lat="47.628333" lon="10.511243"><ele>905.06</ele><time>2024-04-25T07:43:59Z</time></trkpt>
<trkpt lat="47.628254" lon="10.511318"><ele>905.3</ele><time>2024-04-25T07:44:01Z</time></trkpt>
<trkpt lat="47.62823" lon="10.511386"><ele>905.13</ele><time>2024-04-25T07:44:04Z</time></trkpt>
<trkpt lat="47.628225" lon="10.511463"><ele>905.06</ele><time>2024-04-25T07:44:06Z</time></trkpt>
<trkpt lat="47.62824" lon="10.511537"><ele>904.83</ele><time>2024-04-25T07:44:09Z</time></trkpt>
<trkpt lat="47.628136" lon="10.511644"><ele>905.48</ele><time>2024-04-25T07:44:11Z</time></trkpt>
<trkpt lat="47.627531" lon="10.512679"><ele>911.0</ele><time>2024-04-25T07:44:14Z</time></trkpt>
<trkpt lat="47.627347" lon="10.513066"><ele>909.98</ele><time>2024-04-25T07:44:16Z</time></trkpt>
<trkpt lat="47.627209" lon="10.513407"><ele>910.14</ele><time>2024-04-25T07:44:19Z</time></trkpt>
<trkpt lat="47.627071" lon="10.513923"><ele>911.48</ele><time>2024-04-25T07:44:21Z</time></trkpt>
<trkpt lat="47.627059" lon="10.514158"><ele>911.02</ele><time>2024-04-25T07:44:24Z</time></trkpt>
<trkpt lat="47.627108" lon="10.514706"><ele>908.08</ele><time>2024-04-25T07:44:26Z</time></trkpt>
<trkpt lat="47.627114" lon="10.514927"><ele>907.55</ele><time>2024-04-25T07:44:29Z</time></trkpt>
<trkpt lat="47.627037" lon="10.515368"><ele>907.67</ele><time>2024-04-25T07:44:31Z</time></trkpt>
<trkpt lat="47.626983" lon="10.515797"><ele>906.87</ele><time>2024-04-25T07:44:33Z</time></trkpt>
<trkpt lat="47.626976" lon="10.515973"><ele>907.27</ele><time>2024-04-25T07:44:34Z</time></trkpt>
<trkpt lat="47.627004" lon="10.516262"><ele>907.99</ele><time>2024-04-25T07:44:36Z</time></trkpt>
<trkpt lat="47.627124" lon="10.516661"><ele>908.67</ele><time>2024-04-25T07:44:37Z</time></trkpt>
<trkpt lat="47.62717" lon="10.516906"><ele>908.54</ele><time>2024-04-25T07:44:39Z</time></trkpt>
<trkpt lat="47.627175" lon="10.517084"><ele>908.92</ele><time>2024-04-25T07:44:40Z</time></trkpt>
<trkpt lat="47.627163" lon="10.517204"><ele>909.38</ele><time>2024-04-25T07:44:41Z</time></trkpt>
<trkpt lat="47.62711" lon="10.517364"><ele>910.02</ele><time>2024-04-25T07:44:43Z</time></trkpt>
<trkpt lat="47.62685" lon="10.517907"><ele>912.68</ele><time>2024-04-25T07:44:44Z</time></trkpt>
<trkpt lat="47.626152" lon="10.518778"><ele>915.02</ele><time>2024-04-25T07:44:46Z</time></trkpt>
<trkpt lat="47.626093" lon="10.518939"><ele>916.0</ele><time>2024-04-25T07:44:47Z</time></trkpt>
<trkpt lat="47.625977" lon="10.519793"><ele>918.0</ele><time>2024-04-25T07:44:49Z</time></trkpt>
<trkpt lat="47.625909" lon="10.520044"><ele>917.8</ele><time>2024-04-25T07:44:50Z</time></trkpt>
<trkpt lat="47.625846" lon="10.520182"><ele>917.31</ele><time>2024-04-25T07:44:51Z</time></trkpt>
<trkpt lat="47.625744" lon="10.520336"><ele>916.86</ele><time>2024-04-25T07:44:53Z</time></trkpt>
<trkpt lat="47.625618" lon="10.520421"><ele>916.88</ele><time>2024-04-25T07:44:54Z</time></trkpt>
<trkpt lat="47.625123" lon="10.520494"><ele>916.22</ele><time>2024-04-25T07:44:56Z</time></trkpt>
<trkpt lat="47.624495" lon="10.520516"><ele>914.97</ele><time>2024-04-25T07:44:57Z</time></trkpt>
<trkpt lat="47.624342" lon="10.520553"><ele>915.73</ele><time>2024-04-25T07:44:59Z</time></trkpt>
<trkpt lat="47.624333" lon="10.521503"><ele>920.09</ele><time>2024-04-25T07:45:01Z</time></trkpt>
<trkpt lat="47.624364" lon="10.521628"><ele>920.94</ele><time>2024-04-25T07:45:04Z</time></trkpt>
<trkpt lat="47.624413" lon="10.521708"><ele>921.68</ele><time>2024-04-25T07:45:07Z</time></trkpt>
<trkpt lat="47.624478" lon="10.521778"><ele>922.05</ele><time>2024-04-25T07:45:10Z</time></trkpt>
<trkpt lat="47.624628" lon="10.521868"><ele>922.48</ele><time>2024-04-25T07:45:13Z</time></trkpt>
<trkpt lat="47.624656" lon="10.521913"><ele>922.67</ele><time>2024-04-25T07:45:15Z</time></trkpt>
<trkpt lat="47.624644" lon="10.52233"><ele>923.0</ele><time>2024-04-25T07:45:18Z</time></trkpt>
<trkpt lat="47.62457" lon="10.523291"><ele>921.08</ele><time>2024-04-25T07:45:21Z</time></trkpt>
<trkpt lat="47.624405" lon="10.52681"><ele>909.28</ele><time>2024-04-25T07:45:24Z</time></trkpt>
<trkpt lat="47.624448" lon="10.527415"><ele>909.39</ele><time>2024-04-25T07:45:27Z</time></trkpt>
<trkpt lat="47.624503" lon="10.527772"><ele>910.98</ele><time>2024-04-25T07:45:29Z</time></trkpt>
<trkpt lat="47.624531" lon="10.528084"><ele>910.97</ele><time>2024-04-25T07:45:32Z</time></trkpt>
<trkpt lat="47.624493" lon="10.52826"><ele>910.87</ele><time>2024-04-25T07:45:35Z</time></trkpt>
<trkpt lat="47.624365" lon="10.528327"><ele>911.0</ele><time>2024-04-25T07:45:38Z</time></trkpt>
<trkpt lat="47.624169" lon="10.528366"><ele>910.88</ele><time>2024-04-25T07:45:41Z</time></trkpt>
<trkpt lat="47.623757" lon="10.528317"><ele>908.97</ele><time>2024-04-25T07:45:43Z</time></trkpt>
<trkpt lat="47.623661" lon="10.528263"><ele>908.79</ele><time>2024-04-25T07:45:46Z</time></trkpt>
<trkpt lat="47.62353" lon="10.528237"><ele>908.17</ele><time>2024-04-25T07:45:49Z</time></trkpt>
<trkpt lat="47.622261" lon="10.528239"><ele>906.86</ele><time>2024-04-25T07:45:52Z</time></trkpt>
<trkpt lat="47.621636" lon="10.528269"><ele>906.77</ele><time>2024-04-25T07:45:55Z</time></trkpt>
<trkpt lat="47.621102" lon="10.528107"><ele>906.18</ele><time>2024-04-25T07:45:57Z</time></trkpt>
<trkpt lat="47.62091" lon="10.528079"><ele>906.02</ele><time>2024-04-25T07:46:00Z</time></trkpt>
<trkpt lat="47.620749" lon="10.528092"><ele>906.0</ele><time>2024-04-25T07:46:03Z</time></trkpt>
<trkpt lat="47.620357" lon="10.528284"><ele>906.84</ele><time>2024-04-25T07:46:06Z</time></trkpt>
<trkpt lat="47.620248" lon="10.528278"><ele>907.07</ele><time>2024-04-25T07:46:09Z</time></trkpt>
<trkpt lat="47.620046" lon="10.528192"><ele>906.25</ele><time>2024-04-25T07:46:11Z</time></trkpt>
<trkpt lat="47.619936" lon="10.528072"><ele>905.77</ele><time>2024-04-25T07:46:14Z</time></trkpt>
<trkpt lat="47.61982" lon="10.527871"><ele>905.59</ele><time>2024-04-25T07:46:17Z</time></trkpt>
<trkpt lat="47.61955" lon="10.52757"><ele>905.46</ele><time>2024-04-25T07:46:21Z</time></trkpt>
<trkpt lat="47.619363" lon="10.527439"><ele>905.85</ele><time>2024-04-25T07:46:25Z</time></trkpt>
<trkpt lat="47.619244" lon="10.527603"><ele>905.9</ele><time>2024-04-25T07:46:27Z</time></trkpt>
<trkpt lat="47.61915" lon="10.527818"><ele>905.83</ele><time>2024-04-25T07:46:29Z</time></trkpt>
<trkpt lat="47.619054" lon="10.528124"><ele>905.29</ele><time>2024-04-25T07:46:31Z</time></trkpt>
<trkpt lat="47.61897" lon="10.529148"><ele>904.63</ele><time>2024-04-25T07:46:36Z</time></trkpt>
<trkpt lat="47.618917" lon="10.529494"><ele>905.26</ele><time>2024-04-25T07:46:41Z</time></trkpt>
<trkpt lat="47.618854" lon="10.529788"><ele>906.02</ele><time>2024-04-25T07:46:45Z</time></trkpt>
<trkpt lat="47.618715" lon="10.53026"><ele>907.54</ele><time>2024-04-25T07:46:50Z</time></trkpt>
<trkpt lat="47.618643" lon="10.53041"><ele>908.41</ele><time>2024-04-25T07:46:55Z</time></trkpt>
<trkpt lat="47.618366" lon="10.530635"><ele>909.0</ele><time>2024-04-25T07:47:00Z</time></trkpt>
<trkpt lat="47.618143" lon="10.531024"><ele>908.78</ele><time>2024-04-25T07:47:04Z</time></trkpt>
<trkpt lat="47.618054" lon="10.531455"><ele>910.0</ele><time>2024-04-25T07:47:09Z</time></trkpt>
<trkpt lat="47.617984" lon="10.532098"><ele>909.15</ele><time>2024-04-25T07:47:14Z</time></trkpt>
<trkpt lat="47.617941" lon="10.53221"><ele>908.5</ele><time>2024-04-25T07:47:19Z</time></trkpt>
<trkpt lat="47.617822" lon="10.5323"><ele>907.49</ele><time>2024-04-25T07:47:23Z</time></trkpt>
<trkpt lat="47.617657" lon="10.532337"><ele>907.11</ele><time>2024-04-25T07:47:28Z</time></trkpt>
<trkpt lat="47.617564" lon="10.532384"><ele>906.53</ele><time>2024-04-25T07:47:33Z</time></trkpt>
<trkpt lat="47.617491" lon="10.532453"><ele>905.67</ele><time>2024-04-25T07:47:37Z</time></trkpt>
<trkpt lat="47.617473" lon="10.532559"><ele>903.98</ele><time>2024-04-25T07:47:42Z</time></trkpt>
<trkpt lat="47.617478" lon="10.532734"><ele>900.92</ele><time>2024-04-25T07:47:47Z</time></trkpt>
<trkpt lat="47.617532" lon="10.532921"><ele>898.57</ele><time>2024-04-25T07:47:52Z</time></trkpt>
<trkpt lat="47.617589" lon="10.53327"><ele>896.62</ele><time>2024-04-25T07:47:56Z</time></trkpt>
<trkpt lat="47.617582" lon="10.534581"><ele>893.03</ele><time>2024-04-25T07:48:01Z</time></trkpt>
<trkpt lat="47.617615" lon="10.535749"><ele>888.98</ele><time>2024-04-25T07:48:06Z</time></trkpt>
<trkpt lat="47.617595" lon="10.536677"><ele>889.78</ele><time>2024-04-25T07:48:11Z</time></trkpt>
<trkpt lat="47.617452" lon="10.538322"><ele>885.51</ele><time>2024-04-25T07:48:15Z</time></trkpt>
<trkpt lat="47.617394" lon="10.538806"><ele>886.18</ele><time>2024-04-25T07:48:20Z</time></trkpt>
<trkpt lat="47.617283" lon="10.539376"><ele>887.01</ele><time>2024-04-25T07:48:25Z</time></trkpt>
<trkpt lat="47.617254" lon="10.539642"><ele>887.32</ele><time>2024-04-25T07:48:30Z</time></trkpt>
<trkpt lat="47.617242" lon="10.540074"><ele>887.84</ele><time>2024-04-25T07:48:34Z</time></trkpt>
<trkpt lat="47.617499" lon="10.540401"><ele>887.0</ele><time>2024-04-25T07:48:39Z</time></trkpt>
<trkpt lat="47.617705" lon="10.540561"><ele>887.75</ele><time>2024-04-25T07:48:44Z</time></trkpt>
<trkpt lat="47.61921" lon="10.541447"><ele>903.12</ele><time>2024-04-25T07:48:49Z</time></trkpt>
<trkpt lat="47.619493" lon="10.541546"><ele>906.95</ele><time>2024-04-25T07:48:53Z</time></trkpt>
<trkpt lat="47.619607" lon="10.54162"><ele>909.03</ele><time>2024-04-25T07:48:58Z</time></trkpt>
<trkpt lat="47.619707" lon="10.541759"><ele>910.39</ele><time>2024-04-25T07:49:03Z</time></trkpt>
<trkpt lat="47.619802" lon="10.541961"><ele>910.45</ele><time>2024-04-25T07:49:08Z</time></trkpt>
<trkpt lat="47.620048" lon="10.542746"><ele>908.36</ele><time>2024-04-25T07:49:12Z</time></trkpt>
<trkpt lat="47.620098" lon="10.542866"><ele>906.85</ele><time>2024-04-25T07:49:17Z</time></trkpt>
<trkpt lat="47.620532" lon="10.543655"><ele>898.58</ele><time>2024-04-25T07:49:22Z</time></trkpt>
<trkpt lat="47.620574" lon="10.543757"><ele>898.15</ele><time>2024-04-25T07:49:27Z</time></trkpt>
<trkpt lat="47.620612" lon="10.543911"><ele>897.79</ele><time>2024-04-25T07:49:31Z</time></trkpt>
<trkpt lat="47.620624" lon="10.544777"><ele>901.03</ele><time>2024-04-25T07:49:36Z</time></trkpt>
<trkpt lat="47.620583" lon="10.545009"><ele>902.56</ele><time>2024-04-25T07:49:41Z</time></trkpt>
<trkpt lat="47.620499" lon="10.545318"><ele>903.62</ele><time>2024-04-25T07:49:46Z</time></trkpt>
<trkpt lat="47.620484" lon="10.545501"><ele>905.38</ele><time>2024-04-25T07:49:50Z</time></trkpt>
<trkpt lat="47.620493" lon="10.545627"><ele>906.73</ele><time>2024-04-25T07:49:55Z</time></trkpt>
<trkpt lat="47.620726" lon="10.54644"><ele>912.84</ele><time>2024-04-25T07:50:00Z</time></trkpt>
<trkpt lat="47.620715" lon="10.546706"><ele>913.2</ele><time>2024-04-25T07:50:05Z</time></trkpt>
<trkpt lat="47.620617" lon="10.547306"><ele>912.01</ele><time>2024-04-25T07:50:09Z</time></trkpt>
<trkpt lat="47.620618" lon="10.547702"><ele>908.97</ele><time>2024-04-25T07:50:14Z</time></trkpt>
<trkpt lat="47.620856" lon="10.549588"><ele>897.95</ele><time>2024-04-25T07:50:19Z</time></trkpt>
<trkpt lat="47.621012" lon="10.550497"><ele>905.15</ele><time>2024-04-25T07:50:24Z</time></trkpt>
<trkpt lat="47.620075" lon="10.551005"><ele>907.65</ele><time>2024-04-25T07:50:28Z</time></trkpt>
<trkpt lat="47.620001" lon="10.551081"><ele>907.01</ele><time>2024-04-25T07:50:32Z</time></trkpt>
<trkpt lat="47.619948" lon="10.551187"><ele>907.65</ele><time>2024-04-25T07:50:37Z</time></trkpt>
<trkpt lat="47.619858" lon="10.55164"><ele>909.95</ele><time>2024-04-25T07:50:41Z</time></trkpt>
<trkpt lat="47.619526" lon="10.552786"><ele>922.75</ele><time>2024-04-25T07:50:45Z</time></trkpt>
<trkpt lat="47.619444" lon="10.552929"><ele>924.09</ele><time>2024-04-25T07:50:49Z</time></trkpt>
<trkpt lat="47.619391" lon="10.55297"><ele>924.77</ele><time>2024-04-25T07:50:54Z</time></trkpt>
<trkpt lat="47.619322" lon="10.552983"><ele>925.36</ele><time>2024-04-25T07:50:58Z</time></trkpt>
<trkpt lat="47.618898" lon="10.552875"><ele>927.0</ele><time>2024-04-25T07:51:02Z</time></trkpt>
<trkpt lat="47.618567" lon="10.552945"><ele>929.57</ele><time>2024-04-25T07:51:07Z</time></trkpt>
<trkpt lat="47.618245" lon="10.553147"><ele>932.76</ele><time>2024-04-25T07:51:11Z</time></trkpt>
<trkpt lat="47.618037" lon="10.553345"><ele>935.15</ele><time>2024-04-25T07:51:15Z</time></trkpt>
<trkpt lat="47.617974" lon="10.553496"><ele>936.63</ele><time>2024-04-25T07:51:20Z</time></trkpt>
<trkpt lat="47.617925" lon="10.553706"><ele>938.28</ele><time>2024-04-25T07:51:24Z</time></trkpt>
<trkpt lat="47.617845" lon="10.554452"><ele>944.58</ele><time>2024-04-25T07:51:28Z</time></trkpt>
<trkpt lat="47.617757" lon="10.554819"><ele>947.2</ele><time>2024-04-25T07:51:32Z</time></trkpt>
<trkpt lat="47.617696" lon="10.554991"><ele>947.38</ele><time>2024-04-25T07:51:37Z</time></trkpt>
<trkpt lat="47.61767" lon="10.555272"><ele>946.24</ele><time>2024-04-25T07:51:41Z</time></trkpt>
<trkpt lat="47.617781" lon="10.556016"><ele>944.36</ele><time>2024-04-25T07:51:45Z</time></trkpt>
<trkpt lat="47.617774" lon="10.5565"><ele>940.56</ele><time>2024-04-25T07:51:50Z</time></trkpt>
<trkpt lat="47.617729" lon="10.556764"><ele>939.48</ele><time>2024-04-25T07:51:54Z</time></trkpt>
<trkpt lat="47.617373" lon="10.558307"><ele>936.63</ele><time>2024-04-25T07:51:58Z</time></trkpt>
<trkpt lat="47.617039" lon="10.559615"><ele>941.25</ele><time>2024-04-25T07:52:03Z</time></trkpt>
<trkpt lat="47.616976" lon="10.559924"><ele>942.06</ele><time>2024-04-25T07:52:07Z</time></trkpt>
<trkpt lat="47.616948" lon="10.560132"><ele>942.98</ele><time>2024-04-25T07:52:11Z</time></trkpt>
<trkpt lat="47.616936" lon="10.560457"><ele>943.89</ele><time>2024-04-25T07:52:15Z</time></trkpt>
<trkpt lat="47.617007" lon="10.560982"><ele>943.59</ele><time>2024-04-25T07:52:20Z</time></trkpt>
<trkpt lat="47.617027" lon="10.561802"><ele>939.02</ele><time>2024-04-25T07:52:24Z</time></trkpt>
<trkpt lat="47.61699" lon="10.562286"><ele>938.04</ele><time>2024-04-25T07:52:28Z</time></trkpt>
<trkpt lat="47.616961" lon="10.56247"><ele>938.05</ele><time>2024-04-25T07:52:33Z</time></trkpt>
<trkpt lat="47.616294" lon="10.564059"><ele>932.12</ele><time>2024-04-25T07:52:37Z</time></trkpt>
<trkpt lat="47.616014" lon="10.564497"><ele>929.15</ele><time>2024-04-25T07:52:41Z</time></trkpt>
<trkpt lat="47.615676" lon="10.564894"><ele>925.65</ele><time>2024-04-25T07:52:46Z</time></trkpt>
<trkpt lat="47.615206" lon="10.565385"><ele>920.09</ele><time>2024-04-25T07:52:50Z</time></trkpt>
<trkpt lat="47.614756" lon="10.565797"><ele>913.49</ele><time>2024-04-25T07:52:54Z</time></trkpt>
<trkpt lat="47.614653" lon="10.565882"><ele>912.75</ele><time>2024-04-25T07:52:59Z</time></trkpt>
<trkpt lat="47.614524" lon="10.565882"><ele>912.28</ele><time>2024-04-25T07:53:03Z</time></trkpt>
<trkpt lat="47.614321" lon="10.565827"><ele>911.09</ele><time>2024-04-25T07:53:07Z</time></trkpt>
<trkpt lat="47.61405" lon="10.565881"><ele>909.16</ele><time>2024-04-25T07:53:11Z</time></trkpt>
<trkpt lat="47.613403" lon="10.566433"><ele>905.41</ele><time>2024-04-25T07:53:16Z</time></trkpt>
<trkpt lat="47.613214" lon="10.566526"><ele>905.28</ele><time>2024-04-25T07:53:20Z</time></trkpt>
<trkpt lat="47.61314" lon="10.566667"><ele>906.0</ele><time>2024-04-25T07:53:24Z</time></trkpt>
<trkpt lat="47.612902" lon="10.566608"><ele>907.91</ele><time>2024-04-25T07:53:28Z</time></trkpt>
<trkpt lat="47.612697" lon="10.566506"><ele>911.79</ele><time>2024-04-25T07:53:31Z</time></trkpt>
<trkpt lat="47.61243" lon="10.566206"><ele>917.59</ele><time>2024-04-25T07:53:35Z</time></trkpt>
<trkpt lat="47.612252" lon="10.566073"><ele>917.49</ele><time>2024-04-25T07:53:38Z</time></trkpt>
<trkpt lat="47.612141" lon="10.566043"><ele>916.75</ele><time>2024-04-25T07:53:42Z</time></trkpt>
<trkpt lat="47.611737" lon="10.566028"><ele>913.08</ele><time>2024-04-25T07:53:45Z</time></trkpt>
<trkpt lat="47.611294" lon="10.566102"><ele>909.09</ele><time>2024-04-25T07:53:49Z</time></trkpt>
<trkpt lat="47.610038" lon="10.566479"><ele>898.72</ele><time>2024-04-25T07:53:52Z</time></trkpt>
<trkpt lat="47.609834" lon="10.566561"><ele>900.42</ele><time>2024-04-25T07:53:56Z</time></trkpt>
<trkpt lat="47.609233" lon="10.567001"><ele>903.16</ele><time>2024-04-25T07:53:59Z</time></trkpt>
<trkpt lat="47.609149" lon="10.567004"><ele>903.71</ele><time>2024-04-25T07:54:03Z</time></trkpt>
<trkpt lat="47.608598" lon="10.56679"><ele>906.91</ele><time>2024-04-25T07:54:06Z</time></trkpt>
<trkpt lat="47.608219" lon="10.566516"><ele>904.36</ele><time>2024-04-25T07:54:10Z</time></trkpt>
<trkpt lat="47.607883" lon="10.56622"><ele>901.77</ele><time>2024-04-25T07:54:13Z</time></trkpt>
<trkpt lat="47.607816" lon="10.566078"><ele>901.14</ele><time>2024-04-25T07:54:17Z</time></trkpt>
<trkpt lat="47.607774" lon="10.565901"><ele>901.0</ele><time>2024-04-25T07:54:20Z</time></trkpt>
<trkpt lat="47.607771" lon="10.565697"><ele>901.48</ele><time>2024-04-25T07:54:24Z</time></trkpt>
<trkpt lat="47.607738" lon="10.565556"><ele>901.85</ele><time>2024-04-25T07:54:27Z</time></trkpt>
<trkpt lat="47.607665" lon="10.565413"><ele>901.38</ele><time>2024-04-25T07:54:31Z</time></trkpt>
<trkpt lat="47.607595" lon="10.565327"><ele>900.8</ele><time>2024-04-25T07:54:34Z</time></trkpt>
<trkpt lat="47.607467" lon="10.565246"><ele>899.42</ele><time>2024-04-25T07:54:38Z</time></trkpt>
<trkpt lat="47.607285" lon="10.564951"><ele>895.59</ele><time>2024-04-25T07:54:41Z</time></trkpt>
<trkpt lat="47.607012" lon="10.564667"><ele>889.22</ele><time>2024-04-25T07:54:45Z</time></trkpt>
<trkpt lat="47.606909" lon="10.564511"><ele>887.62</ele><time>2024-04-25T07:54:48Z</time></trkpt>
<trkpt lat="47.606733" lon="10.564169"><ele>885.72</ele><time>2024-04-25T07:54:52Z</time></trkpt>
<trkpt lat="47.606575" lon="10.563797"><ele>886.33</ele><time>2024-04-25T07:54:55Z</time></trkpt>
<trkpt lat="47.606479" lon="10.563681"><ele>886.75</ele><time>2024-04-25T07:54:59Z</time></trkpt>
<trkpt lat="47.606294" lon="10.563535"><ele>887.52</ele><time>2024-04-25T07:55:02Z</time></trkpt>
<trkpt lat="47.606223" lon="10.563425"><ele>887.87</ele><time>2024-04-25T07:55:06Z</time></trkpt>
<trkpt lat="47.606222" lon="10.56317"><ele>887.77</ele><time>2024-04-25T07:55:10Z</time></trkpt>
<trkpt lat="47.606237" lon="10.563064"><ele>887.56</ele><time>2024-04-25T07:55:13Z</time></trkpt>
<trkpt lat="47.606318" lon="10.562451"><ele>886.82</ele><time>2024-04-25T07:55:17Z</time></trkpt>
<trkpt lat="47.606394" lon="10.562111"><ele>886.06</ele><time>2024-04-25T07:55:20Z</time></trkpt>
<trkpt lat="47.606402" lon="10.561982"><ele>886.15</ele><time>2024-04-25T07:55:24Z</time></trkpt>
<trkpt lat="47.606385" lon="10.561662"><ele>885.98</ele><time>2024-04-25T07:55:27Z</time></trkpt>
<trkpt lat="47.606279" lon="10.561444"><ele>885.6</ele><time>2024-04-25T07:55:31Z</time></trkpt>
<trkpt lat="47.606107" lon="10.56122"><ele>885.61</ele><time>2024-04-25T07:55:34Z</time></trkpt>
<trkpt lat="47.605978" lon="10.561144"><ele>885.94</ele><time>2024-04-25T07:55:38Z</time></trkpt>
<trkpt lat="47.605761" lon="10.561434"><ele>885.88</ele><time>2024-04-25T07:55:41Z</time></trkpt>
<trkpt lat="47.605062" lon="10.562789"><ele>883.86</ele><time>2024-04-25T07:55:45Z</time></trkpt>
<trkpt lat="47.604937" lon="10.56297"><ele>881.33</ele><time>2024-04-25T07:55:48Z</time></trkpt>
<trkpt lat="47.604799" lon="10.563079"><ele>879.04</ele><time>2024-04-25T07:55:52Z</time></trkpt>
<trkpt lat="47.60468" lon="10.563144"><ele>876.92</ele><time>2024-04-25T07:55:55Z</time></trkpt>
<trkpt lat="47.60449" lon="10.563204"><ele>873.28</ele><time>2024-04-25T07:55:58Z</time></trkpt>
<trkpt lat="47.604258" lon="10.563323"><ele>871.34</ele><time>2024-04-25T07:56:02Z</time></trkpt>
<trkpt lat="47.604077" lon="10.563378"><ele>870.57</ele><time>2024-04-25T07:56:05Z</time></trkpt>
<trkpt lat="47.603933" lon="10.563379"><ele>870.13</ele><time>2024-04-25T07:56:09Z</time></trkpt>
<trkpt lat="47.603796" lon="10.563311"><ele>869.66</ele><time>2024-04-25T07:56:12Z</time></trkpt>
<trkpt lat="47.603536" lon="10.563115"><ele>868.24</ele><time>2024-04-25T07:56:16Z</time></trkpt>
<trkpt lat="47.603451" lon="10.563098"><ele>867.35</ele><time>2024-04-25T07:56:19Z</time></trkpt>
<trkpt lat="47.603381" lon="10.563124"><ele>866.72</ele><time>2024-04-25T07:56:23Z</time></trkpt>
<trkpt lat="47.603263" lon="10.563265"><ele>866.25</ele><time>2024-04-25T07:56:26Z</time></trkpt>
<trkpt lat="47.60313" lon="10.563601"><ele>866.5</ele><time>2024-04-25T07:56:30Z</time></trkpt>
<trkpt lat="47.602726" lon="10.564451"><ele>866.67</ele><time>2024-04-25T07:56:33Z</time></trkpt>
<trkpt lat="47.602523" lon="10.564754"><ele>867.64</ele><time>2024-04-25T07:56:37Z</time></trkpt>
<trkpt lat="47.602302" lon="10.564932"><ele>867.52</ele><time>2024-04-25T07:56:40Z</time></trkpt>
<trkpt lat="47.602151" lon="10.565232"><ele>868.78</ele><time>2024-04-25T07:56:44Z</time></trkpt>
<trkpt lat="47.602027" lon="10.565408"><ele>869.3</ele><time>2024-04-25T07:56:47Z</time></trkpt>
<trkpt lat="47.60186" lon="10.565513"><ele>868.93</ele><time>2024-04-25T07:56:51Z</time></trkpt>
<trkpt lat="47.601713" lon="10.565561"><ele>868.39</ele><time>2024-04-25T07:56:54Z</time></trkpt>
<trkpt lat="47.601592" lon="10.56557"><ele>868.39</ele><time>2024-04-25T07:56:58Z</time></trkpt>
<trkpt lat="47.601295" lon="10.565467"><ele>869.02</ele><time>2024-04-25T07:57:01Z</time></trkpt>
<trkpt lat="47.601161" lon="10.565443"><ele>869.41</ele><time>2024-04-25T07:57:05Z</time></trkpt>
<trkpt lat="47.600876" lon="10.565509"><ele>869.83</ele><time>2024-04-25T07:57:08Z</time></trkpt>
<trkpt lat="47.600735" lon="10.565587"><ele>870.43</ele><time>2024-04-25T07:57:12Z</time></trkpt>
<trkpt lat="47.600327" lon="10.565978"><ele>872.43</ele><time>2024-04-25T07:57:15Z</time></trkpt>
<trkpt lat="47.600212" lon="10.566164"><ele>872.91</ele><time>2024-04-25T07:57:19Z</time></trkpt>
<trkpt lat="47.600364" lon="10.566193"><ele>873.59</ele><time>2024-04-25T07:57:22Z</time></trkpt>
<trkpt lat="47.600735" lon="10.566427"><ele>875.28</ele><time>2024-04-25T07:57:24Z</time></trkpt>
<trkpt lat="47.600958" lon="10.566542"><ele>876.1</ele><time>2024-04-25T07:57:27Z</time></trkpt>
<trkpt lat="47.601176" lon="10.566582"><ele>876.39</ele><time>2024-04-25T07:57:30Z</time></trkpt>
<trkpt lat="47.601348" lon="10.566589"><ele>876.44</ele><time>2024-04-25T07:57:33Z</time></trkpt>
<trkpt lat="47.60162" lon="10.566539"><ele>878.65</ele><time>2024-04-25T07:57:35Z</time></trkpt>
<trkpt lat="47.601841" lon="10.566542"><ele>881.37</ele><time>2024-04-25T07:57:38Z</time></trkpt>
<trkpt lat="47.601996" lon="10.566589"><ele>883.16</ele><time>2024-04-25T07:57:41Z</time></trkpt>
<trkpt lat="47.602173" lon="10.566716"><ele>884.78</ele><time>2024-04-25T07:57:44Z</time></trkpt>
<trkpt lat="47.602321" lon="10.566871"><ele>886.78</ele><time>2024-04-25T07:57:46Z</time></trkpt>
<trkpt lat="47.602494" lon="10.567209"><ele>888.03</ele><time>2024-04-25T07:57:49Z</time></trkpt>
<trkpt lat="47.602773" lon="10.567922"><ele>882.53</ele><time>2024-04-25T07:57:52Z</time></trkpt>
<trkpt lat="47.602844" lon="10.568174"><ele>881.71</ele><time>2024-04-25T07:57:55Z</time></trkpt>
<trkpt lat="47.602854" lon="10.568326"><ele>881.46</ele><time>2024-04-25T07:57:57Z</time></trkpt>
<trkpt lat="47.602854" lon="10.568326"><ele>881.46</ele><time>2024-04-25T07:57:57Z</time></trkpt>
<trkpt lat="47.60286" lon="10.568415"><ele>881.21</ele><time>2024-04-25T07:58:04Z</time></trkpt>
<trkpt lat="47.602838" lon="10.568663"><ele>881.78</ele><time>2024-04-25T07:58:10Z</time></trkpt>
<trkpt lat="47.602533" lon="10.569926"><ele>882.18</ele><time>2024-04-25T07:58:16Z</time></trkpt>
<trkpt lat="47.602459" lon="10.570455"><ele>882.08</ele><time>2024-04-25T07:58:23Z</time></trkpt>
<trkpt lat="47.602443" lon="10.570884"><ele>885.09</ele><time>2024-04-25T07:58:29Z</time></trkpt>
<trkpt lat="47.60246" lon="10.571333"><ele>887.83</ele><time>2024-04-25T07:58:35Z</time></trkpt>
<trkpt lat="47.602612" lon="10.573506"><ele>880.77</ele><time>2024-04-25T07:58:41Z</time></trkpt>
<trkpt lat="47.602686" lon="10.574299"><ele>877.01</ele><time>2024-04-25T07:58:48Z</time></trkpt>
<trkpt lat="47.6027" lon="10.574795"><ele>876.75</ele><time>2024-04-25T07:58:54Z</time></trkpt>
<trkpt lat="47.602671" lon="10.575209"><ele>877.09</ele><time>2024-04-25T07:59:00Z</time></trkpt>
<trkpt lat="47.602593" lon="10.575696"><ele>877.0</ele><time>2024-04-25T07:59:07Z</time></trkpt>
<trkpt lat="47.602464" lon="10.576159"><ele>877.58</ele><time>2024-04-25T07:59:13Z</time></trkpt>
<trkpt lat="47.60172" lon="10.578078"><ele>882.84</ele><time>2024-04-25T07:59:19Z</time></trkpt>
<trkpt lat="47.601634" lon="10.578461"><ele>886.62</ele><time>2024-04-25T07:59:26Z</time></trkpt>
<trkpt lat="47.601418" lon="10.579859"><ele>889.52</ele><time>2024-04-25T07:59:32Z</time></trkpt>
<trkpt lat="47.601256" lon="10.58076"><ele>882.72</ele><time>2024-04-25T07:59:38Z</time></trkpt>
<trkpt lat="47.601504" lon="10.580841"><ele>881.03</ele><time>2024-04-25T07:59:42Z</time></trkpt>
<trkpt lat="47.601783" lon="10.581046"><ele>881.45</ele><time>2024-04-25T07:59:45Z</time></trkpt>
<trkpt lat="47.602318" lon="10.581672"><ele>881.0</ele><time>2024-04-25T07:59:49Z</time></trkpt>
<trkpt lat="47.602713" lon="10.582059"><ele>881.96</ele><time>2024-04-25T07:59:52Z</time></trkpt>
<trkpt lat="47.60298" lon="10.582408"><ele>882.0</ele><time>2024-04-25T07:59:56Z</time></trkpt>
<trkpt lat="47.603403" lon="10.583037"><ele>883.25</ele><time>2024-04-25T07:59:59Z</time></trkpt>
<trkpt lat="47.604024" lon="10.584066"><ele>886.28</ele><time>2024-04-25T08:00:03Z</time></trkpt>
<trkpt lat="47.604196" lon="10.584307"><ele>888.32</ele><time>2024-04-25T08:00:06Z</time></trkpt>
<trkpt lat="47.604312" lon="10.584421"><ele>890.41</ele><time>2024-04-25T08:00:09Z</time></trkpt>
<trkpt lat="47.604439" lon="10.58446"><ele>892.05</ele><time>2024-04-25T08:00:13Z</time></trkpt>
<trkpt lat="47.604587" lon="10.584427"><ele>893.44</ele><time>2024-04-25T08:00:16Z</time></trkpt>
<trkpt lat="47.604932" lon="10.584278"><ele>895.15</ele><time>2024-04-25T08:00:20Z</time></trkpt>
<trkpt lat="47.605019" lon="10.584281"><ele>895.41</ele><time>2024-04-25T08:00:23Z</time></trkpt>
<trkpt lat="47.605079" lon="10.584318"><ele>895.54</ele><time>2024-04-25T08:00:27Z</time></trkpt>
<trkpt lat="47.605156" lon="10.584701"><ele>897.44</ele><time>2024-04-25T08:00:30Z</time></trkpt>
<trkpt lat="47.605003" lon="10.585053"><ele>899.37</ele><time>2024-04-25T08:00:34Z</time></trkpt>
<trkpt lat="47.605022" lon="10.585172"><ele>900.16</ele><time>2024-04-25T08:00:37Z</time></trkpt>
<trkpt lat="47.60516" lon="10.585524"><ele>901.31</ele><time>2024-04-25T08:00:41Z</time></trkpt>
<trkpt lat="47.605191" lon="10.585569"><ele>901.33</ele><time>2024-04-25T08:00:44Z</time></trkpt>
<trkpt lat="47.605135" lon="10.585859"><ele>902.03</ele><time>2024-04-25T08:00:48Z</time></trkpt>
<trkpt lat="47.605017" lon="10.586052"><ele>902.88</ele><time>2024-04-25T08:00:52Z</time></trkpt>
<trkpt lat="47.605233" lon="10.586206"><ele>901.6</ele><time>2024-04-25T08:00:59Z</time></trkpt>
<trkpt lat="47.605457" lon="10.58622"><ele>901.39</ele><time>2024-04-25T08:01:06Z</time></trkpt>
<trkpt lat="47.606045" lon="10.586626"><ele>906.34</ele><time>2024-04-25T08:01:12Z</time></trkpt>
<trkpt lat="47.605805" lon="10.587271"><ele>906.99</ele><time>2024-04-25T08:01:24Z</time></trkpt>
<trkpt lat="47.606679" lon="10.587973"><ele>915.8</ele><time>2024-04-25T08:01:27Z</time></trkpt>
<trkpt lat="47.606851" lon="10.588171"><ele>917.32</ele><time>2024-04-25T08:01:30Z</time></trkpt>
<trkpt lat="47.607151" lon="10.588664"><ele>918.55</ele><time>2024-04-25T08:01:33Z</time></trkpt>
<trkpt lat="47.607483" lon="10.588807"><ele>919.9</ele><time>2024-04-25T08:01:37Z</time></trkpt>
<trkpt lat="47.607886" lon="10.589118"><ele>922.56</ele><time>2024-04-25T08:01:40Z</time></trkpt>
<trkpt lat="47.60798" lon="10.58916"><ele>922.75</ele><time>2024-04-25T08:01:43Z</time></trkpt>
<trkpt lat="47.608195" lon="10.589182"><ele>922.39</ele><time>2024-04-25T08:01:46Z</time></trkpt>
<trkpt lat="47.608433" lon="10.589123"><ele>921.64</ele><time>2024-04-25T08:01:49Z</time></trkpt>
<trkpt lat="47.608619" lon="10.589165"><ele>921.03</ele><time>2024-04-25T08:01:52Z</time></trkpt>
<trkpt lat="47.608754" lon="10.589165"><ele>921.52</ele><time>2024-04-25T08:01:56Z</time></trkpt>
<trkpt lat="47.609113" lon="10.58903"><ele>927.25</ele><time>2024-04-25T08:01:59Z</time></trkpt>
<trkpt lat="47.609178" lon="10.589021"><ele>928.91</ele><time>2024-04-25T08:02:02Z</time></trkpt>
<trkpt lat="47.609266" lon="10.589042"><ele>931.62</ele><time>2024-04-25T08:02:05Z</time></trkpt>
<trkpt lat="47.609266" lon="10.589042"><ele>931.62</ele><time>2024-04-25T08:02:08Z</time></trkpt>
<trkpt lat="47.609314" lon="10.589065"><ele>933.0</ele><time>2024-04-25T08:02:11Z</time></trkpt>
<trkpt lat="47.609395" lon="10.589148"><ele>934.74</ele><time>2024-04-25T08:02:14Z</time></trkpt>
<trkpt lat="47.609597" lon="10.589471"><ele>938.24</ele><time>2024-04-25T08:02:18Z</time></trkpt>
<trkpt lat="47.60986" lon="10.590201"><ele>945.01</ele><time>2024-04-25T08:02:21Z</time></trkpt>
<trkpt lat="47.610174" lon="10.59085"><ele>949.45</ele><time>2024-04-25T08:02:24Z</time></trkpt>
<trkpt lat="47.610348" lon="10.591071"><ele>953.59</ele><time>2024-04-25T08:02:27Z</time></trkpt>
<trkpt lat="47.610955" lon="10.591648"><ele>965.42</ele><time>2024-04-25T08:02:30Z</time></trkpt>
<trkpt lat="47.610984" lon="10.591724"><ele>964.66</ele><time>2024-04-25T08:02:33Z</time></trkpt>
<trkpt lat="47.610975" lon="10.591857"><ele>961.49</ele><time>2024-04-25T08:02:37Z</time></trkpt>
<trkpt lat="47.611024" lon="10.592092"><ele>959.59</ele><time>2024-04-25T08:02:40Z</time></trkpt>
<trkpt lat="47.61115" lon="10.59231"><ele>960.17</ele><time>2024-04-25T08:02:43Z</time></trkpt>
<trkpt lat="47.611283" lon="10.592416"><ele>961.05</ele><time>2024-04-25T08:02:46Z</time></trkpt>
<trkpt lat="47.611497" lon="10.592471"><ele>963.15</ele><time>2024-04-25T08:02:49Z</time></trkpt>
<trkpt lat="47.611585" lon="10.592511"><ele>963.34</ele><time>2024-04-25T08:02:52Z</time></trkpt>
<trkpt lat="47.611825" lon="10.592683"><ele>967.34</ele><time>2024-04-25T08:02:56Z</time></trkpt>
<trkpt lat="47.611888" lon="10.592717"><ele>968.53</ele><time>2024-04-25T08:02:59Z</time></trkpt>
<trkpt lat="47.611997" lon="10.592737"><ele>970.93</ele><time>2024-04-25T08:03:02Z</time></trkpt>
<trkpt lat="47.612177" lon="10.592695"><ele>976.29</ele><time>2024-04-25T08:03:05Z</time></trkpt>
<trkpt lat="47.612532" lon="10.592513"><ele>988.14</ele><time>2024-04-25T08:03:08Z</time></trkpt>
<trkpt lat="47.612609" lon="10.592511"><ele>989.3</ele><time>2024-04-25T08:03:11Z</time></trkpt>
<trkpt lat="47.612645" lon="10.592515"><ele>990.14</ele><time>2024-04-25T08:03:15Z</time></trkpt>
<trkpt lat="47.612645" lon="10.592515"><ele>990.14</ele><time>2024-04-25T08:03:15Z</time></trkpt>
<trkpt lat="47.612609" lon="10.592511"><ele>989.3</ele><time>2024-04-25T08:03:18Z</time></trkpt>
<trkpt lat="47.612532" lon="10.592513"><ele>988.14</ele><time>2024-04-25T08:03:21Z</time></trkpt>
<trkpt lat="47.612177" lon="10.592695"><ele>976.29</ele><time>2024-04-25T08:03:25Z</time></trkpt>
<trkpt lat="47.611997" lon="10.592737"><ele>970.93</ele><time>2024-04-25T08:03:28Z</time></trkpt>
<trkpt lat="47.611888" lon="10.592717"><ele>968.53</ele><time>2024-04-25T08:03:32Z</time></trkpt>
<trkpt lat="47.611825" lon="10.592683"><ele>967.34</ele><time>2024-04-25T08:03:35Z</time></trkpt>
<trkpt lat="47.611585" lon="10.592511"><ele>963.34</ele><time>2024-04-25T08:03:39Z</time></trkpt>
<trkpt lat="47.611497" lon="10.592471"><ele>963.15</ele><time>2024-04-25T08:03:42Z</time></trkpt>
<trkpt lat="47.611283" lon="10.592416"><ele>961.05</ele><time>2024-04-25T08:03:46Z</time></trkpt>
<trkpt lat="47.61115" lon="10.59231"><ele>960.17</ele><time>2024-04-25T08:03:49Z</time></trkpt>
<trkpt lat="47.611024" lon="10.592092"><ele>959.59</ele><time>2024-04-25T08:03:53Z</time></trkpt>
<trkpt lat="47.610975" lon="10.591857"><ele>961.49</ele><time>2024-04-25T08:03:56Z</time></trkpt>
<trkpt lat="47.610984" lon="10.591724"><ele>964.66</ele><time>2024-04-25T08:03:59Z</time></trkpt>
<trkpt lat="47.610955" lon="10.591648"><ele>965.42</ele><time>2024-04-25T08:04:03Z</time></trkpt>
<trkpt lat="47.610348" lon="10.591071"><ele>953.59</ele><time>2024-04-25T08:04:06Z</time></trkpt>
<trkpt lat="47.610174" lon="10.59085"><ele>949.45</ele><time>2024-04-25T08:04:10Z</time></trkpt>
<trkpt lat="47.60986" lon="10.590201"><ele>945.01</ele><time>2024-04-25T08:04:13Z</time></trkpt>
<trkpt lat="47.609597" lon="10.589471"><ele>938.24</ele><time>2024-04-25T08:04:17Z</time></trkpt>
<trkpt lat="47.609395" lon="10.589148"><ele>934.74</ele><time>2024-04-25T08:04:20Z</time></trkpt>
<trkpt lat="47.609314" lon="10.589065"><ele>933.0</ele><time>2024-04-25T08:04:24Z</time></trkpt>
<trkpt lat="47.609266" lon="10.589042"><ele>931.62</ele><time>2024-04-25T08:04:27Z</time></trkpt>
<trkpt lat="47.609266" lon="10.589042"><ele>931.62</ele><time>2024-04-25T08:04:31Z</time></trkpt>
<trkpt lat="47.609178" lon="10.589021"><ele>928.91</ele><time>2024-04-25T08:04:34Z</time></trkpt>
<trkpt lat="47.609113" lon="10.58903"><ele>927.25</ele><time>2024-04-25T08:04:37Z</time></trkpt>
<trkpt lat="47.608754" lon="10.589165"><ele>921.52</ele><time>2024-04-25T08:04:41Z</time></trkpt>
<trkpt lat="47.608619" lon="10.589165"><ele>921.03</ele><time>2024-04-25T08:04:44Z</time></trkpt>
<trkpt lat="47.608433" lon="10.589123"><ele>921.64</ele><time>2024-04-25T08:04:48Z</time></trkpt>
<trkpt lat="47.608195" lon="10.589182"><ele>922.39</ele><time>2024-04-25T08:04:51Z</time></trkpt>
<trkpt lat="47.60798" lon="10.58916"><ele>922.75</ele><time>2024-04-25T08:04:55Z</time></trkpt>
<trkpt lat="47.607886" lon="10.589118"><ele>922.56</ele><time>2024-04-25T08:04:58Z</time></trkpt>
<trkpt lat="47.607483" lon="10.588807"><ele>919.9</ele><time>2024-04-25T08:05:02Z</time></trkpt>
<trkpt lat="47.607151" lon="10.588664"><ele>918.55</ele><time>2024-04-25T08:05:05Z</time></trkpt>
<trkpt lat="47.606851" lon="10.588171"><ele>917.32</ele><time>2024-04-25T08:05:09Z</time></trkpt>
<trkpt lat="47.606679" lon="10.587973"><ele>915.8</ele><time>2024-04-25T08:05:12Z</time></trkpt>
<trkpt lat="47.605805" lon="10.587271"><ele>906.99</ele><time>2024-04-25T08:05:15Z</time></trkpt>
<trkpt lat="47.605604" lon="10.587145"><ele>905.07</ele><time>2024-04-25T08:05:19Z</time></trkpt>
<trkpt lat="47.605276" lon="10.587163"><ele>903.78</ele><time>2024-04-25T08:05:22Z</time></trkpt>
<trkpt lat="47.605177" lon="10.587119"><ele>903.4</ele><time>2024-04-25T08:05:26Z</time></trkpt>
<trkpt lat="47.604993" lon="10.586973"><ele>903.0</ele><time>2024-04-25T08:05:29Z</time></trkpt>
<trkpt lat="47.604736" lon="10.586644"><ele>903.0</ele><time>2024-04-25T08:05:33Z</time></trkpt>
<trkpt lat="47.604512" lon="10.586949"><ele>903.0</ele><time>2024-04-25T08:05:37Z</time></trkpt>
<trkpt lat="47.604437" lon="10.58702"><ele>903.0</ele><time>2024-04-25T08:05:42Z</time></trkpt>
<trkpt lat="47.604288" lon="10.587107"><ele>903.0</ele><time>2024-04-25T08:05:47Z</time></trkpt>
<trkpt lat="47.604096" lon="10.587134"><ele>902.41</ele><time>2024-04-25T08:05:51Z</time></trkpt>
<trkpt lat="47.603707" lon="10.58739"><ele>899.69</ele><time>2024-04-25T08:05:56Z</time></trkpt>
<trkpt lat="47.6036" lon="10.587399"><ele>898.97</ele><time>2024-04-25T08:06:00Z</time></trkpt>
<trkpt lat="47.6035" lon="10.587464"><ele>898.65</ele><time>2024-04-25T08:06:05Z</time></trkpt>
<trkpt lat="47.603441" lon="10.587568"><ele>898.24</ele><time>2024-04-25T08:06:10Z</time></trkpt>
<trkpt lat="47.603191" lon="10.587811"><ele>896.37</ele><time>2024-04-25T08:06:14Z</time></trkpt>
<trkpt lat="47.602853" lon="10.588191"><ele>894.27</ele><time>2024-04-25T08:06:19Z</time></trkpt>
<trkpt lat="47.602745" lon="10.58825"><ele>893.76</ele><time>2024-04-25T08:06:23Z</time></trkpt>
<trkpt lat="47.602642" lon="10.588274"><ele>893.02</ele><time>2024-04-25T08:06:28Z</time></trkpt>
<trkpt lat="47.602697" lon="10.588603"><ele>893.29</ele><time>2024-04-25T08:06:32Z</time></trkpt>
<trkpt lat="47.602766" lon="10.588899"><ele>892.06</ele><time>2024-04-25T08:06:36Z</time></trkpt>
<trkpt lat="47.6032" lon="10.5901"><ele>887.33</ele><time>2024-04-25T08:06:40Z</time></trkpt>
<trkpt lat="47.603477" lon="10.591444"><ele>883.32</ele><time>2024-04-25T08:06:45Z</time></trkpt>
<trkpt lat="47.603551" lon="10.591738"><ele>882.93</ele><time>2024-04-25T08:06:49Z</time></trkpt>
<trkpt lat="47.603831" lon="10.592349"><ele>886.01</ele><time>2024-04-25T08:06:53Z</time></trkpt>
<trkpt lat="47.604014" lon="10.592612"><ele>886.13</ele><time>2024-04-25T08:06:57Z</time></trkpt>
<trkpt lat="47.604156" lon="10.592773"><ele>885.05</ele><time>2024-04-25T08:07:01Z</time></trkpt>
<trkpt lat="47.604411" lon="10.59298"><ele>881.22</ele><time>2024-04-25T08:07:05Z</time></trkpt>
<trkpt lat="47.604799" lon="10.59316"><ele>877.96</ele><time>2024-04-25T08:07:09Z</time></trkpt>
<trkpt lat="47.606632" lon="10.593645"><ele>874.74</ele><time>2024-04-25T08:07:13Z</time></trkpt>
<trkpt lat="47.607033" lon="10.593842"><ele>874.49</ele><time>2024-04-25T08:07:17Z</time></trkpt>
<trkpt lat="47.607318" lon="10.594064"><ele>875.18</ele><time>2024-04-25T08:07:22Z</time></trkpt>
<trkpt lat="47.607545" lon="10.594311"><ele>875.96</ele><time>2024-04-25T08:07:26Z</time></trkpt>
<trkpt lat="47.607791" lon="10.594653"><ele>876.59</ele><time>2024-04-25T08:07:30Z</time></trkpt>
<trkpt lat="47.607948" lon="10.594921"><ele>875.24</ele><time>2024-04-25T08:07:34Z</time></trkpt>
<trkpt lat="47.608417" lon="10.595878"><ele>874.36</ele><time>2024-04-25T08:07:38Z</time></trkpt>
<trkpt lat="47.608974" lon="10.596683"><ele>869.54</ele><time>2024-04-25T08:07:42Z</time></trkpt>
<trkpt lat="47.60952" lon="10.597396"><ele>864.43</ele><time>2024-04-25T08:07:46Z</time></trkpt>
<trkpt lat="47.609864" lon="10.597985"><ele>859.13</ele><time>2024-04-25T08:07:50Z</time></trkpt>
<trkpt lat="47.610044" lon="10.598452"><ele>859.41</ele><time>2024-04-25T08:07:54Z</time></trkpt>
<trkpt lat="47.610155" lon="10.598928"><ele>858.2</ele><time>2024-04-25T08:07:58Z</time></trkpt>
<trkpt lat="47.61033" lon="10.600009"><ele>856.12</ele><time>2024-04-25T08:08:03Z</time></trkpt>
<trkpt lat="47.610364" lon="10.60014"><ele>855.15</ele><time>2024-04-25T08:08:07Z</time></trkpt>
<trkpt lat="47.610458" lon="10.600592"><ele>851.17</ele><time>2024-04-25T08:08:11Z</time></trkpt>
<trkpt lat="47.61056" lon="10.600942"><ele>849.64</ele><time>2024-04-25T08:08:15Z</time></trkpt>
<trkpt lat="47.61071" lon="10.60136"><ele>849.61</ele><time>2024-04-25T08:08:19Z</time></trkpt>
<trkpt lat="47.610873" lon="10.601741"><ele>848.96</ele><time>2024-04-25T08:08:23Z</time></trkpt>
<trkpt lat="47.611002" lon="10.601993"><ele>848.32</ele><time>2024-04-25T08:08:27Z</time></trkpt>
<trkpt lat="47.611266" lon="10.602424"><ele>846.71</ele><time>2024-04-25T08:08:31Z</time></trkpt>
<trkpt lat="47.611885" lon="10.603237"><ele>840.48</ele><time>2024-04-25T08:08:35Z</time></trkpt>
<trkpt lat="47.612002" lon="10.603471"><ele>840.21</ele><time>2024-04-25T08:08:40Z</time></trkpt>
<trkpt lat="47.612068" lon="10.603719"><ele>839.61</ele><time>2024-04-25T08:08:44Z</time></trkpt>
<trkpt lat="47.612082" lon="10.605173"><ele>834.57</ele><time>2024-04-25T08:08:48Z</time></trkpt>
<trkpt lat="47.612068" lon="10.605379"><ele>833.43</ele><time>2024-04-25T08:08:52Z</time></trkpt>
<trkpt lat="47.611989" lon="10.605883"><ele>830.82</ele><time>2024-04-25T08:08:56Z</time></trkpt>
<trkpt lat="47.611974" lon="10.60629"><ele>829.36</ele><time>2024-04-25T08:09:00Z</time></trkpt>
<trkpt lat="47.612002" lon="10.606643"><ele>827.9</ele><time>2024-04-25T08:09:04Z</time></trkpt>
<trkpt lat="47.612056" lon="10.607002"><ele>825.75</ele><time>2024-04-25T08:09:08Z</time></trkpt>
<trkpt lat="47.612186" lon="10.607443"><ele>824.84</ele><time>2024-04-25T08:09:12Z</time></trkpt>
<trkpt lat="47.612316" lon="10.607747"><ele>825.09</ele><time>2024-04-25T08:09:17Z</time></trkpt>
<trkpt lat="47.612469" lon="10.608036"><ele>823.98</ele><time>2024-04-25T08:09:21Z</time></trkpt>
<trkpt lat="47.613464" lon="10.609566"><ele>823.37</ele><time>2024-04-25T08:09:25Z</time></trkpt>
<trkpt lat="47.613782" lon="10.610167"><ele>819.64</ele><time>2024-04-25T08:09:29Z</time></trkpt>
<trkpt lat="47.613969" lon="10.610589"><ele>819.49</ele><time>2024-04-25T08:09:33Z</time></trkpt>
<trkpt lat="47.614462" lon="10.611914"><ele>817.05</ele><time>2024-04-25T08:09:37Z</time></trkpt>
<trkpt lat="47.614591" lon="10.612371"><ele>816.03</ele><time>2024-04-25T08:09:41Z</time></trkpt>
<trkpt lat="47.614722" lon="10.612949"><ele>815.38</ele><time>2024-04-25T08:09:45Z</time></trkpt>
<trkpt lat="47.614868" lon="10.613497"><ele>814.53</ele><time>2024-04-25T08:09:49Z</time></trkpt>
<trkpt lat="47.615256" lon="10.614736"><ele>809.32</ele><time>2024-04-25T08:09:54Z</time></trkpt>
<trkpt lat="47.615357" lon="10.614924"><ele>808.59</ele><time>2024-04-25T08:09:58Z</time></trkpt>
<trkpt lat="47.615474" lon="10.615072"><ele>807.59</ele><time>2024-04-25T08:10:02Z</time></trkpt>
<trkpt lat="47.615539" lon="10.615128"><ele>807.12</ele><time>2024-04-25T08:10:06Z</time></trkpt>
<trkpt lat="47.61571" lon="10.614709"><ele>809.07</ele><time>2024-04-25T08:10:10Z</time></trkpt>
<trkpt lat="47.615954" lon="10.61422"><ele>811.27</ele><time>2024-04-25T08:10:13Z</time></trkpt>
<trkpt lat="47.616492" lon="10.613414"><ele>815.71</ele><time>2024-04-25T08:10:17Z</time></trkpt>
<trkpt lat="47.616668" lon="10.613086"><ele>816.01</ele><time>2024-04-25T08:10:20Z</time></trkpt>
<trkpt lat="47.616801" lon="10.612778"><ele>816.48</ele><time>2024-04-25T08:10:24Z</time></trkpt>
<trkpt lat="47.616979" lon="10.612269"><ele>817.1</ele><time>2024-04-25T08:10:28Z</time></trkpt>
<trkpt lat="47.617207" lon="10.611372"><ele>821.01</ele><time>2024-04-25T08:10:31Z</time></trkpt>
<trkpt lat="47.617359" lon="10.610841"><ele>822.97</ele><time>2024-04-25T08:10:35Z</time></trkpt>
<trkpt lat="47.617501" lon="10.610431"><ele>821.55</ele><time>2024-04-25T08:10:39Z</time></trkpt>
<trkpt lat="47.617633" lon="10.610112"><ele>820.69</ele><time>2024-04-25T08:10:42Z</time></trkpt>
<trkpt lat="47.617867" lon="10.609715"><ele>821.34</ele><time>2024-04-25T08:10:46Z</time></trkpt>
<trkpt lat="47.618037" lon="10.60954"><ele>821.98</ele><time>2024-04-25T08:10:50Z</time></trkpt>
<trkpt lat="47.618144" lon="10.60946"><ele>821.68</ele><time>2024-04-25T08:10:53Z</time></trkpt>
<trkpt lat="47.618368" lon="10.609306"><ele>820.38</ele><time>2024-04-25T08:10:57Z</time></trkpt>
<trkpt lat="47.618728" lon="10.609175"><ele>819.97</ele><time>2024-04-25T08:11:01Z</time></trkpt>
<trkpt lat="47.618989" lon="10.609129"><ele>819.82</ele><time>2024-04-25T08:11:04Z</time></trkpt>
<trkpt lat="47.619726" lon="10.608887"><ele>817.02</ele><time>2024-04-25T08:11:08Z</time></trkpt>
<trkpt lat="47.620174" lon="10.608542"><ele>817.38</ele><time>2024-04-25T08:11:11Z</time></trkpt>
<trkpt lat="47.621055" lon="10.60779"><ele>817.36</ele><time>2024-04-25T08:11:15Z</time></trkpt>
<trkpt lat="47.621295" lon="10.607574"><ele>818.91</ele><time>2024-04-25T08:11:19Z</time></trkpt>
<trkpt lat="47.621771" lon="10.607247"><ele>818.48</ele><time>2024-04-25T08:11:22Z</time></trkpt>
<trkpt lat="47.622099" lon="10.607109"><ele>818.18</ele><time>2024-04-25T08:11:26Z</time></trkpt>
<trkpt lat="47.622344" lon="10.607036"><ele>817.85</ele><time>2024-04-25T08:11:30Z</time></trkpt>
<trkpt lat="47.622992" lon="10.606985"><ele>816.89</ele><time>2024-04-25T08:11:33Z</time></trkpt>
<trkpt lat="47.623244" lon="10.606936"><ele>817.05</ele><time>2024-04-25T08:11:37Z</time></trkpt>
<trkpt lat="47.623527" lon="10.606819"><ele>818.98</ele><time>2024-04-25T08:11:41Z</time></trkpt>
<trkpt lat="47.623822" lon="10.606627"><ele>821.55</ele><time>2024-04-25T08:11:44Z</time></trkpt>
<trkpt lat="47.624319" lon="10.606233"><ele>819.9</ele><time>2024-04-25T08:11:48Z</time></trkpt>
<trkpt lat="47.624593" lon="10.606055"><ele>819.09</ele><time>2024-04-25T08:11:52Z</time></trkpt>
<trkpt lat="47.625597" lon="10.605666"><ele>816.06</ele><time>2024-04-25T08:11:55Z</time></trkpt>
<trkpt lat="47.625926" lon="10.605491"><ele>816.49</ele><time>2024-04-25T08:11:59Z</time></trkpt>
<trkpt lat="47.626192" lon="10.605319"><ele>817.0</ele><time>2024-04-25T08:12:02Z</time></trkpt>
<trkpt lat="47.626477" lon="10.605092"><ele>817.46</ele><time>2024-04-25T08:12:06Z</time></trkpt>
<trkpt lat="47.626844" lon="10.604756"><ele>817.24</ele><time>2024-04-25T08:12:10Z</time></trkpt>
<trkpt lat="47.627209" lon="10.604344"><ele>818.77</ele><time>2024-04-25T08:12:13Z</time></trkpt>
<trkpt lat="47.630189" lon="10.600104"><ele>817.12</ele><time>2024-04-25T08:12:17Z</time></trkpt>
<trkpt lat="47.630494" lon="10.599748"><ele>817.65</ele><time>2024-04-25T08:12:21Z</time></trkpt>
<trkpt lat="47.631044" lon="10.599215"><ele>821.58</ele><time>2024-04-25T08:12:24Z</time></trkpt>
<trkpt lat="47.631195" lon="10.598983"><ele>821.09</ele><time>2024-04-25T08:12:28Z</time></trkpt>
<trkpt lat="47.631661" lon="10.598128"><ele>821.29</ele><time>2024-04-25T08:12:32Z</time></trkpt>
<trkpt lat="47.631792" lon="10.597983"><ele>821.5</ele><time>2024-04-25T08:12:35Z</time></trkpt>
<trkpt lat="47.631929" lon="10.597874"><ele>821.7</ele><time>2024-04-25T08:12:39Z</time></trkpt>
<trkpt lat="47.632041" lon="10.597818"><ele>821.83</ele><time>2024-04-25T08:12:43Z</time></trkpt>
<trkpt lat="47.632171" lon="10.597805"><ele>821.98</ele><time>2024-04-25T08:12:46Z</time></trkpt>
<trkpt lat="47.632393" lon="10.597851"><ele>823.4</ele><time>2024-04-25T08:12:50Z</time></trkpt>
<trkpt lat="47.632643" lon="10.59799"><ele>825.4</ele><time>2024-04-25T08:12:53Z</time></trkpt>
<trkpt lat="47.63281" lon="10.598123"><ele>826.14</ele><time>2024-04-25T08:12:57Z</time></trkpt>
<trkpt lat="47.633127" lon="10.598454"><ele>828.11</ele><time>2024-04-25T08:13:01Z</time></trkpt>
<trkpt lat="47.633367" lon="10.598015"><ele>826.87</ele><time>2024-04-25T08:13:09Z</time></trkpt>
<trkpt lat="47.634041" lon="10.596653"><ele>826.38</ele><time>2024-04-25T08:13:18Z</time></trkpt>
<trkpt lat="47.634729" lon="10.595056"><ele>827.76</ele><time>2024-04-25T08:13:27Z</time></trkpt>
<trkpt lat="47.635069" lon="10.594093"><ele>825.53</ele><time>2024-04-25T08:13:35Z</time></trkpt>
<trkpt lat="47.635253" lon="10.593803"><ele>827.65</ele><time>2024-04-25T08:13:44Z</time></trkpt>
<trkpt lat="47.635307" lon="10.593787"><ele>827.52</ele><time>2024-04-25T08:13:47Z</time></trkpt>
<trkpt lat="47.635351" lon="10.59374"><ele>827.54</ele><time>2024-04-25T08:13:50Z</time></trkpt>
<trkpt lat="47.635378" lon="10.593669"><ele>827.86</ele><time>2024-04-25T08:13:52Z</time></trkpt>
<trkpt lat="47.635381" lon="10.59356"><ele>828.51</ele><time>2024-04-25T08:13:55Z</time></trkpt>
<trkpt lat="47.635503" lon="10.593342"><ele>829.13</ele><time>2024-04-25T08:13:58Z</time></trkpt>
<trkpt lat="47.635566" lon="10.593261"><ele>829.26</ele><time>2024-04-25T08:14:01Z</time></trkpt>
<trkpt lat="47.635689" lon="10.593162"><ele>829.62</ele><time>2024-04-25T08:14:04Z</time></trkpt>
<trkpt lat="47.635947" lon="10.593018"><ele>829.23</ele><time>2024-04-25T08:14:07Z</time></trkpt>
<trkpt lat="47.636346" lon="10.592897"><ele>828.93</ele><time>2024-04-25T08:14:09Z</time></trkpt>
<trkpt lat="47.636777" lon="10.592816"><ele>830.57</ele><time>2024-04-25T08:14:12Z</time></trkpt>
<trkpt lat="47.637031" lon="10.592715"><ele>830.02</ele><time>2024-04-25T08:14:15Z</time></trkpt>
<trkpt lat="47.637322" lon="10.592544"><ele>829.62</ele><time>2024-04-25T08:14:18Z</time></trkpt>
<trkpt lat="47.637441" lon="10.592447"><ele>829.6</ele><time>2024-04-25T08:14:21Z</time></trkpt>
<trkpt lat="47.637704" lon="10.592163"><ele>829.58</ele><time>2024-04-25T08:14:24Z</time></trkpt>
<trkpt lat="47.63802" lon="10.591653"><ele>830.71</ele><time>2024-04-25T08:14:26Z</time></trkpt>
<trkpt lat="47.638173" lon="10.591287"><ele>831.48</ele><time>2024-04-25T08:14:29Z</time></trkpt>
<trkpt lat="47.638279" lon="10.590896"><ele>833.24</ele><time>2024-04-25T08:14:32Z</time></trkpt>
<trkpt lat="47.638343" lon="10.59057"><ele>834.14</ele><time>2024-04-25T08:14:35Z</time></trkpt>
<trkpt lat="47.638374" lon="10.590063"><ele>837.1</ele><time>2024-04-25T08:14:38Z</time></trkpt>
<trkpt lat="47.638364" lon="10.589615"><ele>837.07</ele><time>2024-04-25T08:14:41Z</time></trkpt>
<trkpt lat="47.638321" lon="10.588988"><ele>836.91</ele><time>2024-04-25T08:14:44Z</time></trkpt>
<trkpt lat="47.638322" lon="10.58839"><ele>836.95</ele><time>2024-04-25T08:14:46Z</time></trkpt>
<trkpt lat="47.638368" lon="10.588028"><ele>837.75</ele><time>2024-04-25T08:14:49Z</time></trkpt>
<trkpt lat="47.638432" lon="10.587672"><ele>836.8</ele><time>2024-04-25T08:14:52Z</time></trkpt>
<trkpt lat="47.638774" lon="10.586438"><ele>840.16</ele><time>2024-04-25T08:14:55Z</time></trkpt>
<trkpt lat="47.639181" lon="10.585365"><ele>840.98</ele><time>2024-04-25T08:14:58Z</time></trkpt>
<trkpt lat="47.639783" lon="10.584027"><ele>842.5</ele><time>2024-04-25T08:15:01Z</time></trkpt>
<trkpt lat="47.639914" lon="10.583813"><ele>844.01</ele><time>2024-04-25T08:15:03Z</time></trkpt>
<trkpt lat="47.64014" lon="10.583571"><ele>847.08</ele><time>2024-04-25T08:15:06Z</time></trkpt>
<trkpt lat="47.640341" lon="10.583416"><ele>848.87</ele><time>2024-04-25T08:15:09Z</time></trkpt>
<trkpt lat="47.640705" lon="10.583282"><ele>850.54</ele><time>2024-04-25T08:15:12Z</time></trkpt>
<trkpt lat="47.641069" lon="10.583234"><ele>848.47</ele><time>2024-04-25T08:15:15Z</time></trkpt>
<trkpt lat="47.641365" lon="10.583248"><ele>843.7</ele><time>2024-04-25T08:15:18Z</time></trkpt>
<trkpt lat="47.642131" lon="10.583469"><ele>841.84</ele><time>2024-04-25T08:15:20Z</time></trkpt>
<trkpt lat="47.64244" lon="10.583491"><ele>842.78</ele><time>2024-04-25T08:15:23Z</time></trkpt>
<trkpt lat="47.64273" lon="10.583447"><ele>843.34</ele><time>2024-04-25T08:15:26Z</time></trkpt>
<trkpt lat="47.643015" lon="10.583334"><ele>845.56</ele><time>2024-04-25T08:15:29Z</time></trkpt>
<trkpt lat="47.643319" lon="10.583162"><ele>851.28</ele><time>2024-04-25T08:15:32Z</time></trkpt>
<trkpt lat="47.643561" lon="10.582982"><ele>855.61</ele><time>2024-04-25T08:15:35Z</time></trkpt>
<trkpt lat="47.643804" lon="10.582767"><ele>858.99</ele><time>2024-04-25T08:15:37Z</time></trkpt>
<trkpt lat="47.644037" lon="10.582528"><ele>858.0</ele><time>2024-04-25T08:15:40Z</time></trkpt>
<trkpt lat="47.644206" lon="10.582318"><ele>855.72</ele><time>2024-04-25T08:15:43Z</time></trkpt>
<trkpt lat="47.644675" lon="10.581659"><ele>850.6</ele><time>2024-04-25T08:15:46Z</time></trkpt>
<trkpt lat="47.645105" lon="10.581134"><ele>850.33</ele><time>2024-04-25T08:15:49Z</time></trkpt>
<trkpt lat="47.645897" lon="10.580341"><ele>851.14</ele><time>2024-04-25T08:15:52Z</time></trkpt>
<trkpt lat="47.646188" lon="10.580082"><ele>854.21</ele><time>2024-04-25T08:15:55Z</time></trkpt>
<trkpt lat="47.647522" lon="10.579002"><ele>850.83</ele><time>2024-04-25T08:15:57Z</time></trkpt>
<trkpt lat="47.647759" lon="10.57873"><ele>851.22</ele><time>2024-04-25T08:16:00Z</time></trkpt>
<trkpt lat="47.648076" lon="10.578293"><ele>849.57</ele><time>2024-04-25T08:16:03Z</time></trkpt>
<trkpt lat="47.648547" lon="10.577705"><ele>845.2</ele><time>2024-04-25T08:16:06Z</time></trkpt>
<trkpt lat="47.648653" lon="10.57761"><ele>844.36</ele><time>2024-04-25T08:16:09Z</time></trkpt>
<trkpt lat="47.648843" lon="10.577514"><ele>843.3</ele><time>2024-04-25T08:16:12Z</time></trkpt>
<trkpt lat="47.649097" lon="10.577497"><ele>843.75</ele><time>2024-04-25T08:16:14Z</time></trkpt>
<trkpt lat="47.649274" lon="10.577537"><ele>844.39</ele><time>2024-04-25T08:16:17Z</time></trkpt>
<trkpt lat="47.649493" lon="10.577649"><ele>845.6</ele><time>2024-04-25T08:16:20Z</time></trkpt>
<trkpt lat="47.649748" lon="10.577747"><ele>846.58</ele><time>2024-04-25T08:16:23Z</time></trkpt>
<trkpt lat="47.649852" lon="10.577749"><ele>846.28</ele><time>2024-04-25T08:16:26Z</time></trkpt>
<trkpt lat="47.650417" lon="10.57765"><ele>843.04</ele><time>2024-04-25T08:16:29Z</time></trkpt>
<trkpt lat="47.650595" lon="10.57766"><ele>842.64</ele><time>2024-04-25T08:16:31Z</time></trkpt>
<trkpt lat="47.650691" lon="10.577686"><ele>842.83</ele><time>2024-04-25T08:16:34Z</time></trkpt>
<trkpt lat="47.650829" lon="10.577779"><ele>843.0</ele><time>2024-04-25T08:16:37Z</time></trkpt>
<trkpt lat="47.650926" lon="10.578012"><ele>843.89</ele><time>2024-04-25T08:16:40Z</time></trkpt>
<trkpt lat="47.65112" lon="10.578719"><ele>844.86</ele><time>2024-04-25T08:16:43Z</time></trkpt>
<trkpt lat="47.651212" lon="10.578948"><ele>843.27</ele><time>2024-04-25T08:16:46Z</time></trkpt>
<trkpt lat="47.651331" lon="10.579171"><ele>841.43</ele><time>2024-04-25T08:16:48Z</time></trkpt>
<trkpt lat="47.651387" lon="10.579273"><ele>841.39</ele><time>2024-04-25T08:16:51Z</time></trkpt>
<trkpt lat="47.651623" lon="10.579571"><ele>842.31</ele><time>2024-04-25T08:16:54Z</time></trkpt>
<trkpt lat="47.652362" lon="10.580319"><ele>841.0</ele><time>2024-04-25T08:16:57Z</time></trkpt>
<trkpt lat="47.652849" lon="10.580749"><ele>842.85</ele><time>2024-04-25T08:17:00Z</time></trkpt>
<trkpt lat="47.653065" lon="10.580075"><ele>843.38</ele><time>2024-04-25T08:17:03Z</time></trkpt>
<trkpt lat="47.653486" lon="10.579094"><ele>842.45</ele><time>2024-04-25T08:17:06Z</time></trkpt>
<trkpt lat="47.653705" lon="10.578516"><ele>839.98</ele><time>2024-04-25T08:17:10Z</time></trkpt>
<trkpt lat="47.653871" lon="10.57787"><ele>837.13</ele><time>2024-04-25T08:17:13Z</time></trkpt>
<trkpt lat="47.653955" lon="10.57732"><ele>837.72</ele><time>2024-04-25T08:17:16Z</time></trkpt>
<trkpt lat="47.653979" lon="10.576773"><ele>839.59</ele><time>2024-04-25T08:17:19Z</time></trkpt>
<trkpt lat="47.653969" lon="10.576257"><ele>840.34</ele><time>2024-04-25T08:17:23Z</time></trkpt>
<trkpt lat="47.653945" lon="10.575869"><ele>841.3</ele><time>2024-04-25T08:17:26Z</time></trkpt>
<trkpt lat="47.653851" lon="10.575115"><ele>841.45</ele><time>2024-04-25T08:17:29Z</time></trkpt>
<trkpt lat="47.653691" lon="10.574318"><ele>844.51</ele><time>2024-04-25T08:17:32Z</time></trkpt>
<trkpt lat="47.653055" lon="10.571732"><ele>842.24</ele><time>2024-04-25T08:17:36Z</time></trkpt>
<trkpt lat="47.65325" lon="10.571511"><ele>842.31</ele><time>2024-04-25T08:17:43Z</time></trkpt>
<trkpt lat="47.653798" lon="10.570254"><ele>842.37</ele><time>2024-04-25T08:17:50Z</time></trkpt>
<trkpt lat="47.65416" lon="10.569612"><ele>843.58</ele><time>2024-04-25T08:17:57Z</time></trkpt>
<trkpt lat="47.654667" lon="10.568873"><ele>849.01</ele><time>2024-04-25T08:18:04Z</time></trkpt>
<trkpt lat="47.655256" lon="10.568081"><ele>838.67</ele><time>2024-04-25T08:18:12Z</time></trkpt>
<trkpt lat="47.655447" lon="10.567761"><ele>838.26</ele><time>2024-04-25T08:18:19Z</time></trkpt>
<trkpt lat="47.655595" lon="10.567458"><ele>840.4</ele><time>2024-04-25T08:18:26Z</time></trkpt>
<trkpt lat="47.65583" lon="10.566785"><ele>840.99</ele><time>2024-04-25T08:18:33Z</time></trkpt>
<trkpt lat="47.656025" lon="10.565708"><ele>845.69</ele><time>2024-04-25T08:18:41Z</time></trkpt>
<trkpt lat="47.656048" lon="10.564428"><ele>846.38</ele><time>2024-04-25T08:18:48Z</time></trkpt>
<trkpt lat="47.656027" lon="10.563742"><ele>847.46</ele><time>2024-04-25T08:18:55Z</time></trkpt>
<trkpt lat="47.655997" lon="10.563457"><ele>848.36</ele><time>2024-04-25T08:19:02Z</time></trkpt>
<trkpt lat="47.655951" lon="10.563211"><ele>849.79</ele><time>2024-04-25T08:19:09Z</time></trkpt>
<trkpt lat="47.655686" lon="10.56232"><ele>852.82</ele><time>2024-04-25T08:19:17Z</time></trkpt>
<trkpt lat="47.655788" lon="10.562184"><ele>852.7</ele><time>2024-04-25T08:19:21Z</time></trkpt>
<trkpt lat="47.656254" lon="10.561978"><ele>852.48</ele><time>2024-04-25T08:19:25Z</time></trkpt>
<trkpt lat="47.656395" lon="10.562021"><ele>851.96</ele><time>2024-04-25T08:19:29Z</time></trkpt>
<trkpt lat="47.656602" lon="10.562024"><ele>850.47</ele><time>2024-04-25T08:19:33Z</time></trkpt>
<trkpt lat="47.656808" lon="10.561951"><ele>848.98</ele><time>2024-04-25T08:19:37Z</time></trkpt>
<trkpt lat="47.656972" lon="10.561836"><ele>848.29</ele><time>2024-04-25T08:19:41Z</time></trkpt>
<trkpt lat="47.6571" lon="10.561701"><ele>848.31</ele><time>2024-04-25T08:19:45Z</time></trkpt>
<trkpt lat="47.657366" lon="10.561268"><ele>850.43</ele><time>2024-04-25T08:19:49Z</time></trkpt>
<trkpt lat="47.657527" lon="10.561052"><ele>851.09</ele><time>2024-04-25T08:19:53Z</time></trkpt>
<trkpt lat="47.657658" lon="10.560927"><ele>850.72</ele><time>2024-04-25T08:19:57Z</time></trkpt>
<trkpt lat="47.658654" lon="10.560082"><ele>851.65</ele><time>2024-04-25T08:20:01Z</time></trkpt>
<trkpt lat="47.659091" lon="10.559734"><ele>853.79</ele><time>2024-04-25T08:20:05Z</time></trkpt>
<trkpt lat="47.659323" lon="10.559605"><ele>856.16</ele><time>2024-04-25T08:20:09Z</time></trkpt>
<trkpt lat="47.659548" lon="10.55951"><ele>859.12</ele><time>2024-04-25T08:20:13Z</time></trkpt>
<trkpt lat="47.659683" lon="10.559516"><ele>859.76</ele><time>2024-04-25T08:20:17Z</time></trkpt>
<trkpt lat="47.660239" lon="10.559683"><ele>853.82</ele><time>2024-04-25T08:20:21Z</time></trkpt>
<trkpt lat="47.66058" lon="10.559698"><ele>853.62</ele><time>2024-04-25T08:20:25Z</time></trkpt>
<trkpt lat="47.660865" lon="10.559616"><ele>856.1</ele><time>2024-04-25T08:20:29Z</time></trkpt>
<trkpt lat="47.660985" lon="10.559549"><ele>856.52</ele><time>2024-04-25T08:20:33Z</time></trkpt>
<trkpt lat="47.661467" lon="10.559149"><ele>856.5</ele><time>2024-04-25T08:20:37Z</time></trkpt>
<trkpt lat="47.661607" lon="10.559108"><ele>855.64</ele><time>2024-04-25T08:20:41Z</time></trkpt>
<trkpt lat="47.66174" lon="10.559118"><ele>855.17</ele><time>2024-04-25T08:20:45Z</time></trkpt>
<trkpt lat="47.66229" lon="10.559268"><ele>856.0</ele><time>2024-04-25T08:20:49Z</time></trkpt>
<trkpt lat="47.663073" lon="10.559591"><ele>855.32</ele><time>2024-04-25T08:20:53Z</time></trkpt>
<trkpt lat="47.663644" lon="10.559889"><ele>850.89</ele><time>2024-04-25T08:20:57Z</time></trkpt>
<trkpt lat="47.664408" lon="10.55971"><ele>851.22</ele><time>2024-04-25T08:21:01Z</time></trkpt>
<trkpt lat="47.664722" lon="10.559686"><ele>850.26</ele><time>2024-04-25T08:21:05Z</time></trkpt>
<trkpt lat="47.664995" lon="10.559591"><ele>850.48</ele><time>2024-04-25T08:21:09Z</time></trkpt>
<trkpt lat="47.66519" lon="10.559477"><ele>849.51</ele><time>2024-04-25T08:21:13Z</time></trkpt>
<trkpt lat="47.66531" lon="10.559366"><ele>848.8</ele><time>2024-04-25T08:21:17Z</time></trkpt>
<trkpt lat="47.66547" lon="10.559164"><ele>848.31</ele><time>2024-04-25T08:21:21Z</time></trkpt>
<trkpt lat="47.665907" lon="10.558728"><ele>849.03</ele><time>2024-04-25T08:21:25Z</time></trkpt>
<trkpt lat="47.665907" lon="10.558728"><ele>849.03</ele><time>2024-04-25T08:21:25Z</time></trkpt>
<trkpt lat="47.66594" lon="10.558696"><ele>849.74</ele><time>2024-04-25T08:21:29Z</time></trkpt>
<trkpt lat="47.666539" lon="10.558115"><ele>849.0</ele><time>2024-04-25T08:21:33Z</time></trkpt>
<trkpt lat="47.66673" lon="10.557797"><ele>849.23</ele><time>2024-04-25T08:21:38Z</time></trkpt>
<trkpt lat="47.666814" lon="10.557688"><ele>849.68</ele><time>2024-04-25T08:21:42Z</time></trkpt>
<trkpt lat="47.667465" lon="10.557064"><ele>854.52</ele><time>2024-04-25T08:21:46Z</time></trkpt>
<trkpt lat="47.668445" lon="10.556237"><ele>857.0</ele><time>2024-04-25T08:21:50Z</time></trkpt>
<trkpt lat="47.668557" lon="10.556154"><ele>857.0</ele><time>2024-04-25T08:21:54Z</time></trkpt>
<trkpt lat="47.668772" lon="10.556082"><ele>855.74</ele><time>2024-04-25T08:21:58Z</time></trkpt>
<trkpt lat="47.668875" lon="10.556081"><ele>854.99</ele><time>2024-04-25T08:22:03Z</time></trkpt>
<trkpt lat="47.668993" lon="10.556109"><ele>854.25</ele><time>2024-04-25T08:22:07Z</time></trkpt>
<trkpt lat="47.669139" lon="10.556207"><ele>853.2</ele><time>2024-04-25T08:22:11Z</time></trkpt>
<trkpt lat="47.669375" lon="10.556423"><ele>852.91</ele><time>2024-04-25T08:22:15Z</time></trkpt>
<trkpt lat="47.669581" lon="10.556508"><ele>852.57</ele><time>2024-04-25T08:22:19Z</time></trkpt>
<trkpt lat="47.66971" lon="10.556488"><ele>852.64</ele><time>2024-04-25T08:22:24Z</time></trkpt>
<trkpt lat="47.669972" lon="10.556293"><ele>850.95</ele><time>2024-04-25T08:22:28Z</time></trkpt>
<trkpt lat="47.670976" lon="10.555372"><ele>846.51</ele><time>2024-04-25T08:22:32Z</time></trkpt>
<trkpt lat="47.671283" lon="10.555116"><ele>847.32</ele><time>2024-04-25T08:22:36Z</time></trkpt>
<trkpt lat="47.671699" lon="10.554935"><ele>848.44</ele><time>2024-04-25T08:22:40Z</time></trkpt>
<trkpt lat="47.672553" lon="10.554757"><ele>848.9</ele><time>2024-04-25T08:22:45Z</time></trkpt>
<trkpt lat="47.673241" lon="10.554655"><ele>849.76</ele><time>2024-04-25T08:22:49Z</time></trkpt>
<trkpt lat="47.673375" lon="10.554676"><ele>849.71</ele><time>2024-04-25T08:22:53Z</time></trkpt>
<trkpt lat="47.673496" lon="10.554723"><ele>849.42</ele><time>2024-04-25T08:22:57Z</time></trkpt>
<trkpt lat="47.673599" lon="10.554804"><ele>849.33</ele><time>2024-04-25T08:23:01Z</time></trkpt>
<trkpt lat="47.673895" lon="10.555176"><ele>850.66</ele><time>2024-04-25T08:23:06Z</time></trkpt>
<trkpt lat="47.674115" lon="10.555319"><ele>851.84</ele><time>2024-04-25T08:23:10Z</time></trkpt>
<trkpt lat="47.674288" lon="10.555564"><ele>851.98</ele><time>2024-04-25T08:23:14Z</time></trkpt>
<trkpt lat="47.674244" lon="10.555713"><ele>851.59</ele><time>2024-04-25T08:23:19Z</time></trkpt>
<trkpt lat="47.674238" lon="10.555829"><ele>851.27</ele><time>2024-04-25T08:23:25Z</time></trkpt>
<trkpt lat="47.674252" lon="10.555999"><ele>850.71</ele><time>2024-04-25T08:23:30Z</time></trkpt>
<trkpt lat="47.674455" lon="10.556947"><ele>849.04</ele><time>2024-04-25T08:23:36Z</time></trkpt>
<trkpt lat="47.674579" lon="10.557684"><ele>851.17</ele><time>2024-04-25T08:23:41Z</time></trkpt>
<trkpt lat="47.674605" lon="10.559601"><ele>851.73</ele><time>2024-04-25T08:23:46Z</time></trkpt>
<trkpt lat="47.674633" lon="10.560047"><ele>852.91</ele><time>2024-04-25T08:23:52Z</time></trkpt>
<trkpt lat="47.674694" lon="10.560491"><ele>852.97</ele><time>2024-04-25T08:23:57Z</time></trkpt>
<trkpt lat="47.674761" lon="10.5607"><ele>852.79</ele><time>2024-04-25T08:24:03Z</time></trkpt>
<trkpt lat="47.674898" lon="10.561018"><ele>852.61</ele><time>2024-04-25T08:24:08Z</time></trkpt>
<trkpt lat="47.675333" lon="10.561779"><ele>853.8</ele><time>2024-04-25T08:24:14Z</time></trkpt>
<trkpt lat="47.676557" lon="10.564295"><ele>851.0</ele><time>2024-04-25T08:24:19Z</time></trkpt>
<trkpt lat="47.676922" lon="10.564968"><ele>852.8</ele><time>2024-04-25T08:24:24Z</time></trkpt>
<trkpt lat="47.677023" lon="10.565224"><ele>853.28</ele><time>2024-04-25T08:24:30Z</time></trkpt>
<trkpt lat="47.677122" lon="10.565609"><ele>853.45</ele><time>2024-04-25T08:24:35Z</time></trkpt>
<trkpt lat="47.677173" lon="10.565958"><ele>852.74</ele><time>2024-04-25T08:24:41Z</time></trkpt>
<trkpt lat="47.677177" lon="10.566166"><ele>852.51</ele><time>2024-04-25T08:24:46Z</time></trkpt>
<trkpt lat="47.677123" lon="10.566917"><ele>852.29</ele><time>2024-04-25T08:24:51Z</time></trkpt>
<trkpt lat="47.677181" lon="10.567545"><ele>853.85</ele><time>2024-04-25T08:24:57Z</time></trkpt>
<trkpt lat="47.677177" lon="10.567735"><ele>853.84</ele><time>2024-04-25T08:25:02Z</time></trkpt>
<trkpt lat="47.677142" lon="10.56799"><ele>854.25</ele><time>2024-04-25T08:25:08Z</time></trkpt>
<trkpt lat="47.677126" lon="10.568255"><ele>854.77</ele><time>2024-04-25T08:25:13Z</time></trkpt>
<trkpt lat="47.677163" lon="10.569077"><ele>854.04</ele><time>2024-04-25T08:25:19Z</time></trkpt>
<trkpt lat="47.677107" lon="10.569505"><ele>853.04</ele><time>2024-04-25T08:25:24Z</time></trkpt>
<trkpt lat="47.676839" lon="10.570974"><ele>850.51</ele><time>2024-04-25T08:25:29Z</time></trkpt>
<trkpt lat="47.676837" lon="10.571088"><ele>850.92</ele><time>2024-04-25T08:25:35Z</time></trkpt>
<trkpt lat="47.676879" lon="10.571294"><ele>851.66</ele><time>2024-04-25T08:25:40Z</time></trkpt>
<trkpt lat="47.677258" lon="10.571993"><ele>853.81</ele><time>2024-04-25T08:25:46Z</time></trkpt>
<trkpt lat="47.677506" lon="10.572403"><ele>858.91</ele><time>2024-04-25T08:25:51Z</time></trkpt>
<trkpt lat="47.678218" lon="10.573284"><ele>863.64</ele><time>2024-04-25T08:25:56Z</time></trkpt>
<trkpt lat="47.678813" lon="10.573901"><ele>849.43</ele><time>2024-04-25T08:26:02Z</time></trkpt>
<trkpt lat="47.679255" lon="10.574311"><ele>845.45</ele><time>2024-04-25T08:26:07Z</time></trkpt>
<trkpt lat="47.679572" lon="10.574558"><ele>843.89</ele><time>2024-04-25T08:26:13Z</time></trkpt>
<trkpt lat="47.680195" lon="10.574944"><ele>840.36</ele><time>2024-04-25T08:26:18Z</time></trkpt>
<trkpt lat="47.680601" lon="10.575328"><ele>840.0</ele><time>2024-04-25T08:26:24Z</time></trkpt>
<trkpt lat="47.680924" lon="10.575762"><ele>838.52</ele><time>2024-04-25T08:26:29Z</time></trkpt>
<trkpt lat="47.681336" lon="10.576388"><ele>841.61</ele><time>2024-04-25T08:26:34Z</time></trkpt>
<trkpt lat="47.681744" lon="10.576844"><ele>846.08</ele><time>2024-04-25T08:26:40Z</time></trkpt>
<trkpt lat="47.682357" lon="10.577483"><ele>841.54</ele><time>2024-04-25T08:26:45Z</time></trkpt>
<trkpt lat="47.682903" lon="10.578254"><ele>835.61</ele><time>2024-04-25T08:26:51Z</time></trkpt>
<trkpt lat="47.683445" lon="10.579109"><ele>842.53</ele><time>2024-04-25T08:26:56Z</time></trkpt>
<trkpt lat="47.683724" lon="10.579513"><ele>844.9</ele><time>2024-04-25T08:27:02Z</time></trkpt>
<trkpt lat="47.684444" lon="10.580394"><ele>836.59</ele><time>2024-04-25T08:27:07Z</time></trkpt>
<trkpt lat="47.684718" lon="10.58066"><ele>834.65</ele><time>2024-04-25T08:27:12Z</time></trkpt>
<trkpt lat="47.685009" lon="10.580793"><ele>831.34</ele><time>2024-04-25T08:27:18Z</time></trkpt>
<trkpt lat="47.685335" lon="10.580859"><ele>828.64</ele><time>2024-04-25T08:27:23Z</time></trkpt>
<trkpt lat="47.685938" lon="10.580866"><ele>835.44</ele><time>2024-04-25T08:27:29Z</time></trkpt>
<trkpt lat="47.686288" lon="10.580916"><ele>836.41</ele><time>2024-04-25T08:27:34Z</time></trkpt>
<trkpt lat="47.686617" lon="10.581037"><ele>834.11</ele><time>2024-04-25T08:27:39Z</time></trkpt>
<trkpt lat="47.686816" lon="10.581164"><ele>830.75</ele><time>2024-04-25T08:27:45Z</time></trkpt>
<trkpt lat="47.687093" lon="10.581412"><ele>827.93</ele><time>2024-04-25T08:27:50Z</time></trkpt>
<trkpt lat="47.687711" lon="10.582173"><ele>825.67</ele><time>2024-04-25T08:27:56Z</time></trkpt>
<trkpt lat="47.688098" lon="10.582526"><ele>825.84</ele><time>2024-04-25T08:28:01Z</time></trkpt>
<trkpt lat="47.688505" lon="10.582716"><ele>825.62</ele><time>2024-04-25T08:28:07Z</time></trkpt>
<trkpt lat="47.688997" lon="10.582823"><ele>824.94</ele><time>2024-04-25T08:28:12Z</time></trkpt>
<trkpt lat="47.689712" lon="10.582749"><ele>823.24</ele><time>2024-04-25T08:28:17Z</time></trkpt>
<trkpt lat="47.690288" lon="10.582585"><ele>823.95</ele><time>2024-04-25T08:28:23Z</time></trkpt>
<trkpt lat="47.690671" lon="10.582579"><ele>823.13</ele><time>2024-04-25T08:28:28Z</time></trkpt>
<trkpt lat="47.690965" lon="10.582674"><ele>823.2</ele><time>2024-04-25T08:28:34Z</time></trkpt>
<trkpt lat="47.691187" lon="10.582804"><ele>822.39</ele><time>2024-04-25T08:28:39Z</time></trkpt>
<trkpt lat="47.691468" lon="10.583032"><ele>820.74</ele><time>2024-04-25T08:28:44Z</time></trkpt>
<trkpt lat="47.691765" lon="10.583354"><ele>819.0</ele><time>2024-04-25T08:28:50Z</time></trkpt>
<trkpt lat="47.692135" lon="10.584076"><ele>819.0</ele><time>2024-04-25T08:28:55Z</time></trkpt>
<trkpt lat="47.692702" lon="10.585965"><ele>819.0</ele><time>2024-04-25T08:29:01Z</time></trkpt>
<trkpt lat="47.69286" lon="10.586322"><ele>819.29</ele><time>2024-04-25T08:29:06Z</time></trkpt>
<trkpt lat="47.692961" lon="10.586481"><ele>819.33</ele><time>2024-04-25T08:29:12Z</time></trkpt>
<trkpt lat="47.693257" lon="10.586857"><ele>819.27</ele><time>2024-04-25T08:29:17Z</time></trkpt>
<trkpt lat="47.69346" lon="10.587015"><ele>819.34</ele><time>2024-04-25T08:29:22Z</time></trkpt>
<trkpt lat="47.693907" lon="10.587241"><ele>818.0</ele><time>2024-04-25T08:29:28Z</time></trkpt>
<trkpt lat="47.694514" lon="10.58737"><ele>816.16</ele><time>2024-04-25T08:29:33Z</time></trkpt>
<trkpt lat="47.695338" lon="10.587427"><ele>812.78</ele><time>2024-04-25T08:29:39Z</time></trkpt>
<trkpt lat="47.695987" lon="10.587607"><ele>811.38</ele><time>2024-04-25T08:29:44Z</time></trkpt>
<trkpt lat="47.69613" lon="10.587676"><ele>811.63</ele><time>2024-04-25T08:29:50Z</time></trkpt>
<trkpt lat="47.696464" lon="10.587772"><ele>811.72</ele><time>2024-04-25T08:29:55Z</time></trkpt>
<trkpt lat="47.69659" lon="10.587869"><ele>811.28</ele><time>2024-04-25T08:30:00Z</time></trkpt>
<trkpt lat="47.696745" lon="10.588028"><ele>811.0</ele><time>2024-04-25T08:30:06Z</time></trkpt>
<trkpt lat="47.696817" lon="10.588328"><ele>811.53</ele><time>2024-04-25T08:30:11Z</time></trkpt>
<trkpt lat="47.696978" lon="10.588322"><ele>811.96</ele><time>2024-04-25T08:30:13Z</time></trkpt>
<trkpt lat="47.697116" lon="10.588248"><ele>811.88</ele><time>2024-04-25T08:30:14Z</time></trkpt>
<trkpt lat="47.697469" lon="10.588"><ele>812.69</ele><time>2024-04-25T08:30:15Z</time></trkpt>
<trkpt lat="47.697505" lon="10.587955"><ele>812.64</ele><time>2024-04-25T08:30:17Z</time></trkpt>
<trkpt lat="47.697545" lon="10.587842"><ele>812.23</ele><time>2024-04-25T08:30:18Z</time></trkpt>
<trkpt lat="47.697554" lon="10.587726"><ele>811.85</ele><time>2024-04-25T08:30:20Z</time></trkpt>
<trkpt lat="47.697523" lon="10.587592"><ele>811.38</ele><time>2024-04-25T08:30:21Z</time></trkpt>
<trkpt lat="47.697521" lon="10.587423"><ele>811.05</ele><time>2024-04-25T08:30:23Z</time></trkpt>
<trkpt lat="47.698158" lon="10.586941"><ele>810.64</ele><time>2024-04-25T08:30:25Z</time></trkpt>
<trkpt lat="47.698217" lon="10.586847"><ele>810.57</ele><time>2024-04-25T08:30:28Z</time></trkpt>
<trkpt lat="47.69825" lon="10.586706"><ele>810.56</ele><time>2024-04-25T08:30:31Z</time></trkpt>
<trkpt lat="47.6982" lon="10.586025"><ele>810.81</ele><time>2024-04-25T08:30:34Z</time></trkpt>
<trkpt lat="47.698218" lon="10.585671"><ele>810.17</ele><time>2024-04-25T08:30:36Z</time></trkpt>
<trkpt lat="47.69832" lon="10.584864"><ele>810.49</ele><time>2024-04-25T08:30:39Z</time></trkpt>
<trkpt lat="47.698397" lon="10.584418"><ele>812.0</ele><time>2024-04-25T08:30:42Z</time></trkpt>
<trkpt lat="47.698523" lon="10.584086"><ele>812.2</ele><time>2024-04-25T08:30:45Z</time></trkpt>
<trkpt lat="47.698822" lon="10.583561"><ele>812.1</ele><time>2024-04-25T08:30:47Z</time></trkpt>
<trkpt lat="47.699185" lon="10.582595"><ele>814.17</ele><time>2024-04-25T08:30:50Z</time></trkpt>
<trkpt lat="47.699551" lon="10.581901"><ele>818.63</ele><time>2024-04-25T08:30:53Z</time></trkpt>
<trkpt lat="47.699753" lon="10.58142"><ele>820.12</ele><time>2024-04-25T08:30:55Z</time></trkpt>
<trkpt lat="47.700025" lon="10.580705"><ele>819.82</ele><time>2024-04-25T08:30:58Z</time></trkpt>
<trkpt lat="47.700124" lon="10.580332"><ele>824.64</ele><time>2024-04-25T08:31:01Z</time></trkpt>
<trkpt lat="47.700199" lon="10.579406"><ele>831.96</ele><time>2024-04-25T08:31:04Z</time></trkpt>
<trkpt lat="47.700257" lon="10.579076"><ele>833.3</ele><time>2024-04-25T08:31:06Z</time></trkpt>
<trkpt lat="47.700315" lon="10.578841"><ele>833.32</ele><time>2024-04-25T08:31:09Z</time></trkpt>
<trkpt lat="47.700373" lon="10.5787"><ele>833.35</ele><time>2024-04-25T08:31:12Z</time></trkpt>
<trkpt lat="47.700596" lon="10.578347"><ele>830.81</ele><time>2024-04-25T08:31:15Z</time></trkpt>
<trkpt lat="47.700734" lon="10.578058"><ele>828.09</ele><time>2024-04-25T08:31:17Z</time></trkpt>
<trkpt lat="47.70092" lon="10.577528"><ele>830.49</ele><time>2024-04-25T08:31:20Z</time></trkpt>
<trkpt lat="47.701044" lon="10.577108"><ele>832.46</ele><time>2024-04-25T08:31:23Z</time></trkpt>
<trkpt lat="47.701125" lon="10.576748"><ele>832.4</ele><time>2024-04-25T08:31:26Z</time></trkpt>
<trkpt lat="47.701193" lon="10.576173"><ele>831.15</ele><time>2024-04-25T08:31:28Z</time></trkpt>
<trkpt lat="47.701259" lon="10.575321"><ele>825.03</ele><time>2024-04-25T08:31:31Z</time></trkpt>
<trkpt lat="47.701314" lon="10.574854"><ele>827.77</ele><time>2024-04-25T08:31:34Z</time></trkpt>
<trkpt lat="47.701423" lon="10.574516"><ele>831.67</ele><time>2024-04-25T08:31:36Z</time></trkpt>
<trkpt lat="47.701476" lon="10.574421"><ele>832.21</ele><time>2024-04-25T08:31:39Z</time></trkpt>
<trkpt lat="47.701619" lon="10.574288"><ele>830.34</ele><time>2024-04-25T08:31:42Z</time></trkpt>
<trkpt lat="47.702978" lon="10.573391"><ele>819.48</ele><time>2024-04-25T08:31:45Z</time></trkpt>
<trkpt lat="47.704219" lon="10.572376"><ele>810.36</ele><time>2024-04-25T08:31:47Z</time></trkpt>
<trkpt lat="47.704394" lon="10.572148"><ele>810.49</ele><time>2024-04-25T08:31:50Z</time></trkpt>
<trkpt lat="47.704706" lon="10.57157"><ele>813.45</ele><time>2024-04-25T08:31:53Z</time></trkpt>
<trkpt lat="47.705216" lon="10.57069"><ele>817.14</ele><time>2024-04-25T08:31:56Z</time></trkpt>
<trkpt lat="47.705362" lon="10.570497"><ele>818.51</ele><time>2024-04-25T08:31:58Z</time></trkpt>
<trkpt lat="47.705496" lon="10.570383"><ele>819.41</ele><time>2024-04-25T08:32:01Z</time></trkpt>
<trkpt lat="47.705299" lon="10.569603"><ele>822.28</ele><time>2024-04-25T08:32:25Z</time></trkpt>
<trkpt lat="47.705239" lon="10.569611"><ele>822.46</ele><time>2024-04-25T08:32:29Z</time></trkpt>
<trkpt lat="47.705185" lon="10.569578"><ele>822.69</ele><time>2024-04-25T08:32:34Z</time></trkpt>
<trkpt lat="47.705079" lon="10.569438"><ele>823.76</ele><time>2024-04-25T08:32:39Z</time></trkpt>
<trkpt lat="47.704934" lon="10.569324"><ele>825.01</ele><time>2024-04-25T08:32:43Z</time></trkpt>
<trkpt lat="47.704732" lon="10.56926"><ele>825.65</ele><time>2024-04-25T08:32:48Z</time></trkpt>
<trkpt lat="47.704608" lon="10.569258"><ele>826.36</ele><time>2024-04-25T08:32:53Z</time></trkpt>
<trkpt lat="47.704249" lon="10.569372"><ele>826.86</ele><time>2024-04-25T08:32:57Z</time></trkpt>
<trkpt lat="47.704066" lon="10.569483"><ele>826.86</ele><time>2024-04-25T08:33:02Z</time></trkpt>
<trkpt lat="47.703938" lon="10.569529"><ele>826.7</ele><time>2024-04-25T08:33:07Z</time></trkpt>
<trkpt lat="47.703234" lon="10.569622"><ele>825.13</ele><time>2024-04-25T08:33:11Z</time></trkpt>
<trkpt lat="47.702557" lon="10.569877"><ele>824.79</ele><time>2024-04-25T08:33:16Z</time></trkpt>
<trkpt lat="47.702302" lon="10.569932"><ele>826.78</ele><time>2024-04-25T08:33:21Z</time></trkpt>
<trkpt lat="47.702109" lon="10.569911"><ele>828.59</ele><time>2024-04-25T08:33:25Z</time></trkpt>
<trkpt lat="47.701488" lon="10.569712"><ele>831.79</ele><time>2024-04-25T08:33:30Z</time></trkpt>
<trkpt lat="47.701169" lon="10.569532"><ele>831.04</ele><time>2024-04-25T08:33:35Z</time></trkpt>
<trkpt lat="47.699892" lon="10.568305"><ele>832.49</ele><time>2024-04-25T08:33:39Z</time></trkpt>
<trkpt lat="47.69975" lon="10.5682"><ele>833.38</ele><time>2024-04-25T08:33:44Z</time></trkpt>
<trkpt lat="47.698943" lon="10.567976"><ele>837.67</ele><time>2024-04-25T08:33:49Z</time></trkpt>
<trkpt lat="47.698465" lon="10.567894"><ele>838.78</ele><time>2024-04-25T08:33:53Z</time></trkpt>
<trkpt lat="47.698417" lon="10.566262"><ele>834.86</ele><time>2024-04-25T08:33:57Z</time></trkpt>
<trkpt lat="47.698366" lon="10.56585"><ele>834.05</ele><time>2024-04-25T08:34:01Z</time></trkpt>
<trkpt lat="47.698262" lon="10.5653"><ele>833.49</ele><time>2024-04-25T08:34:04Z</time></trkpt>
<trkpt lat="47.698123" lon="10.564694"><ele>836.88</ele><time>2024-04-25T08:34:08Z</time></trkpt>
<trkpt lat="47.698047" lon="10.564488"><ele>837.76</ele><time>2024-04-25T08:34:12Z</time></trkpt>
<trkpt lat="47.697892" lon="10.564175"><ele>836.23</ele><time>2024-04-25T08:34:15Z</time></trkpt>
<trkpt lat="47.697658" lon="10.563763"><ele>835.42</ele><time>2024-04-25T08:34:19Z</time></trkpt>
<trkpt lat="47.697407" lon="10.563543"><ele>834.24</ele><time>2024-04-25T08:34:23Z</time></trkpt>
<trkpt lat="47.697255" lon="10.563329"><ele>836.01</ele><time>2024-04-25T08:34:26Z</time></trkpt>
<trkpt lat="47.697192" lon="10.563138"><ele>836.89</ele><time>2024-04-25T08:34:30Z</time></trkpt>
<trkpt lat="47.697149" lon="10.562718"><ele>837.53</ele><time>2024-04-25T08:34:34Z</time></trkpt>
<trkpt lat="47.697137" lon="10.562466"><ele>837.65</ele><time>2024-04-25T08:34:37Z</time></trkpt>
<trkpt lat="47.697178" lon="10.562196"><ele>837.55</ele><time>2024-04-25T08:34:41Z</time></trkpt>
<trkpt lat="47.697177" lon="10.561936"><ele>838.32</ele><time>2024-04-25T08:34:45Z</time></trkpt>
<trkpt lat="47.697133" lon="10.561778"><ele>838.64</ele><time>2024-04-25T08:34:48Z</time></trkpt>
<trkpt lat="47.697039" lon="10.561625"><ele>839.32</ele><time>2024-04-25T08:34:52Z</time></trkpt>
<trkpt lat="47.696523" lon="10.561125"><ele>844.06</ele><time>2024-04-25T08:34:55Z</time></trkpt>
<trkpt lat="47.696007" lon="10.560701"><ele>845.82</ele><time>2024-04-25T08:34:59Z</time></trkpt>
<trkpt lat="47.695869" lon="10.560567"><ele>845.16</ele><time>2024-04-25T08:35:03Z</time></trkpt>
<trkpt lat="47.695729" lon="10.560272"><ele>842.96</ele><time>2024-04-25T08:35:06Z</time></trkpt>
<trkpt lat="47.695675" lon="10.560106"><ele>841.85</ele><time>2024-04-25T08:35:10Z</time></trkpt>
<trkpt lat="47.695659" lon="10.559645"><ele>838.7</ele><time>2024-04-25T08:35:14Z</time></trkpt>
<trkpt lat="47.695573" lon="10.559333"><ele>837.45</ele><time>2024-04-25T08:35:17Z</time></trkpt>
<trkpt lat="47.695456" lon="10.558757"><ele>838.02</ele><time>2024-04-25T08:35:21Z</time></trkpt>
<trkpt lat="47.695339" lon="10.558396"><ele>839.72</ele><time>2024-04-25T08:35:25Z</time></trkpt>
<trkpt lat="47.695162" lon="10.558002"><ele>841.53</ele><time>2024-04-25T08:35:28Z</time></trkpt>
<trkpt lat="47.695048" lon="10.557576"><ele>843.32</ele><time>2024-04-25T08:35:32Z</time></trkpt>
<trkpt lat="47.694884" lon="10.557048"><ele>844.74</ele><time>2024-04-25T08:35:36Z</time></trkpt>
<trkpt lat="47.694715" lon="10.55632"><ele>840.97</ele><time>2024-04-25T08:35:39Z</time></trkpt>
<trkpt lat="47.694743" lon="10.556178"><ele>841.09</ele><time>2024-04-25T08:35:44Z</time></trkpt>
<trkpt lat="47.694778" lon="10.556087"><ele>841.18</ele><time>2024-04-25T08:35:48Z</time></trkpt>
<trkpt lat="47.694905" lon="10.555916"><ele>841.19</ele><time>2024-04-25T08:35:53Z</time></trkpt>
<trkpt lat="47.694973" lon="10.555876"><ele>841.14</ele><time>2024-04-25T08:35:57Z</time></trkpt>
<trkpt lat="47.695126" lon="10.555729"><ele>841.11</ele><time>2024-04-25T08:36:02Z</time></trkpt>
<trkpt lat="47.69546" lon="10.555269"><ele>839.61</ele><time>2024-04-25T08:36:06Z</time></trkpt>
<trkpt lat="47.695739" lon="10.555019"><ele>839.82</ele><time>2024-04-25T08:36:11Z</time></trkpt>
<trkpt lat="47.696085" lon="10.554629"><ele>839.17</ele><time>2024-04-25T08:36:15Z</time></trkpt>
<trkpt lat="47.696333" lon="10.554488"><ele>841.63</ele><time>2024-04-25T08:36:20Z</time></trkpt>
<trkpt lat="47.696586" lon="10.5543"><ele>842.01</ele><time>2024-04-25T08:36:24Z</time></trkpt>
<trkpt lat="47.69673" lon="10.554246"><ele>842.01</ele><time>2024-04-25T08:36:28Z</time></trkpt>
<trkpt lat="47.697272" lon="10.55417"><ele>840.67</ele><time>2024-04-25T08:36:33Z</time></trkpt>
<trkpt lat="47.697581" lon="10.554091"><ele>838.65</ele><time>2024-04-25T08:36:37Z</time></trkpt>
<trkpt lat="47.697673" lon="10.554037"><ele>838.24</ele><time>2024-04-25T08:36:42Z</time></trkpt>
<trkpt lat="47.698483" lon="10.553595"><ele>837.48</ele><time>2024-04-25T08:36:46Z</time></trkpt>
<trkpt lat="47.699148" lon="10.553195"><ele>836.07</ele><time>2024-04-25T08:36:51Z</time></trkpt>
<trkpt lat="47.699297" lon="10.553106"><ele>834.81</ele><time>2024-04-25T08:36:55Z</time></trkpt>
<trkpt lat="47.69948" lon="10.552922"><ele>833.45</ele><time>2024-04-25T08:37:00Z</time></trkpt>
<trkpt lat="47.699704" lon="10.552447"><ele>832.01</ele><time>2024-04-25T08:37:04Z</time></trkpt>
<trkpt lat="47.700016" lon="10.551639"><ele>835.32</ele><time>2024-04-25T08:37:09Z</time></trkpt>
<trkpt lat="47.700198" lon="10.5511"><ele>842.16</ele><time>2024-04-25T08:37:13Z</time></trkpt>
<trkpt lat="47.700318" lon="10.550756"><ele>843.67</ele><time>2024-04-25T08:37:18Z</time></trkpt>
<trkpt lat="47.700412" lon="10.550594"><ele>844.9</ele><time>2024-04-25T08:37:22Z</time></trkpt>
<trkpt lat="47.700598" lon="10.550426"><ele>846.38</ele><time>2024-04-25T08:37:27Z</time></trkpt>
<trkpt lat="47.701139" lon="10.550147"><ele>851.47</ele><time>2024-04-25T08:37:31Z</time></trkpt>
<trkpt lat="47.701419" lon="10.549031"><ele>851.56</ele><time>2024-04-25T08:37:45Z</time></trkpt>
<trkpt lat="47.70152" lon="10.548491"><ele>850.74</ele><time>2024-04-25T08:37:58Z</time></trkpt>
<trkpt lat="47.701464" lon="10.548399"><ele>850.33</ele><time>2024-04-25T08:37:59Z</time></trkpt>
<trkpt lat="47.702091" lon="10.547009"><ele>858.46</ele><time>2024-04-25T08:38:05Z</time></trkpt>
<trkpt lat="47.702316" lon="10.546441"><ele>859.86</ele><time>2024-04-25T08:38:10Z</time></trkpt>
<trkpt lat="47.702542" lon="10.545678"><ele>857.74</ele><time>2024-04-25T08:38:16Z</time></trkpt>
<trkpt lat="47.702701" lon="10.545238"><ele>857.38</ele><time>2024-04-25T08:38:21Z</time></trkpt>
<trkpt lat="47.703007" lon="10.544871"><ele>854.97</ele><time>2024-04-25T08:38:27Z</time></trkpt>
<trkpt lat="47.703153" lon="10.544601"><ele>854.86</ele><time>2024-04-25T08:38:32Z</time></trkpt>
<trkpt lat="47.703249" lon="10.544372"><ele>856.34</ele><time>2024-04-25T08:38:38Z</time></trkpt>
<trkpt lat="47.703429" lon="10.5433"><ele>860.41</ele><time>2024-04-25T08:38:44Z</time></trkpt>
<trkpt lat="47.703598" lon="10.5426"><ele>862.48</ele><time>2024-04-25T08:38:49Z</time></trkpt>
<trkpt lat="47.703767" lon="10.542131"><ele>861.79</ele><time>2024-04-25T08:38:55Z</time></trkpt>
<trkpt lat="47.703982" lon="10.541725"><ele>861.28</ele><time>2024-04-25T08:39:00Z</time></trkpt>
<trkpt lat="47.704408" lon="10.541221"><ele>852.92</ele><time>2024-04-25T08:39:06Z</time></trkpt>
<trkpt lat="47.704576" lon="10.540954"><ele>847.41</ele><time>2024-04-25T08:39:11Z</time></trkpt>
<trkpt lat="47.704733" lon="10.540555"><ele>846.04</ele><time>2024-04-25T08:39:17Z</time></trkpt>
<trkpt lat="47.704909" lon="10.539917"><ele>847.09</ele><time>2024-04-25T08:39:23Z</time></trkpt>
<trkpt lat="47.705062" lon="10.53944"><ele>845.33</ele><time>2024-04-25T08:39:28Z</time></trkpt>
<trkpt lat="47.705316" lon="10.538803"><ele>842.32</ele><time>2024-04-25T08:39:34Z</time></trkpt>
<trkpt lat="47.705449" lon="10.53817"><ele>841.99</ele><time>2024-04-25T08:39:39Z</time></trkpt>
<trkpt lat="47.705605" lon="10.536752"><ele>839.97</ele><time>2024-04-25T08:39:45Z</time></trkpt>
<trkpt lat="47.70567" lon="10.536453"><ele>838.89</ele><time>2024-04-25T08:39:50Z</time></trkpt>
<trkpt lat="47.705802" lon="10.536145"><ele>837.34</ele><time>2024-04-25T08:39:56Z</time></trkpt>
<trkpt lat="47.706008" lon="10.535935"><ele>836.37</ele><time>2024-04-25T08:40:01Z</time></trkpt>
<trkpt lat="47.706193" lon="10.535826"><ele>835.7</ele><time>2024-04-25T08:40:07Z</time></trkpt>
<trkpt lat="47.706619" lon="10.535702"><ele>835.83</ele><time>2024-04-25T08:40:13Z</time></trkpt>
<trkpt lat="47.706936" lon="10.535461"><ele>836.96</ele><time>2024-04-25T08:40:18Z</time></trkpt>
<trkpt lat="47.707382" lon="10.534927"><ele>837.89</ele><time>2024-04-25T08:40:24Z</time></trkpt>
<trkpt lat="47.707614" lon="10.534823"><ele>838.3</ele><time>2024-04-25T08:40:29Z</time></trkpt>
<trkpt lat="47.707908" lon="10.534767"><ele>839.72</ele><time>2024-04-25T08:40:35Z</time></trkpt>
<trkpt lat="47.707869" lon="10.533741"><ele>826.89</ele><time>2024-04-25T08:40:38Z</time></trkpt>
<trkpt lat="47.707827" lon="10.533341"><ele>821.76</ele><time>2024-04-25T08:40:41Z</time></trkpt>
<trkpt lat="47.707749" lon="10.532974"><ele>816.23</ele><time>2024-04-25T08:40:44Z</time></trkpt>
<trkpt lat="47.707062" lon="10.530658"><ele>807.06</ele><time>2024-04-25T08:40:48Z</time></trkpt>
<trkpt lat="47.70677" lon="10.529426"><ele>786.94</ele><time>2024-04-25T08:40:51Z</time></trkpt>
<trkpt lat="47.706707" lon="10.529017"><ele>784.28</ele><time>2024-04-25T08:40:54Z</time></trkpt>
<trkpt lat="47.706703" lon="10.528751"><ele>782.61</ele><time>2024-04-25T08:40:57Z</time></trkpt>
<trkpt lat="47.706736" lon="10.528492"><ele>781.6</ele><time>2024-04-25T08:41:00Z</time></trkpt>
<trkpt lat="47.706828" lon="10.528203"><ele>781.69</ele><time>2024-04-25T08:41:04Z</time></trkpt>
<trkpt lat="47.706948" lon="10.527962"><ele>782.31</ele><time>2024-04-25T08:41:07Z</time></trkpt>
<trkpt lat="47.707177" lon="10.527601"><ele>785.45</ele><time>2024-04-25T08:41:10Z</time></trkpt>
<trkpt lat="47.707399" lon="10.527394"><ele>787.68</ele><time>2024-04-25T08:41:13Z</time></trkpt>
<trkpt lat="47.707871" lon="10.527134"><ele>792.47</ele><time>2024-04-25T08:41:17Z</time></trkpt>
<trkpt lat="47.707969" lon="10.527062"><ele>794.45</ele><time>2024-04-25T08:41:20Z</time></trkpt>
<trkpt lat="47.708032" lon="10.526988"><ele>796.12</ele><time>2024-04-25T08:41:23Z</time></trkpt>
<trkpt lat="47.708095" lon="10.526882"><ele>798.63</ele><time>2024-04-25T08:41:26Z</time></trkpt>
<trkpt lat="47.708152" lon="10.526727"><ele>802.38</ele><time>2024-04-25T08:41:29Z</time></trkpt>
<trkpt lat="47.708188" lon="10.526552"><ele>805.82</ele><time>2024-04-25T08:41:33Z</time></trkpt>
<trkpt lat="47.708205" lon="10.526376"><ele>808.67</ele><time>2024-04-25T08:41:36Z</time></trkpt>
<trkpt lat="47.708193" lon="10.526125"><ele>811.34</ele><time>2024-04-25T08:41:39Z</time></trkpt>
<trkpt lat="47.708152" lon="10.525861"><ele>812.25</ele><time>2024-04-25T08:41:42Z</time></trkpt>
<trkpt lat="47.708078" lon="10.525581"><ele>813.82</ele><time>2024-04-25T08:41:45Z</time></trkpt>
<trkpt lat="47.707706" lon="10.524499"><ele>826.57</ele><time>2024-04-25T08:41:49Z</time></trkpt>
<trkpt lat="47.707498" lon="10.523778"><ele>830.61</ele><time>2024-04-25T08:41:52Z</time></trkpt>
<trkpt lat="47.707408" lon="10.523343"><ele>829.69</ele><time>2024-04-25T08:41:55Z</time></trkpt>
<trkpt lat="47.707354" lon="10.522904"><ele>828.71</ele><time>2024-04-25T08:41:58Z</time></trkpt>
<trkpt lat="47.707377" lon="10.521928"><ele>828.0</ele><time>2024-04-25T08:42:01Z</time></trkpt>
<trkpt lat="47.707352" lon="10.521301"><ele>827.22</ele><time>2024-04-25T08:42:05Z</time></trkpt>
<trkpt lat="47.707319" lon="10.521007"><ele>826.28</ele><time>2024-04-25T08:42:08Z</time></trkpt>
<trkpt lat="47.707216" lon="10.520545"><ele>824.95</ele><time>2024-04-25T08:42:11Z</time></trkpt>
<trkpt lat="47.706989" lon="10.519837"><ele>823.19</ele><time>2024-04-25T08:42:14Z</time></trkpt>
<trkpt lat="47.706453" lon="10.518468"><ele>821.75</ele><time>2024-04-25T08:42:18Z</time></trkpt>
<trkpt lat="47.705947" lon="10.517296"><ele>817.84</ele><time>2024-04-25T08:42:21Z</time></trkpt>
<trkpt lat="47.705684" lon="10.516815"><ele>819.07</ele><time>2024-04-25T08:42:24Z</time></trkpt>
<trkpt lat="47.70536" lon="10.516343"><ele>819.66</ele><time>2024-04-25T08:42:27Z</time></trkpt>
<trkpt lat="47.704826" lon="10.515775"><ele>821.63</ele><time>2024-04-25T08:42:30Z</time></trkpt>
<trkpt lat="47.704265" lon="10.515317"><ele>821.09</ele><time>2024-04-25T08:42:34Z</time></trkpt>
<trkpt lat="47.704019" lon="10.515044"><ele>822.51</ele><time>2024-04-25T08:42:37Z</time></trkpt>
<trkpt lat="47.703844" lon="10.514774"><ele>823.32</ele><time>2024-04-25T08:42:40Z</time></trkpt>
<trkpt lat="47.703769" lon="10.514516"><ele>823.11</ele><time>2024-04-25T08:42:43Z</time></trkpt>
<trkpt lat="47.703727" lon="10.5141"><ele>820.76</ele><time>2024-04-25T08:42:46Z</time></trkpt>
<trkpt lat="47.703714" lon="10.513436"><ele>819.0</ele><time>2024-04-25T08:42:50Z</time></trkpt>
<trkpt lat="47.703737" lon="10.513336"><ele>819.0</ele><time>2024-04-25T08:42:53Z</time></trkpt>
<trkpt lat="47.703785" lon="10.513279"><ele>818.8</ele><time>2024-04-25T08:42:56Z</time></trkpt>
<trkpt lat="47.703912" lon="10.513212"><ele>818.56</ele><time>2024-04-25T08:42:59Z</time></trkpt>
<trkpt lat="47.705047" lon="10.512656"><ele>814.34</ele><time>2024-04-25T08:43:03Z</time></trkpt>
<trkpt lat="47.705193" lon="10.512486"><ele>811.85</ele><time>2024-04-25T08:43:06Z</time></trkpt>
<trkpt lat="47.705528" lon="10.511798"><ele>800.92</ele><time>2024-04-25T08:43:09Z</time></trkpt>
<trkpt lat="47.705725" lon="10.511538"><ele>797.5</ele><time>2024-04-25T08:43:12Z</time></trkpt>
<trkpt lat="47.706096" lon="10.511141"><ele>794.01</ele><time>2024-04-25T08:43:15Z</time></trkpt>
<trkpt lat="47.706246" lon="10.510916"><ele>794.47</ele><time>2024-04-25T08:43:19Z</time></trkpt>
<trkpt lat="47.706401" lon="10.510549"><ele>797.11</ele><time>2024-04-25T08:43:22Z</time></trkpt>
<trkpt lat="47.706672" lon="10.509628"><ele>806.34</ele><time>2024-04-25T08:43:25Z</time></trkpt>
<trkpt lat="47.706723" lon="10.509382"><ele>807.61</ele><time>2024-04-25T08:43:28Z</time></trkpt>
<trkpt lat="47.706709" lon="10.509235"><ele>808.54</ele><time>2024-04-25T08:43:31Z</time></trkpt>
<trkpt lat="47.706556" lon="10.508791"><ele>808.95</ele><time>2024-04-25T08:43:35Z</time></trkpt>
<trkpt lat="47.706483" lon="10.508327"><ele>809.39</ele><time>2024-04-25T08:43:38Z</time></trkpt>
<trkpt lat="47.706494" lon="10.507989"><ele>811.95</ele><time>2024-04-25T08:43:41Z</time></trkpt>
<trkpt lat="47.706528" lon="10.507717"><ele>814.33</ele><time>2024-04-25T08:43:44Z</time></trkpt>
<trkpt lat="47.706803" lon="10.506644"><ele>817.96</ele><time>2024-04-25T08:43:47Z</time></trkpt>
<trkpt lat="47.706724" lon="10.50617"><ele>817.79</ele><time>2024-04-25T08:43:51Z</time></trkpt>
<trkpt lat="47.706378" lon="10.504866"><ele>819.46</ele><time>2024-04-25T08:43:54Z</time></trkpt>
<trkpt lat="47.706253" lon="10.50354"><ele>819.15</ele><time>2024-04-25T08:43:57Z</time></trkpt>
<trkpt lat="47.706212" lon="10.501947"><ele>819.99</ele><time>2024-04-25T08:44:00Z</time></trkpt>
<trkpt lat="47.706149" lon="10.501469"><ele>818.42</ele><time>2024-04-25T08:44:04Z</time></trkpt>
<trkpt lat="47.706078" lon="10.501118"><ele>816.91</ele><time>2024-04-25T08:44:07Z</time></trkpt>
<trkpt lat="47.705948" lon="10.500782"><ele>817.18</ele><time>2024-04-25T08:44:10Z</time></trkpt>
<trkpt lat="47.705788" lon="10.500471"><ele>817.84</ele><time>2024-04-25T08:44:13Z</time></trkpt>
<trkpt lat="47.70553" lon="10.500051"><ele>817.91</ele><time>2024-04-25T08:44:16Z</time></trkpt>
<trkpt lat="47.705212" lon="10.499669"><ele>820.09</ele><time>2024-04-25T08:44:20Z</time></trkpt>
<trkpt lat="47.704172" lon="10.498625"><ele>821.98</ele><time>2024-04-25T08:44:23Z</time></trkpt>
<trkpt lat="47.704067" lon="10.498445"><ele>821.4</ele><time>2024-04-25T08:44:26Z</time></trkpt>
<trkpt lat="47.703952" lon="10.498169"><ele>820.86</ele><time>2024-04-25T08:44:29Z</time></trkpt>
<trkpt lat="47.703677" lon="10.496909"><ele>821.8</ele><time>2024-04-25T08:44:32Z</time></trkpt>
<trkpt lat="47.703377" lon="10.495946"><ele>820.69</ele><time>2024-04-25T08:44:36Z</time></trkpt>
<trkpt lat="47.703316" lon="10.495616"><ele>821.15</ele><time>2024-04-25T08:44:39Z</time></trkpt>
<trkpt lat="47.703279" lon="10.494536"><ele>820.13</ele><time>2024-04-25T08:44:42Z</time></trkpt>
<trkpt lat="47.703178" lon="10.493963"><ele>820.27</ele><time>2024-04-25T08:44:45Z</time></trkpt>
<trkpt lat="47.702939" lon="10.492834"><ele>821.26</ele><time>2024-04-25T08:44:49Z</time></trkpt>
<trkpt lat="47.702881" lon="10.49242"><ele>822.06</ele><time>2024-04-25T08:44:52Z</time></trkpt>
<trkpt lat="47.702834" lon="10.491079"><ele>827.52</ele><time>2024-04-25T08:44:55Z</time></trkpt>
<trkpt lat="47.702798" lon="10.490889"><ele>827.17</ele><time>2024-04-25T08:44:58Z</time></trkpt>
<trkpt lat="47.70269" lon="10.490521"><ele>827.08</ele><time>2024-04-25T08:45:01Z</time></trkpt>
<trkpt lat="47.702304" lon="10.489777"><ele>826.59</ele><time>2024-04-25T08:45:05Z</time></trkpt>
<trkpt lat="47.702067" lon="10.489268"><ele>827.64</ele><time>2024-04-25T08:45:08Z</time></trkpt>
<trkpt lat="47.701917" lon="10.489048"><ele>828.2</ele><time>2024-04-25T08:45:11Z</time></trkpt>
<trkpt lat="47.701699" lon="10.488793"><ele>829.77</ele><time>2024-04-25T08:45:14Z</time></trkpt>
<trkpt lat="47.701484" lon="10.488598"><ele>831.36</ele><time>2024-04-25T08:45:17Z</time></trkpt>
<trkpt lat="47.701008" lon="10.48829"><ele>834.9</ele><time>2024-04-25T08:45:21Z</time></trkpt>
<trkpt lat="47.700527" lon="10.488121"><ele>836.66</ele><time>2024-04-25T08:45:24Z</time></trkpt>
<trkpt lat="47.700545" lon="10.48784"><ele>836.96</ele><time>2024-04-25T08:45:27Z</time></trkpt>
<trkpt lat="47.700498" lon="10.487598"><ele>836.93</ele><time>2024-04-25T08:45:30Z</time></trkpt>
<trkpt lat="47.700332" lon="10.487205"><ele>837.19</ele><time>2024-04-25T08:45:34Z</time></trkpt>
<trkpt lat="47.699751" lon="10.486093"><ele>836.97</ele><time>2024-04-25T08:45:37Z</time></trkpt>
<trkpt lat="47.699476" lon="10.485641"><ele>837.19</ele><time>2024-04-25T08:45:40Z</time></trkpt>
<trkpt lat="47.699155" lon="10.485188"><ele>836.66</ele><time>2024-04-25T08:45:43Z</time></trkpt>
<trkpt lat="47.69908" lon="10.484915"><ele>835.29</ele><time>2024-04-25T08:45:47Z</time></trkpt>
<trkpt lat="47.699042" lon="10.484147"><ele>834.21</ele><time>2024-04-25T08:45:50Z</time></trkpt>
<trkpt lat="47.699009" lon="10.4839"><ele>835.24</ele><time>2024-04-25T08:45:53Z</time></trkpt>
<trkpt lat="47.698914" lon="10.483659"><ele>834.27</ele><time>2024-04-25T08:45:56Z</time></trkpt>
<trkpt lat="47.69853" lon="10.483035"><ele>835.64</ele><time>2024-04-25T08:46:00Z</time></trkpt>
<trkpt lat="47.698447" lon="10.482799"><ele>836.56</ele><time>2024-04-25T08:46:03Z</time></trkpt>
<trkpt lat="47.698414" lon="10.482615"><ele>836.71</ele><time>2024-04-25T08:46:06Z</time></trkpt>
<trkpt lat="47.698424" lon="10.481667"><ele>834.03</ele><time>2024-04-25T08:46:09Z</time></trkpt>
<trkpt lat="47.698391" lon="10.481126"><ele>834.38</ele><time>2024-04-25T08:46:13Z</time></trkpt>
<trkpt lat="47.698396" lon="10.480918"><ele>835.02</ele><time>2024-04-25T08:46:16Z</time></trkpt>
<trkpt lat="47.698467" lon="10.4806"><ele>836.64</ele><time>2024-04-25T08:46:19Z</time></trkpt>
<trkpt lat="47.698596" lon="10.480216"><ele>838.26</ele><time>2024-04-25T08:46:23Z</time></trkpt>
<trkpt lat="47.699063" lon="10.479249"><ele>844.14</ele><time>2024-04-25T08:46:26Z</time></trkpt>
<trkpt lat="47.699185" lon="10.478924"><ele>846.35</ele><time>2024-04-25T08:46:29Z</time></trkpt>
<trkpt lat="47.69925" lon="10.47859"><ele>845.7</ele><time>2024-04-25T08:46:32Z</time></trkpt>
<trkpt lat="47.699336" lon="10.47734"><ele>843.44</ele><time>2024-04-25T08:46:36Z</time></trkpt>
<trkpt lat="47.699344" lon="10.476921"><ele>844.3</ele><time>2024-04-25T08:46:39Z</time></trkpt>
<trkpt lat="47.699162" lon="10.474513"><ele>846.26</ele><time>2024-04-25T08:46:42Z</time></trkpt>
<trkpt lat="47.699036" lon="10.472267"><ele>844.58</ele><time>2024-04-25T08:46:45Z</time></trkpt>
<trkpt lat="47.69894" lon="10.471674"><ele>846.52</ele><time>2024-04-25T08:46:49Z</time></trkpt>
<trkpt lat="47.69883" lon="10.471128"><ele>849.03</ele><time>2024-04-25T08:46:52Z</time></trkpt>
<trkpt lat="47.698707" lon="10.470725"><ele>850.16</ele><time>2024-04-25T08:46:55Z</time></trkpt>
<trkpt lat="47.698403" lon="10.469941"><ele>849.42</ele><time>2024-04-25T08:46:58Z</time></trkpt>
<trkpt lat="47.697537" lon="10.466691"><ele>854.7</ele><time>2024-04-25T08:47:02Z</time></trkpt>
<trkpt lat="47.697247" lon="10.465539"><ele>857.98</ele><time>2024-04-25T08:47:05Z</time></trkpt>
<trkpt lat="47.697079" lon="10.46516"><ele>858.78</ele><time>2024-04-25T08:47:08Z</time></trkpt>
<trkpt lat="47.695567" lon="10.462218"><ele>855.21</ele><time>2024-04-25T08:47:11Z</time></trkpt>
<trkpt lat="47.695088" lon="10.461192"><ele>861.12</ele><time>2024-04-25T08:47:15Z</time></trkpt>
<trkpt lat="47.694977" lon="10.460915"><ele>862.7</ele><time>2024-04-25T08:47:18Z</time></trkpt>
<trkpt lat="47.694825" lon="10.460375"><ele>865.8</ele><time>2024-04-25T08:47:21Z</time></trkpt>
<trkpt lat="47.694754" lon="10.460018"><ele>869.21</ele><time>2024-04-25T08:47:24Z</time></trkpt>
<trkpt lat="47.694699" lon="10.459504"><ele>876.78</ele><time>2024-04-25T08:47:28Z</time></trkpt>
<trkpt lat="47.694702" lon="10.458848"><ele>884.31</ele><time>2024-04-25T08:47:31Z</time></trkpt>
<trkpt lat="47.695056" lon="10.457158"><ele>886.23</ele><time>2024-04-25T08:47:34Z</time></trkpt>
<trkpt lat="47.695202" lon="10.456239"><ele>889.09</ele><time>2024-04-25T08:47:37Z</time></trkpt>
<trkpt lat="47.695176" lon="10.455673"><ele>890.16</ele><time>2024-04-25T08:47:41Z</time></trkpt>
<trkpt lat="47.695092" lon="10.454914"><ele>888.56</ele><time>2024-04-25T08:47:44Z</time></trkpt>
<trkpt lat="47.695095" lon="10.452551"><ele>880.48</ele><time>2024-04-25T08:47:47Z</time></trkpt>
<trkpt lat="47.694971" lon="10.450512"><ele>876.49</ele><time>2024-04-25T08:47:50Z</time></trkpt>
<trkpt lat="47.694829" lon="10.448975"><ele>885.3</ele><time>2024-04-25T08:47:54Z</time></trkpt>
<trkpt lat="47.694702" lon="10.448522"><ele>885.23</ele><time>2024-04-25T08:47:57Z</time></trkpt>
<trkpt lat="47.694485" lon="10.447971"><ele>886.24</ele><time>2024-04-25T08:48:00Z</time></trkpt>
<trkpt lat="47.693987" lon="10.446895"><ele>888.47</ele><time>2024-04-25T08:48:03Z</time></trkpt>
<trkpt lat="47.693785" lon="10.446355"><ele>888.41</ele><time>2024-04-25T08:48:07Z</time></trkpt>
<trkpt lat="47.693487" lon="10.445323"><ele>888.7</ele><time>2024-04-25T08:48:10Z</time></trkpt>
<trkpt lat="47.693234" lon="10.444351"><ele>895.76</ele><time>2024-04-25T08:48:13Z</time></trkpt>
<trkpt lat="47.693161" lon="10.443983"><ele>899.65</ele><time>2024-04-25T08:48:16Z</time></trkpt>
<trkpt lat="47.693093" lon="10.443305"><ele>902.97</ele><time>2024-04-25T08:48:20Z</time></trkpt>
<trkpt lat="47.693108" lon="10.442759"><ele>904.32</ele><time>2024-04-25T08:48:23Z</time></trkpt>
<trkpt lat="47.693276" lon="10.441475"><ele>906.96</ele><time>2024-04-25T08:48:26Z</time></trkpt>
<trkpt lat="47.693302" lon="10.440881"><ele>903.63</ele><time>2024-04-25T08:48:29Z</time></trkpt>
<trkpt lat="47.69329" lon="10.440703"><ele>903.61</ele><time>2024-04-25T08:48:33Z</time></trkpt>
<trkpt lat="47.69325" lon="10.440474"><ele>904.56</ele><time>2024-04-25T08:48:36Z</time></trkpt>
<trkpt lat="47.693164" lon="10.440129"><ele>907.99</ele><time>2024-04-25T08:48:39Z</time></trkpt>
<trkpt lat="47.693018" lon="10.439636"><ele>910.13</ele><time>2024-04-25T08:48:42Z</time></trkpt>
<trkpt lat="47.692778" lon="10.438561"><ele>908.0</ele><time>2024-04-25T08:48:46Z</time></trkpt>
<trkpt lat="47.692741" lon="10.438326"><ele>907.09</ele><time>2024-04-25T08:48:49Z</time></trkpt>
<trkpt lat="47.692699" lon="10.436855"><ele>907.67</ele><time>2024-04-25T08:48:52Z</time></trkpt>
<trkpt lat="47.69268" lon="10.436487"><ele>909.18</ele><time>2024-04-25T08:48:55Z</time></trkpt>
<trkpt lat="47.692653" lon="10.436279"><ele>909.26</ele><time>2024-04-25T08:48:59Z</time></trkpt>
<trkpt lat="47.69251" lon="10.435659"><ele>908.8</ele><time>2024-04-25T08:49:02Z</time></trkpt>
<trkpt lat="47.692453" lon="10.435477"><ele>908.89</ele><time>2024-04-25T08:49:05Z</time></trkpt>
<trkpt lat="47.692035" lon="10.434606"><ele>907.93</ele><time>2024-04-25T08:49:09Z</time></trkpt>
<trkpt lat="47.69196" lon="10.434402"><ele>904.56</ele><time>2024-04-25T08:49:12Z</time></trkpt>
<trkpt lat="47.691744" lon="10.43328"><ele>899.42</ele><time>2024-04-25T08:49:15Z</time></trkpt>
<trkpt lat="47.691061" lon="10.431024"><ele>896.67</ele><time>2024-04-25T08:49:18Z</time></trkpt>
<trkpt lat="47.690759" lon="10.429903"><ele>902.52</ele><time>2024-04-25T08:49:22Z</time></trkpt>
<trkpt lat="47.690598" lon="10.429101"><ele>904.66</ele><time>2024-04-25T08:49:25Z</time></trkpt>
<trkpt lat="47.690121" lon="10.427272"><ele>902.05</ele><time>2024-04-25T08:49:28Z</time></trkpt>
<trkpt lat="47.690017" lon="10.426964"><ele>900.14</ele><time>2024-04-25T08:49:31Z</time></trkpt>
<trkpt lat="47.689896" lon="10.426678"><ele>900.97</ele><time>2024-04-25T08:49:35Z</time></trkpt>
<trkpt lat="47.689621" lon="10.426159"><ele>901.64</ele><time>2024-04-25T08:49:38Z</time></trkpt>
<trkpt lat="47.689448" lon="10.425756"><ele>902.72</ele><time>2024-04-25T08:49:41Z</time></trkpt>
<trkpt lat="47.689187" lon="10.424936"><ele>898.4</ele><time>2024-04-25T08:49:44Z</time></trkpt>
<trkpt lat="47.689149" lon="10.424546"><ele>897.3</ele><time>2024-04-25T08:49:48Z</time></trkpt>
<trkpt lat="47.689163" lon="10.423063"><ele>893.0</ele><time>2024-04-25T08:49:51Z</time></trkpt>
<trkpt lat="47.689132" lon="10.422768"><ele>893.0</ele><time>2024-04-25T08:49:54Z</time></trkpt>
<trkpt lat="47.689082" lon="10.422572"><ele>893.0</ele><time>2024-04-25T08:49:57Z</time></trkpt>
<trkpt lat="47.688992" lon="10.422331"><ele>893.0</ele><time>2024-04-25T08:50:01Z</time></trkpt>
<trkpt lat="47.688886" lon="10.422121"><ele>892.62</ele><time>2024-04-25T08:50:04Z</time></trkpt>
<trkpt lat="47.688738" lon="10.42194"><ele>890.9</ele><time>2024-04-25T08:50:07Z</time></trkpt>
<trkpt lat="47.688432" lon="10.421664"><ele>890.66</ele><time>2024-04-25T08:50:10Z</time></trkpt>
<trkpt lat="47.688223" lon="10.421417"><ele>892.3</ele><time>2024-04-25T08:50:14Z</time></trkpt>
<trkpt lat="47.687737" lon="10.420433"><ele>895.96</ele><time>2024-04-25T08:50:17Z</time></trkpt>
<trkpt lat="47.687652" lon="10.420089"><ele>898.04</ele><time>2024-04-25T08:50:20Z</time></trkpt>
<trkpt lat="47.687591" lon="10.419714"><ele>900.04</ele><time>2024-04-25T08:50:23Z</time></trkpt>
<trkpt lat="47.687568" lon="10.419186"><ele>902.2</ele><time>2024-04-25T08:50:27Z</time></trkpt>
<trkpt lat="47.68754" lon="10.417421"><ele>906.08</ele><time>2024-04-25T08:50:30Z</time></trkpt>
<trkpt lat="47.687489" lon="10.416509"><ele>907.6</ele><time>2024-04-25T08:50:33Z</time></trkpt>
<trkpt lat="47.687366" lon="10.415946"><ele>908.2</ele><time>2024-04-25T08:50:36Z</time></trkpt>
<trkpt lat="47.687187" lon="10.415426"><ele>906.28</ele><time>2024-04-25T08:50:40Z</time></trkpt>
<trkpt lat="47.687006" lon="10.415013"><ele>902.32</ele><time>2024-04-25T08:50:43Z</time></trkpt>
<trkpt lat="47.686794" lon="10.414596"><ele>899.34</ele><time>2024-04-25T08:50:46Z</time></trkpt>
<trkpt lat="47.686601" lon="10.414301"><ele>898.84</ele><time>2024-04-25T08:50:49Z</time></trkpt>
<trkpt lat="47.686319" lon="10.41395"><ele>899.42</ele><time>2024-04-25T08:50:53Z</time></trkpt>
<trkpt lat="47.685384" lon="10.413089"><ele>900.92</ele><time>2024-04-25T08:50:56Z</time></trkpt>
<trkpt lat="47.6851" lon="10.412905"><ele>900.36</ele><time>2024-04-25T08:50:59Z</time></trkpt>
<trkpt lat="47.684759" lon="10.412818"><ele>900.13</ele><time>2024-04-25T08:51:02Z</time></trkpt>
<trkpt lat="47.684659" lon="10.412761"><ele>899.76</ele><time>2024-04-25T08:51:06Z</time></trkpt>
<trkpt lat="47.684386" lon="10.412509"><ele>897.61</ele><time>2024-04-25T08:51:09Z</time></trkpt>
<trkpt lat="47.684148" lon="10.41239"><ele>895.93</ele><time>2024-04-25T08:51:12Z</time></trkpt>
<trkpt lat="47.683936" lon="10.412305"><ele>895.17</ele><time>2024-04-25T08:51:15Z</time></trkpt>
<trkpt lat="47.683602" lon="10.412221"><ele>893.99</ele><time>2024-04-25T08:51:19Z</time></trkpt>
<trkpt lat="47.683357" lon="10.412113"><ele>893.22</ele><time>2024-04-25T08:51:22Z</time></trkpt>
<trkpt lat="47.681213" lon="10.410728"><ele>894.75</ele><time>2024-04-25T08:51:25Z</time></trkpt>
<trkpt lat="47.679549" lon="10.409593"><ele>895.25</ele><time>2024-04-25T08:51:28Z</time></trkpt>
<trkpt lat="47.678457" lon="10.408875"><ele>897.11</ele><time>2024-04-25T08:51:32Z</time></trkpt>
<trkpt lat="47.678519" lon="10.408511"><ele>896.54</ele><time>2024-04-25T08:51:34Z</time></trkpt>
<trkpt lat="47.678564" lon="10.408008"><ele>897.17</ele><time>2024-04-25T08:51:36Z</time></trkpt>
<trkpt lat="47.678562" lon="10.40742"><ele>898.3</ele><time>2024-04-25T08:51:38Z</time></trkpt>
<trkpt lat="47.678536" lon="10.407008"><ele>896.59</ele><time>2024-04-25T08:51:40Z</time></trkpt>
<trkpt lat="47.678466" lon="10.406485"><ele>896.13</ele><time>2024-04-25T08:51:42Z</time></trkpt>
<trkpt lat="47.67834" lon="10.40603"><ele>893.78</ele><time>2024-04-25T08:51:44Z</time></trkpt>
<trkpt lat="47.678157" lon="10.405536"><ele>891.9</ele><time>2024-04-25T08:51:46Z</time></trkpt>
<trkpt lat="47.677774" lon="10.404626"><ele>889.34</ele><time>2024-04-25T08:51:48Z</time></trkpt>
<trkpt lat="47.677563" lon="10.404027"><ele>887.77</ele><time>2024-04-25T08:51:50Z</time></trkpt>
<trkpt lat="47.677249" lon="10.404203"><ele>889.37</ele><time>2024-04-25T08:51:53Z</time></trkpt>
<trkpt lat="47.677118" lon="10.404238"><ele>890.05</ele><time>2024-04-25T08:51:57Z</time></trkpt>
<trkpt lat="47.676928" lon="10.404226"><ele>890.29</ele><time>2024-04-25T08:52:00Z</time></trkpt>
<trkpt lat="47.676605" lon="10.404084"><ele>886.96</ele><time>2024-04-25T08:52:04Z</time></trkpt>
<trkpt lat="47.675117" lon="10.403246"><ele>896.37</ele><time>2024-04-25T08:52:07Z</time></trkpt>
<trkpt lat="47.672351" lon="10.401791"><ele>904.45</ele><time>2024-04-25T08:52:10Z</time></trkpt>
<trkpt lat="47.671967" lon="10.401397"><ele>905.73</ele><time>2024-04-25T08:52:14Z</time></trkpt>
<trkpt lat="47.671098" lon="10.400436"><ele>914.5</ele><time>2024-04-25T08:52:17Z</time></trkpt>
<trkpt lat="47.670469" lon="10.39974"><ele>920.47</ele><time>2024-04-25T08:52:21Z</time></trkpt>
<trkpt lat="47.670227" lon="10.399394"><ele>923.4</ele><time>2024-04-25T08:52:24Z</time></trkpt>
<trkpt lat="47.669448" lon="10.397923"><ele>927.47</ele><time>2024-04-25T08:52:28Z</time></trkpt>
<trkpt lat="47.669232" lon="10.397438"><ele>929.99</ele><time>2024-04-25T08:52:31Z</time></trkpt>
<trkpt lat="47.66899" lon="10.396764"><ele>932.0</ele><time>2024-04-25T08:52:35Z</time></trkpt>
<trkpt lat="47.668849" lon="10.396497"><ele>931.24</ele><time>2024-04-25T08:52:38Z</time></trkpt>
<trkpt lat="47.668758" lon="10.396367"><ele>930.52</ele><time>2024-04-25T08:52:42Z</time></trkpt>
<trkpt lat="47.668597" lon="10.396214"><ele>930.7</ele><time>2024-04-25T08:52:45Z</time></trkpt>
<trkpt lat="47.668451" lon="10.396116"><ele>931.57</ele><time>2024-04-25T08:52:48Z</time></trkpt>
<trkpt lat="47.667634" lon="10.39573"><ele>940.53</ele><time>2024-04-25T08:52:52Z</time></trkpt>
<trkpt lat="47.667501" lon="10.39565"><ele>943.95</ele><time>2024-04-25T08:52:55Z</time></trkpt>
<trkpt lat="47.667341" lon="10.395499"><ele>945.48</ele><time>2024-04-25T08:52:59Z</time></trkpt>
<trkpt lat="47.66724" lon="10.395352"><ele>945.89</ele><time>2024-04-25T08:53:02Z</time></trkpt>
<trkpt lat="47.666874" lon="10.394552"><ele>941.9</ele><time>2024-04-25T08:53:06Z</time></trkpt>
<trkpt lat="47.66618" lon="10.393228"><ele>947.01</ele><time>2024-04-25T08:53:09Z</time></trkpt>
<trkpt lat="47.665759" lon="10.392633"><ele>947.85</ele><time>2024-04-25T08:53:13Z</time></trkpt>
<trkpt lat="47.664978" lon="10.391653"><ele>944.69</ele><time>2024-04-25T08:53:16Z</time></trkpt>
<trkpt lat="47.664574" lon="10.391031"><ele>940.51</ele><time>2024-04-25T08:53:20Z</time></trkpt>
<trkpt lat="47.664448" lon="10.390767"><ele>939.56</ele><time>2024-04-25T08:53:23Z</time></trkpt>
<trkpt lat="47.663902" lon="10.389137"><ele>938.39</ele><time>2024-04-25T08:53:26Z</time></trkpt>
<trkpt lat="47.663746" lon="10.38877"><ele>937.46</ele><time>2024-04-25T08:53:30Z</time></trkpt>
<trkpt lat="47.663548" lon="10.388421"><ele>935.25</ele><time>2024-04-25T08:53:33Z</time></trkpt>
<trkpt lat="47.662977" lon="10.387552"><ele>931.58</ele><time>2024-04-25T08:53:37Z</time></trkpt>
<trkpt lat="47.662367" lon="10.386461"><ele>932.66</ele><time>2024-04-25T08:53:40Z</time></trkpt>
<trkpt lat="47.662152" lon="10.38613"><ele>932.4</ele><time>2024-04-25T08:53:44Z</time></trkpt>
<trkpt lat="47.662046" lon="10.385928"><ele>933.12</ele><time>2024-04-25T08:53:47Z</time></trkpt>
<trkpt lat="47.661811" lon="10.385317"><ele>937.03</ele><time>2024-04-25T08:53:51Z</time></trkpt>
<trkpt lat="47.661745" lon="10.385198"><ele>937.56</ele><time>2024-04-25T08:53:54Z</time></trkpt>
<trkpt lat="47.661664" lon="10.385124"><ele>937.2</ele><time>2024-04-25T08:53:58Z</time></trkpt>
<trkpt lat="47.660812" lon="10.384612"><ele>936.05</ele><time>2024-04-25T08:54:01Z</time></trkpt>
<trkpt lat="47.660663" lon="10.384509"><ele>938.05</ele><time>2024-04-25T08:54:05Z</time></trkpt>
<trkpt lat="47.660383" lon="10.384418"><ele>940.22</ele><time>2024-04-25T08:54:08Z</time></trkpt>
<trkpt lat="47.660057" lon="10.384372"><ele>941.53</ele><time>2024-04-25T08:54:11Z</time></trkpt>
<trkpt lat="47.659853" lon="10.3844"><ele>941.03</ele><time>2024-04-25T08:54:15Z</time></trkpt>
<trkpt lat="47.659422" lon="10.3846"><ele>939.43</ele><time>2024-04-25T08:54:18Z</time></trkpt>
<trkpt lat="47.659276" lon="10.384588"><ele>939.46</ele><time>2024-04-25T08:54:22Z</time></trkpt>
<trkpt lat="47.658384" lon="10.384177"><ele>937.18</ele><time>2024-04-25T08:54:25Z</time></trkpt>
<trkpt lat="47.65811" lon="10.384102"><ele>936.95</ele><time>2024-04-25T08:54:29Z</time></trkpt>
<trkpt lat="47.658042" lon="10.384063"><ele>936.95</ele><time>2024-04-25T08:54:32Z</time></trkpt>
<trkpt lat="47.658008" lon="10.384011"><ele>936.83</ele><time>2024-04-25T08:54:36Z</time></trkpt>
<trkpt lat="47.657859" lon="10.383531"><ele>936.29</ele><time>2024-04-25T08:54:39Z</time></trkpt>
<trkpt lat="47.657737" lon="10.383213"><ele>936.0</ele><time>2024-04-25T08:54:43Z</time></trkpt>
<trkpt lat="47.657137" lon="10.382078"><ele>935.05</ele><time>2024-04-25T08:54:46Z</time></trkpt>
<trkpt lat="47.656994" lon="10.381691"><ele>935.1</ele><time>2024-04-25T08:54:49Z</time></trkpt>
<trkpt lat="47.656905" lon="10.381364"><ele>936.08</ele><time>2024-04-25T08:54:53Z</time></trkpt>
<trkpt lat="47.656767" lon="10.380698"><ele>936.9</ele><time>2024-04-25T08:54:56Z</time></trkpt>
<trkpt lat="47.656598" lon="10.379815"><ele>937.67</ele><time>2024-04-25T08:55:00Z</time></trkpt>
<trkpt lat="47.656353" lon="10.378683"><ele>938.48</ele><time>2024-04-25T08:55:03Z</time></trkpt>
<trkpt lat="47.656186" lon="10.377787"><ele>941.21</ele><time>2024-04-25T08:55:07Z</time></trkpt>
<trkpt lat="47.656061" lon="10.376952"><ele>942.03</ele><time>2024-04-25T08:55:10Z</time></trkpt>
<trkpt lat="47.655992" lon="10.376644"><ele>941.49</ele><time>2024-04-25T08:55:14Z</time></trkpt>
<trkpt lat="47.655916" lon="10.376432"><ele>940.45</ele><time>2024-04-25T08:55:17Z</time></trkpt>
<trkpt lat="47.655729" lon="10.376037"><ele>938.24</ele><time>2024-04-25T08:55:21Z</time></trkpt>
<trkpt lat="47.655291" lon="10.375206"><ele>937.31</ele><time>2024-04-25T08:55:24Z</time></trkpt>
<trkpt lat="47.653911" lon="10.373131"><ele>936.52</ele><time>2024-04-25T08:55:27Z</time></trkpt>
<trkpt lat="47.653482" lon="10.37255"><ele>935.38</ele><time>2024-04-25T08:55:31Z</time></trkpt>
<trkpt lat="47.653343" lon="10.372408"><ele>936.61</ele><time>2024-04-25T08:55:34Z</time></trkpt>
<trkpt lat="47.653197" lon="10.372338"><ele>937.17</ele><time>2024-04-25T08:55:38Z</time></trkpt>
<trkpt lat="47.652912" lon="10.372274"><ele>936.08</ele><time>2024-04-25T08:55:41Z</time></trkpt>
<trkpt lat="47.651286" lon="10.371958"><ele>920.2</ele><time>2024-04-25T08:55:45Z</time></trkpt>
<trkpt lat="47.651285" lon="10.371686"><ele>919.43</ele><time>2024-04-25T08:55:49Z</time></trkpt>
<trkpt lat="47.651265" lon="10.371486"><ele>919.23</ele><time>2024-04-25T08:55:53Z</time></trkpt>
<trkpt lat="47.651226" lon="10.371311"><ele>919.1</ele><time>2024-04-25T08:55:56Z</time></trkpt>
<trkpt lat="47.651035" lon="10.370698"><ele>921.85</ele><time>2024-04-25T08:56:00Z</time></trkpt>
<trkpt lat="47.651004" lon="10.370506"><ele>922.38</ele><time>2024-04-25T08:56:04Z</time></trkpt>
<trkpt lat="47.650989" lon="10.37034"><ele>922.44</ele><time>2024-04-25T08:56:08Z</time></trkpt>
<trkpt lat="47.650983" lon="10.36991"><ele>920.75</ele><time>2024-04-25T08:56:12Z</time></trkpt>
<trkpt lat="47.651051" lon="10.368729"><ele>923.05</ele><time>2024-04-25T08:56:16Z</time></trkpt>
<trkpt lat="47.651009" lon="10.368426"><ele>925.34</ele><time>2024-04-25T08:56:20Z</time></trkpt>
<trkpt lat="47.650871" lon="10.367871"><ele>926.5</ele><time>2024-04-25T08:56:24Z</time></trkpt>
<trkpt lat="47.650849" lon="10.36767"><ele>925.91</ele><time>2024-04-25T08:56:28Z</time></trkpt>
<trkpt lat="47.650869" lon="10.367063"><ele>929.07</ele><time>2024-04-25T08:56:32Z</time></trkpt>
<trkpt lat="47.65086" lon="10.366894"><ele>930.48</ele><time>2024-04-25T08:56:35Z</time></trkpt>
<trkpt lat="47.650833" lon="10.366699"><ele>932.54</ele><time>2024-04-25T08:56:39Z</time></trkpt>
<trkpt lat="47.650738" lon="10.366285"><ele>934.08</ele><time>2024-04-25T08:56:43Z</time></trkpt>
<trkpt lat="47.650697" lon="10.366141"><ele>933.49</ele><time>2024-04-25T08:56:47Z</time></trkpt>
<trkpt lat="47.650459" lon="10.365623"><ele>932.24</ele><time>2024-04-25T08:56:51Z</time></trkpt>
<trkpt lat="47.650278" lon="10.365118"><ele>933.0</ele><time>2024-04-25T08:56:55Z</time></trkpt>
<trkpt lat="47.650221" lon="10.365001"><ele>932.59</ele><time>2024-04-25T08:56:59Z</time></trkpt>
<trkpt lat="47.649472" lon="10.363958"><ele>930.75</ele><time>2024-04-25T08:57:03Z</time></trkpt>
<trkpt lat="47.649365" lon="10.363749"><ele>930.72</ele><time>2024-04-25T08:57:07Z</time></trkpt>
<trkpt lat="47.649187" lon="10.363308"><ele>930.07</ele><time>2024-04-25T08:57:11Z</time></trkpt>
<trkpt lat="47.649114" lon="10.363088"><ele>930.19</ele><time>2024-04-25T08:57:14Z</time></trkpt>
<trkpt lat="47.649094" lon="10.362986"><ele>929.83</ele><time>2024-04-25T08:57:18Z</time></trkpt>
<trkpt lat="47.649075" lon="10.362541"><ele>926.96</ele><time>2024-04-25T08:57:22Z</time></trkpt>
<trkpt lat="47.648906" lon="10.361876"><ele>924.69</ele><time>2024-04-25T08:57:26Z</time></trkpt>
<trkpt lat="47.648463" lon="10.362305"><ele>929.34</ele><time>2024-04-25T08:57:30Z</time></trkpt>
<trkpt lat="47.647855" lon="10.362772"><ele>932.01</ele><time>2024-04-25T08:57:33Z</time></trkpt>
<trkpt lat="47.647633" lon="10.363155"><ele>929.29</ele><time>2024-04-25T08:57:37Z</time></trkpt>
<trkpt lat="47.647503" lon="10.363314"><ele>928.09</ele><time>2024-04-25T08:57:40Z</time></trkpt>
<trkpt lat="47.64734" lon="10.363408"><ele>926.73</ele><time>2024-04-25T08:57:44Z</time></trkpt>
<trkpt lat="47.647169" lon="10.363402"><ele>925.81</ele><time>2024-04-25T08:57:47Z</time></trkpt>
<trkpt lat="47.647019" lon="10.363259"><ele>925.34</ele><time>2024-04-25T08:57:51Z</time></trkpt>
<trkpt lat="47.646883" lon="10.36305"><ele>924.82</ele><time>2024-04-25T08:57:54Z</time></trkpt>
<trkpt lat="47.646853" lon="10.362923"><ele>925.46</ele><time>2024-04-25T08:57:58Z</time></trkpt>
<trkpt lat="47.646817" lon="10.361967"><ele>929.93</ele><time>2024-04-25T08:58:01Z</time></trkpt>
<trkpt lat="47.646738" lon="10.360803"><ele>928.76</ele><time>2024-04-25T08:58:04Z</time></trkpt>
<trkpt lat="47.646681" lon="10.360482"><ele>926.99</ele><time>2024-04-25T08:58:08Z</time></trkpt>
<trkpt lat="47.646532" lon="10.360015"><ele>924.04</ele><time>2024-04-25T08:58:11Z</time></trkpt>
<trkpt lat="47.646322" lon="10.359507"><ele>922.51</ele><time>2024-04-25T08:58:15Z</time></trkpt>
<trkpt lat="47.645869" lon="10.358743"><ele>915.15</ele><time>2024-04-25T08:58:18Z</time></trkpt>
<trkpt lat="47.645765" lon="10.358519"><ele>914.41</ele><time>2024-04-25T08:58:22Z</time></trkpt>
<trkpt lat="47.644819" lon="10.356282"><ele>905.91</ele><time>2024-04-25T08:58:25Z</time></trkpt>
<trkpt lat="47.644573" lon="10.355778"><ele>901.0</ele><time>2024-04-25T08:58:29Z</time></trkpt>
<trkpt lat="47.644395" lon="10.355454"><ele>898.16</ele><time>2024-04-25T08:58:32Z</time></trkpt>
<trkpt lat="47.644249" lon="10.355038"><ele>895.27</ele><time>2024-04-25T08:58:36Z</time></trkpt>
<trkpt lat="47.644185" lon="10.354953"><ele>894.67</ele><time>2024-04-25T08:58:39Z</time></trkpt>
<trkpt lat="47.644065" lon="10.354881"><ele>893.93</ele><time>2024-04-25T08:58:43Z</time></trkpt>
<trkpt lat="47.643878" lon="10.354908"><ele>893.59</ele><time>2024-04-25T08:58:46Z</time></trkpt>
<trkpt lat="47.643234" lon="10.355042"><ele>888.59</ele><time>2024-04-25T08:58:50Z</time></trkpt>
<trkpt lat="47.642871" lon="10.355218"><ele>885.92</ele><time>2024-04-25T08:58:53Z</time></trkpt>
<trkpt lat="47.642972" lon="10.353556"><ele>879.0</ele><time>2024-04-25T08:58:55Z</time></trkpt>
<trkpt lat="47.643033" lon="10.353386"><ele>879.0</ele><time>2024-04-25T08:58:58Z</time></trkpt>
<trkpt lat="47.643201" lon="10.353079"><ele>879.57</ele><time>2024-04-25T08:59:00Z</time></trkpt>
<trkpt lat="47.643302" lon="10.352953"><ele>879.19</ele><time>2024-04-25T08:59:02Z</time></trkpt>
<trkpt lat="47.643513" lon="10.352786"><ele>877.41</ele><time>2024-04-25T08:59:04Z</time></trkpt>
<trkpt lat="47.643597" lon="10.352749"><ele>876.85</ele><time>2024-04-25T08:59:06Z</time></trkpt>
<trkpt lat="47.64486" lon="10.352428"><ele>867.85</ele><time>2024-04-25T08:59:09Z</time></trkpt>
<trkpt lat="47.645322" lon="10.352398"><ele>868.89</ele><time>2024-04-25T08:59:11Z</time></trkpt>
<trkpt lat="47.645725" lon="10.352457"><ele>863.98</ele><time>2024-04-25T08:59:13Z</time></trkpt>
<trkpt lat="47.646035" lon="10.352544"><ele>860.22</ele><time>2024-04-25T08:59:15Z</time></trkpt>
<trkpt lat="47.647304" lon="10.35314"><ele>857.21</ele><time>2024-04-25T08:59:17Z</time></trkpt>
<trkpt lat="47.648398" lon="10.353658"><ele>851.97</ele><time>2024-04-25T08:59:20Z</time></trkpt>
<trkpt lat="47.648788" lon="10.35382"><ele>852.02</ele><time>2024-04-25T08:59:22Z</time></trkpt>
<trkpt lat="47.648998" lon="10.353869"><ele>851.17</ele><time>2024-04-25T08:59:24Z</time></trkpt>
<trkpt lat="47.649847" lon="10.35392"><ele>844.31</ele><time>2024-04-25T08:59:26Z</time></trkpt>
<trkpt lat="47.651329" lon="10.354231"><ele>830.73</ele><time>2024-04-25T08:59:28Z</time></trkpt>
<trkpt lat="47.651507" lon="10.354244"><ele>830.74</ele><time>2024-04-25T08:59:31Z</time></trkpt>
<trkpt lat="47.651606" lon="10.354184"><ele>830.81</ele><time>2024-04-25T08:59:33Z</time></trkpt>
<trkpt lat="47.651686" lon="10.354053"><ele>829.77</ele><time>2024-04-25T08:59:35Z</time></trkpt>
<trkpt lat="47.651708" lon="10.353978"><ele>828.96</ele><time>2024-04-25T08:59:37Z</time></trkpt>
<trkpt lat="47.651721" lon="10.3538"><ele>826.92</ele><time>2024-04-25T08:59:39Z</time></trkpt>
<trkpt lat="47.651714" lon="10.353733"><ele>826.13</ele><time>2024-04-25T08:59:42Z</time></trkpt>
<trkpt lat="47.651668" lon="10.353601"><ele>824.85</ele><time>2024-04-25T08:59:44Z</time></trkpt>
<trkpt lat="47.651499" lon="10.353441"><ele>822.55</ele><time>2024-04-25T08:59:46Z</time></trkpt>
<trkpt lat="47.650989" lon="10.353061"><ele>825.38</ele><time>2024-04-25T08:59:48Z</time></trkpt>
<trkpt lat="47.650819" lon="10.352882"><ele>826.52</ele><time>2024-04-25T08:59:50Z</time></trkpt>
<trkpt lat="47.650652" lon="10.352583"><ele>826.39</ele><time>2024-04-25T08:59:53Z</time></trkpt>
<trkpt lat="47.650543" lon="10.352295"><ele>824.58</ele><time>2024-04-25T08:59:55Z</time></trkpt>
<trkpt lat="47.650481" lon="10.35199"><ele>822.98</ele><time>2024-04-25T08:59:57Z</time></trkpt>
<trkpt lat="47.650444" lon="10.351627"><ele>818.59</ele><time>2024-04-25T08:59:59Z</time></trkpt>
<trkpt lat="47.650386" lon="10.351279"><ele>813.81</ele><time>2024-04-25T09:00:01Z</time></trkpt>
<trkpt lat="47.65032" lon="10.351039"><ele>811.22</ele><time>2024-04-25T09:00:04Z</time></trkpt>
<trkpt lat="47.650227" lon="10.350811"><ele>808.97</ele><time>2024-04-25T09:00:06Z</time></trkpt>
<trkpt lat="47.650047" lon="10.35049"><ele>807.3</ele><time>2024-04-25T09:00:08Z</time></trkpt>
<trkpt lat="47.649573" lon="10.34974"><ele>804.27</ele><time>2024-04-25T09:00:10Z</time></trkpt>
<trkpt lat="47.649537" lon="10.349608"><ele>802.83</ele><time>2024-04-25T09:00:12Z</time></trkpt>
<trkpt lat="47.649523" lon="10.349424"><ele>800.48</ele><time>2024-04-25T09:00:15Z</time></trkpt>
<trkpt lat="47.649541" lon="10.349284"><ele>798.71</ele><time>2024-04-25T09:00:17Z</time></trkpt>
<trkpt lat="47.6496" lon="10.349143"><ele>796.59</ele><time>2024-04-25T09:00:19Z</time></trkpt>
<trkpt lat="47.649675" lon="10.349035"><ele>794.84</ele><time>2024-04-25T09:00:21Z</time></trkpt>
<trkpt lat="47.64977" lon="10.348968"><ele>793.61</ele><time>2024-04-25T09:00:23Z</time></trkpt>
<trkpt lat="47.649887" lon="10.348937"><ele>792.54</ele><time>2024-04-25T09:00:26Z</time></trkpt>
<trkpt lat="47.650003" lon="10.348955"><ele>792.14</ele><time>2024-04-25T09:00:28Z</time></trkpt>
<trkpt lat="47.652302" lon="10.350077"><ele>754.98</ele><time>2024-04-25T09:00:30Z</time></trkpt>
<trkpt lat="47.652524" lon="10.350124"><ele>753.68</ele><time>2024-04-25T09:00:32Z</time></trkpt>
<trkpt lat="47.652717" lon="10.350125"><ele>751.98</ele><time>2024-04-25T09:00:34Z</time></trkpt>
<trkpt lat="47.652838" lon="10.350091"><ele>750.82</ele><time>2024-04-25T09:00:36Z</time></trkpt>
<trkpt lat="47.652981" lon="10.350008"><ele>749.55</ele><time>2024-04-25T09:00:39Z</time></trkpt>
<trkpt lat="47.653114" lon="10.349867"><ele>748.2</ele><time>2024-04-25T09:00:41Z</time></trkpt>
<trkpt lat="47.653307" lon="10.349573"><ele>745.97</ele><time>2024-04-25T09:00:43Z</time></trkpt>
<trkpt lat="47.653643" lon="10.348767"><ele>739.55</ele><time>2024-04-25T09:00:45Z</time></trkpt>
<trkpt lat="47.653751" lon="10.34855"><ele>737.67</ele><time>2024-04-25T09:00:48Z</time></trkpt>
<trkpt lat="47.653575" lon="10.348425"><ele>736.53</ele><time>2024-04-25T09:00:49Z</time></trkpt>
<trkpt lat="47.653321" lon="10.348368"><ele>735.38</ele><time>2024-04-25T09:00:51Z</time></trkpt>
<trkpt lat="47.653205" lon="10.348289"><ele>735.99</ele><time>2024-04-25T09:00:53Z</time></trkpt>
<trkpt lat="47.653098" lon="10.348181"><ele>735.98</ele><time>2024-04-25T09:00:55Z</time></trkpt>
<trkpt lat="47.652766" lon="10.347635"><ele>734.12</ele><time>2024-04-25T09:00:57Z</time></trkpt>
<trkpt lat="47.652471" lon="10.347011"><ele>735.57</ele><time>2024-04-25T09:00:59Z</time></trkpt>
<trkpt lat="47.652175" lon="10.346624"><ele>736.18</ele><time>2024-04-25T09:01:00Z</time></trkpt>
<trkpt lat="47.651839" lon="10.346266"><ele>734.99</ele><time>2024-04-25T09:01:02Z</time></trkpt>
<trkpt lat="47.651698" lon="10.346175"><ele>734.69</ele><time>2024-04-25T09:01:04Z</time></trkpt>
<trkpt lat="47.651579" lon="10.346146"><ele>735.06</ele><time>2024-04-25T09:01:06Z</time></trkpt>
<trkpt lat="47.650631" lon="10.346086"><ele>743.91</ele><time>2024-04-25T09:01:08Z</time></trkpt>
<trkpt lat="47.650476" lon="10.345978"><ele>746.57</ele><time>2024-04-25T09:01:10Z</time></trkpt>
<trkpt lat="47.650409" lon="10.345892"><ele>748.06</ele><time>2024-04-25T09:01:11Z</time></trkpt>
<trkpt lat="47.65018" lon="10.345467"><ele>750.37</ele><time>2024-04-25T09:01:13Z</time></trkpt>
<trkpt lat="47.649647" lon="10.344567"><ele>746.37</ele><time>2024-04-25T09:01:15Z</time></trkpt>
<trkpt lat="47.649586" lon="10.344418"><ele>746.42</ele><time>2024-04-25T09:01:17Z</time></trkpt>
<trkpt lat="47.649352" lon="10.34368"><ele>748.42</ele><time>2024-04-25T09:01:19Z</time></trkpt>
<trkpt lat="47.649291" lon="10.343549"><ele>748.55</ele><time>2024-04-25T09:01:21Z</time></trkpt>
<trkpt lat="47.649136" lon="10.343352"><ele>749.22</ele><time>2024-04-25T09:01:22Z</time></trkpt>
<trkpt lat="47.648426" lon="10.342707"><ele>753.66</ele><time>2024-04-25T09:01:24Z</time></trkpt>
<trkpt lat="47.648187" lon="10.342349"><ele>753.51</ele><time>2024-04-25T09:01:26Z</time></trkpt>
<trkpt lat="47.647848" lon="10.341747"><ele>753.57</ele><time>2024-04-25T09:01:28Z</time></trkpt>
<trkpt lat="47.647751" lon="10.341495"><ele>754.1</ele><time>2024-04-25T09:01:30Z</time></trkpt>
<trkpt lat="47.647598" lon="10.340954"><ele>752.07</ele><time>2024-04-25T09:01:32Z</time></trkpt>
<trkpt lat="47.64748" lon="10.340469"><ele>751.14</ele><time>2024-04-25T09:01:33Z</time></trkpt>
<trkpt lat="47.647415" lon="10.340287"><ele>751.61</ele><time>2024-04-25T09:01:35Z</time></trkpt>
<trkpt lat="47.647332" lon="10.340132"><ele>752.42</ele><time>2024-04-25T09:01:37Z</time></trkpt>
<trkpt lat="47.647241" lon="10.340024"><ele>752.93</ele><time>2024-04-25T09:01:39Z</time></trkpt>
<trkpt lat="47.646808" lon="10.339659"><ele>750.17</ele><time>2024-04-25T09:01:41Z</time></trkpt>
<trkpt lat="47.646451" lon="10.339244"><ele>749.77</ele><time>2024-04-25T09:01:43Z</time></trkpt>
<trkpt lat="47.64619" lon="10.339005"><ele>748.28</ele><time>2024-04-25T09:01:44Z</time></trkpt>
<trkpt lat="47.646031" lon="10.338895"><ele>746.18</ele><time>2024-04-25T09:01:46Z</time></trkpt>
<trkpt lat="47.645481" lon="10.338592"><ele>744.79</ele><time>2024-04-25T09:01:48Z</time></trkpt>
<trkpt lat="47.645365" lon="10.33851"><ele>745.81</ele><time>2024-04-25T09:01:50Z</time></trkpt>
<trkpt lat="47.645119" lon="10.338278"><ele>747.71</ele><time>2024-04-25T09:01:52Z</time></trkpt>
<trkpt lat="47.644419" lon="10.337338"><ele>750.54</ele><time>2024-04-25T09:01:54Z</time></trkpt>
<trkpt lat="47.644195" lon="10.337075"><ele>752.06</ele><time>2024-04-25T09:01:55Z</time></trkpt>
<trkpt lat="47.643675" lon="10.336527"><ele>747.79</ele><time>2024-04-25T09:01:57Z</time></trkpt>
<trkpt lat="47.643546" lon="10.336359"><ele>746.45</ele><time>2024-04-25T09:01:59Z</time></trkpt>
<trkpt lat="47.643127" lon="10.335579"><ele>743.76</ele><time>2024-04-25T09:02:01Z</time></trkpt>
<trkpt lat="47.643221" lon="10.335462"><ele>743.99</ele><time>2024-04-25T09:02:04Z</time></trkpt>
<trkpt lat="47.64334" lon="10.335257"><ele>743.9</ele><time>2024-04-25T09:02:06Z</time></trkpt>
<trkpt lat="47.64364" lon="10.334188"><ele>734.25</ele><time>2024-04-25T09:02:09Z</time></trkpt>
<trkpt lat="47.643804" lon="10.333772"><ele>733.69</ele><time>2024-04-25T09:02:12Z</time></trkpt>
<trkpt lat="47.643932" lon="10.333534"><ele>734.0</ele><time>2024-04-25T09:02:15Z</time></trkpt>
<trkpt lat="47.644113" lon="10.333274"><ele>733.79</ele><time>2024-04-25T09:02:18Z</time></trkpt>
<trkpt lat="47.644344" lon="10.33302"><ele>733.38</ele><time>2024-04-25T09:02:20Z</time></trkpt>
<trkpt lat="47.644558" lon="10.332682"><ele>730.9</ele><time>2024-04-25T09:02:23Z</time></trkpt>
<trkpt lat="47.645054" lon="10.331673"><ele>724.02</ele><time>2024-04-25T09:02:26Z</time></trkpt>
<trkpt lat="47.645615" lon="10.330482"><ele>726.21</ele><time>2024-04-25T09:02:29Z</time></trkpt>
<trkpt lat="47.645775" lon="10.329968"><ele>726.63</ele><time>2024-04-25T09:02:31Z</time></trkpt>
<trkpt lat="47.645811" lon="10.329635"><ele>725.98</ele><time>2024-04-25T09:02:34Z</time></trkpt>
<trkpt lat="47.645832" lon="10.328716"><ele>723.4</ele><time>2024-04-25T09:02:37Z</time></trkpt>
<trkpt lat="47.645859" lon="10.328468"><ele>720.81</ele><time>2024-04-25T09:02:40Z</time></trkpt>
<trkpt lat="47.645983" lon="10.327955"><ele>710.13</ele><time>2024-04-25T09:02:42Z</time></trkpt>
<trkpt lat="47.646282" lon="10.327177"><ele>702.06</ele><time>2024-04-25T09:02:45Z</time></trkpt>
<trkpt lat="47.646389" lon="10.326814"><ele>702.47</ele><time>2024-04-25T09:02:48Z</time></trkpt>
<trkpt lat="47.64642" lon="10.326578"><ele>703.0</ele><time>2024-04-25T09:02:51Z</time></trkpt>
<trkpt lat="47.646416" lon="10.326254"><ele>702.56</ele><time>2024-04-25T09:02:53Z</time></trkpt>
<trkpt lat="47.646304" lon="10.325448"><ele>699.04</ele><time>2024-04-25T09:02:56Z</time></trkpt>
<trkpt lat="47.646058" lon="10.325431"><ele>698.64</ele><time>2024-04-25T09:02:59Z</time></trkpt>
<trkpt lat="47.645772" lon="10.32537"><ele>699.0</ele><time>2024-04-25T09:03:02Z</time></trkpt>
<trkpt lat="47.645493" lon="10.325258"><ele>698.93</ele><time>2024-04-25T09:03:05Z</time></trkpt>
<trkpt lat="47.645244" lon="10.325111"><ele>698.45</ele><time>2024-04-25T09:03:09Z</time></trkpt>
<trkpt lat="47.64503" lon="10.324954"><ele>697.83</ele><time>2024-04-25T09:03:12Z</time></trkpt>
<trkpt lat="47.644815" lon="10.324741"><ele>697.78</ele><time>2024-04-25T09:03:15Z</time></trkpt>
<trkpt lat="47.644617" lon="10.324509"><ele>696.94</ele><time>2024-04-25T09:03:18Z</time></trkpt>
<trkpt lat="47.644381" lon="10.324125"><ele>696.54</ele><time>2024-04-25T09:03:21Z</time></trkpt>
<trkpt lat="47.644221" lon="10.323789"><ele>696.77</ele><time>2024-04-25T09:03:24Z</time></trkpt>
<trkpt lat="47.644079" lon="10.32338"><ele>695.28</ele><time>2024-04-25T09:03:27Z</time></trkpt>
<trkpt lat="47.643856" lon="10.322557"><ele>697.11</ele><time>2024-04-25T09:03:30Z</time></trkpt>
<trkpt lat="47.643718" lon="10.322183"><ele>698.56</ele><time>2024-04-25T09:03:33Z</time></trkpt>
<trkpt lat="47.643583" lon="10.321891"><ele>697.91</ele><time>2024-04-25T09:03:36Z</time></trkpt>
<trkpt lat="47.643289" lon="10.321444"><ele>696.91</ele><time>2024-04-25T09:03:39Z</time></trkpt>
<trkpt lat="47.643141" lon="10.32127"><ele>697.25</ele><time>2024-04-25T09:03:42Z</time></trkpt>
<trkpt lat="47.642733" lon="10.320894"><ele>700.14</ele><time>2024-04-25T09:03:45Z</time></trkpt>
<trkpt lat="47.642008" lon="10.320508"><ele>700.11</ele><time>2024-04-25T09:03:48Z</time></trkpt>
<trkpt lat="47.641728" lon="10.320312"><ele>698.05</ele><time>2024-04-25T09:03:51Z</time></trkpt>
<trkpt lat="47.641508" lon="10.32006"><ele>699.35</ele><time>2024-04-25T09:03:54Z</time></trkpt>
<trkpt lat="47.641341" lon="10.319769"><ele>702.73</ele><time>2024-04-25T09:03:57Z</time></trkpt>
<trkpt lat="47.641247" lon="10.319565"><ele>704.93</ele><time>2024-04-25T09:04:01Z</time></trkpt>
<trkpt lat="47.641111" lon="10.319179"><ele>707.96</ele><time>2024-04-25T09:04:04Z</time></trkpt>
<trkpt lat="47.641063" lon="10.318988"><ele>708.93</ele><time>2024-04-25T09:04:07Z</time></trkpt>
<trkpt lat="47.640966" lon="10.318418"><ele>707.66</ele><time>2024-04-25T09:04:10Z</time></trkpt>
<trkpt lat="47.640878" lon="10.318012"><ele>703.54</ele><time>2024-04-25T09:04:13Z</time></trkpt>
<trkpt lat="47.640769" lon="10.317674"><ele>702.12</ele><time>2024-04-25T09:04:16Z</time></trkpt>
<trkpt lat="47.640632" lon="10.317358"><ele>703.39</ele><time>2024-04-25T09:04:19Z</time></trkpt>
<trkpt lat="47.640468" lon="10.317091"><ele>703.52</ele><time>2024-04-25T09:04:22Z</time></trkpt>
<trkpt lat="47.640068" lon="10.316595"><ele>700.68</ele><time>2024-04-25T09:04:25Z</time></trkpt>
<trkpt lat="47.63985" lon="10.316295"><ele>700.74</ele><time>2024-04-25T09:04:28Z</time></trkpt>
<trkpt lat="47.639697" lon="10.316049"><ele>700.86</ele><time>2024-04-25T09:04:31Z</time></trkpt>
<trkpt lat="47.639569" lon="10.315786"><ele>700.3</ele><time>2024-04-25T09:04:34Z</time></trkpt>
<trkpt lat="47.639415" lon="10.315363"><ele>699.66</ele><time>2024-04-25T09:04:37Z</time></trkpt>
<trkpt lat="47.63928" lon="10.314839"><ele>702.36</ele><time>2024-04-25T09:04:40Z</time></trkpt>
<trkpt lat="47.639191" lon="10.314183"><ele>700.02</ele><time>2024-04-25T09:04:43Z</time></trkpt>
<trkpt lat="47.639036" lon="10.313469"><ele>700.91</ele><time>2024-04-25T09:04:46Z</time></trkpt>
<trkpt lat="47.638852" lon="10.312819"><ele>702.12</ele><time>2024-04-25T09:04:49Z</time></trkpt>
<trkpt lat="47.638547" lon="10.312171"><ele>704.65</ele><time>2024-04-25T09:04:53Z</time></trkpt>
<trkpt lat="47.638054" lon="10.311393"><ele>704.05</ele><time>2024-04-25T09:04:56Z</time></trkpt>
<trkpt lat="47.637664" lon="10.310736"><ele>702.56</ele><time>2024-04-25T09:04:59Z</time></trkpt>
<trkpt lat="47.637095" lon="10.309408"><ele>705.66</ele><time>2024-04-25T09:05:02Z</time></trkpt>
<trkpt lat="47.636843" lon="10.308999"><ele>702.9</ele><time>2024-04-25T09:05:05Z</time></trkpt>
<trkpt lat="47.636633" lon="10.308482"><ele>700.43</ele><time>2024-04-25T09:05:08Z</time></trkpt>
<trkpt lat="47.63637" lon="10.30759"><ele>700.28</ele><time>2024-04-25T09:05:11Z</time></trkpt>
<trkpt lat="47.636318" lon="10.307353"><ele>698.82</ele><time>2024-04-25T09:05:14Z</time></trkpt>
<trkpt lat="47.636225" lon="10.307067"><ele>698.0</ele><time>2024-04-25T09:05:17Z</time></trkpt>
<trkpt lat="47.636052" lon="10.306909"><ele>698.34</ele><time>2024-04-25T09:05:20Z</time></trkpt>
<trkpt lat="47.635931" lon="10.306885"><ele>698.86</ele><time>2024-04-25T09:05:23Z</time></trkpt>
<trkpt lat="47.635697" lon="10.306888"><ele>699.79</ele><time>2024-04-25T09:05:26Z</time></trkpt>
<trkpt lat="47.6355" lon="10.306859"><ele>700.42</ele><time>2024-04-25T09:05:29Z</time></trkpt>
<trkpt lat="47.635365" lon="10.306811"><ele>700.28</ele><time>2024-04-25T09:05:32Z</time></trkpt>
<trkpt lat="47.63503" lon="10.306578"><ele>698.65</ele><time>2024-04-25T09:05:35Z</time></trkpt>
<trkpt lat="47.634865" lon="10.306427"><ele>698.86</ele><time>2024-04-25T09:05:38Z</time></trkpt>
<trkpt lat="47.634647" lon="10.306328"><ele>699.43</ele><time>2024-04-25T09:05:42Z</time></trkpt>
<trkpt lat="47.634284" lon="10.306365"><ele>701.15</ele><time>2024-04-25T09:05:45Z</time></trkpt>
<trkpt lat="47.634208" lon="10.306349"><ele>701.7</ele><time>2024-04-25T09:05:48Z</time></trkpt>
<trkpt lat="47.634131" lon="10.306282"><ele>702.46</ele><time>2024-04-25T09:05:51Z</time></trkpt>
<trkpt lat="47.634046" lon="10.306147"><ele>703.36</ele><time>2024-04-25T09:05:54Z</time></trkpt>
<trkpt lat="47.633755" lon="10.305559"><ele>705.0</ele><time>2024-04-25T09:05:57Z</time></trkpt>
<trkpt lat="47.633498" lon="10.305164"><ele>705.17</ele><time>2024-04-25T09:06:00Z</time></trkpt>
<trkpt lat="47.633366" lon="10.304995"><ele>706.02</ele><time>2024-04-25T09:06:03Z</time></trkpt>
<trkpt lat="47.633196" lon="10.30482"><ele>706.16</ele><time>2024-04-25T09:06:06Z</time></trkpt>
<trkpt lat="47.632849" lon="10.304521"><ele>704.49</ele><time>2024-04-25T09:06:09Z</time></trkpt>
<trkpt lat="47.63246" lon="10.304239"><ele>705.56</ele><time>2024-04-25T09:06:12Z</time></trkpt>
<trkpt lat="47.632331" lon="10.304119"><ele>706.34</ele><time>2024-04-25T09:06:15Z</time></trkpt>
<trkpt lat="47.632229" lon="10.303963"><ele>707.46</ele><time>2024-04-25T09:06:18Z</time></trkpt>
<trkpt lat="47.631963" lon="10.303347"><ele>709.15</ele><time>2024-04-25T09:06:21Z</time></trkpt>
<trkpt lat="47.63187" lon="10.303023"><ele>707.92</ele><time>2024-04-25T09:06:24Z</time></trkpt>
<trkpt lat="47.631794" lon="10.302442"><ele>708.6</ele><time>2024-04-25T09:06:27Z</time></trkpt>
<trkpt lat="47.631718" lon="10.301566"><ele>709.18</ele><time>2024-04-25T09:06:30Z</time></trkpt>
<trkpt lat="47.63162" lon="10.301095"><ele>708.83</ele><time>2024-04-25T09:06:34Z</time></trkpt>
<trkpt lat="47.631534" lon="10.300825"><ele>708.49</ele><time>2024-04-25T09:06:37Z</time></trkpt>
<trkpt lat="47.631428" lon="10.300308"><ele>707.78</ele><time>2024-04-25T09:06:40Z</time></trkpt>
<trkpt lat="47.631375" lon="10.299877"><ele>708.0</ele><time>2024-04-25T09:06:43Z</time></trkpt>
<trkpt lat="47.631346" lon="10.299171"><ele>706.17</ele><time>2024-04-25T09:06:46Z</time></trkpt>
<trkpt lat="47.631324" lon="10.298929"><ele>706.23</ele><time>2024-04-25T09:06:49Z</time></trkpt>
<trkpt lat="47.63109" lon="10.29771"><ele>700.78</ele><time>2024-04-25T09:06:52Z</time></trkpt>
<trkpt lat="47.631003" lon="10.297449"><ele>700.39</ele><time>2024-04-25T09:06:55Z</time></trkpt>
<trkpt lat="47.63065" lon="10.296748"><ele>701.39</ele><time>2024-04-25T09:06:58Z</time></trkpt>
<trkpt lat="47.630474" lon="10.296442"><ele>699.97</ele><time>2024-04-25T09:07:01Z</time></trkpt>
<trkpt lat="47.62968" lon="10.2951"><ele>702.96</ele><time>2024-04-25T09:07:04Z</time></trkpt>
<trkpt lat="47.629075" lon="10.294187"><ele>699.78</ele><time>2024-04-25T09:07:07Z</time></trkpt>
<trkpt lat="47.628984" lon="10.293967"><ele>699.6</ele><time>2024-04-25T09:07:10Z</time></trkpt>
<trkpt lat="47.628919" lon="10.293737"><ele>698.75</ele><time>2024-04-25T09:07:13Z</time></trkpt>
<trkpt lat="47.628879" lon="10.293231"><ele>694.65</ele><time>2024-04-25T09:07:16Z</time></trkpt>
<trkpt lat="47.628887" lon="10.29257"><ele>694.76</ele><time>2024-04-25T09:07:19Z</time></trkpt>
<trkpt lat="47.62886" lon="10.292127"><ele>698.03</ele><time>2024-04-25T09:07:22Z</time></trkpt>
<trkpt lat="47.628714" lon="10.291357"><ele>697.88</ele><time>2024-04-25T09:07:26Z</time></trkpt>
<trkpt lat="47.628586" lon="10.290957"><ele>696.46</ele><time>2024-04-25T09:07:29Z</time></trkpt>
<trkpt lat="47.628377" lon="10.290414"><ele>695.49</ele><time>2024-04-25T09:07:32Z</time></trkpt>
<trkpt lat="47.627326" lon="10.28807"><ele>697.02</ele><time>2024-04-25T09:07:35Z</time></trkpt>
<trkpt lat="47.627166" lon="10.287834"><ele>696.32</ele><time>2024-04-25T09:07:38Z</time></trkpt>
<trkpt lat="47.626887" lon="10.287528"><ele>696.08</ele><time>2024-04-25T09:07:41Z</time></trkpt>
<trkpt lat="47.626531" lon="10.287298"><ele>696.72</ele><time>2024-04-25T09:07:44Z</time></trkpt>
<trkpt lat="47.62549" lon="10.286903"><ele>696.76</ele><time>2024-04-25T09:07:47Z</time></trkpt>
<trkpt lat="47.624345" lon="10.28642"><ele>694.36</ele><time>2024-04-25T09:07:50Z</time></trkpt>
<trkpt lat="47.624003" lon="10.2863"><ele>695.99</ele><time>2024-04-25T09:07:53Z</time></trkpt>
<trkpt lat="47.622424" lon="10.285613"><ele>695.7</ele><time>2024-04-25T09:07:56Z</time></trkpt>
<trkpt lat="47.622193" lon="10.285534"><ele>697.11</ele><time>2024-04-25T09:07:59Z</time></trkpt>
<trkpt lat="47.621978" lon="10.285524"><ele>697.88</ele><time>2024-04-25T09:08:02Z</time></trkpt>
<trkpt lat="47.621582" lon="10.285579"><ele>698.03</ele><time>2024-04-25T09:08:05Z</time></trkpt>
<trkpt lat="47.621458" lon="10.285562"><ele>698.02</ele><time>2024-04-25T09:08:08Z</time></trkpt>
<trkpt lat="47.621798" lon="10.283717"><ele>698.71</ele><time>2024-04-25T09:08:15Z</time></trkpt>
<trkpt lat="47.621823" lon="10.283547"><ele>698.31</ele><time>2024-04-25T09:08:21Z</time></trkpt>
<trkpt lat="47.621847" lon="10.282153"><ele>697.44</ele><time>2024-04-25T09:08:27Z</time></trkpt>
<trkpt lat="47.621878" lon="10.281906"><ele>697.61</ele><time>2024-04-25T09:08:33Z</time></trkpt>
<trkpt lat="47.621949" lon="10.281715"><ele>697.83</ele><time>2024-04-25T09:08:39Z</time></trkpt>
<trkpt lat="47.621741" lon="10.281516"><ele>699.86</ele><time>2024-04-25T09:08:42Z</time></trkpt>
<trkpt lat="47.621591" lon="10.281429"><ele>701.44</ele><time>2024-04-25T09:08:45Z</time></trkpt>
<trkpt lat="47.621499" lon="10.281386"><ele>702.22</ele><time>2024-04-25T09:08:48Z</time></trkpt>
<trkpt lat="47.621397" lon="10.281377"><ele>702.98</ele><time>2024-04-25T09:08:51Z</time></trkpt>
<trkpt lat="47.62133" lon="10.28141"><ele>702.77</ele><time>2024-04-25T09:08:53Z</time></trkpt>
<trkpt lat="47.621251" lon="10.281485"><ele>702.33</ele><time>2024-04-25T09:08:56Z</time></trkpt>
<trkpt lat="47.62115" lon="10.281666"><ele>701.28</ele><time>2024-04-25T09:08:59Z</time></trkpt>
<trkpt lat="47.620932" lon="10.282542"><ele>699.85</ele><time>2024-04-25T09:09:02Z</time></trkpt>
<trkpt lat="47.620883" lon="10.282668"><ele>699.4</ele><time>2024-04-25T09:09:05Z</time></trkpt>
<trkpt lat="47.620818" lon="10.282761"><ele>698.95</ele><time>2024-04-25T09:09:07Z</time></trkpt>
<trkpt lat="47.620721" lon="10.282844"><ele>698.05</ele><time>2024-04-25T09:09:10Z</time></trkpt>
<trkpt lat="47.620551" lon="10.282889"><ele>697.0</ele><time>2024-04-25T09:09:13Z</time></trkpt>
<trkpt lat="47.619693" lon="10.282755"><ele>698.92</ele><time>2024-04-25T09:09:16Z</time></trkpt>
<trkpt lat="47.619566" lon="10.282772"><ele>698.99</ele><time>2024-04-25T09:09:19Z</time></trkpt>
<trkpt lat="47.61908" lon="10.282904"><ele>700.17</ele><time>2024-04-25T09:09:21Z</time></trkpt>
<trkpt lat="47.619014" lon="10.282905"><ele>700.3</ele><time>2024-04-25T09:09:24Z</time></trkpt>
<trkpt lat="47.618915" lon="10.282815"><ele>700.78</ele><time>2024-04-25T09:09:27Z</time></trkpt>
<trkpt lat="47.618627" lon="10.282137"><ele>701.69</ele><time>2024-04-25T09:09:30Z</time></trkpt>
<trkpt lat="47.618352" lon="10.281689"><ele>702.93</ele><time>2024-04-25T09:09:33Z</time></trkpt>
<trkpt lat="47.61796" lon="10.281198"><ele>705.89</ele><time>2024-04-25T09:09:35Z</time></trkpt>
<trkpt lat="47.617103" lon="10.279969"><ele>712.35</ele><time>2024-04-25T09:09:38Z</time></trkpt>
<trkpt lat="47.616761" lon="10.279549"><ele>716.53</ele><time>2024-04-25T09:09:41Z</time></trkpt>
<trkpt lat="47.616247" lon="10.279046"><ele>720.35</ele><time>2024-04-25T09:09:44Z</time></trkpt>
<trkpt lat="47.615976" lon="10.278834"><ele>719.81</ele><time>2024-04-25T09:09:47Z</time></trkpt>
<trkpt lat="47.615292" lon="10.278409"><ele>717.49</ele><time>2024-04-25T09:09:49Z</time></trkpt>
<trkpt lat="47.615056" lon="10.278232"><ele>717.57</ele><time>2024-04-25T09:09:52Z</time></trkpt>
<trkpt lat="47.614828" lon="10.277934"><ele>718.44</ele><time>2024-04-25T09:09:55Z</time></trkpt>
<trkpt lat="47.614785" lon="10.277829"><ele>718.82</ele><time>2024-04-25T09:09:58Z</time></trkpt>
<trkpt lat="47.614708" lon="10.27754"><ele>719.04</ele><time>2024-04-25T09:10:00Z</time></trkpt>
<trkpt lat="47.614633" lon="10.277101"><ele>723.6</ele><time>2024-04-25T09:10:03Z</time></trkpt>
<trkpt lat="47.614491" lon="10.276591"><ele>728.15</ele><time>2024-04-25T09:10:06Z</time></trkpt>
<trkpt lat="47.614162" lon="10.27536"><ele>729.43</ele><time>2024-04-25T09:10:09Z</time></trkpt>
<trkpt lat="47.61385" lon="10.274237"><ele>730.47</ele><time>2024-04-25T09:10:12Z</time></trkpt>
<trkpt lat="47.613723" lon="10.273862"><ele>727.83</ele><time>2024-04-25T09:10:14Z</time></trkpt>
<trkpt lat="47.613551" lon="10.273523"><ele>726.53</ele><time>2024-04-25T09:10:17Z</time></trkpt>
<trkpt lat="47.613441" lon="10.273385"><ele>726.07</ele><time>2024-04-25T09:10:20Z</time></trkpt>
<trkpt lat="47.61322" lon="10.273175"><ele>724.51</ele><time>2024-04-25T09:10:23Z</time></trkpt>
<trkpt lat="47.613067" lon="10.273085"><ele>724.01</ele><time>2024-04-25T09:10:26Z</time></trkpt>
<trkpt lat="47.612876" lon="10.27302"><ele>723.02</ele><time>2024-04-25T09:10:28Z</time></trkpt>
<trkpt lat="47.612457" lon="10.272936"><ele>720.31</ele><time>2024-04-25T09:10:31Z</time></trkpt>
<trkpt lat="47.612099" lon="10.272837"><ele>717.78</ele><time>2024-04-25T09:10:34Z</time></trkpt>
<trkpt lat="47.611875" lon="10.272753"><ele>718.64</ele><time>2024-04-25T09:10:37Z</time></trkpt>
<trkpt lat="47.611455" lon="10.272459"><ele>721.03</ele><time>2024-04-25T09:10:40Z</time></trkpt>
<trkpt lat="47.6112" lon="10.272156"><ele>718.84</ele><time>2024-04-25T09:10:42Z</time></trkpt>
<trkpt lat="47.610938" lon="10.271677"><ele>715.57</ele><time>2024-04-25T09:10:45Z</time></trkpt>
<trkpt lat="47.610444" lon="10.270528"><ele>710.86</ele><time>2024-04-25T09:10:48Z</time></trkpt>
<trkpt lat="47.610155" lon="10.270088"><ele>711.26</ele><time>2024-04-25T09:10:51Z</time></trkpt>
<trkpt lat="47.609893" lon="10.269797"><ele>709.61</ele><time>2024-04-25T09:10:54Z</time></trkpt>
<trkpt lat="47.609192" lon="10.26924"><ele>709.67</ele><time>2024-04-25T09:10:56Z</time></trkpt>
<trkpt lat="47.609042" lon="10.269093"><ele>710.0</ele><time>2024-04-25T09:10:59Z</time></trkpt>
<trkpt lat="47.608749" lon="10.268737"><ele>709.72</ele><time>2024-04-25T09:11:02Z</time></trkpt>
<trkpt lat="47.608648" lon="10.268579"><ele>709.13</ele><time>2024-04-25T09:11:05Z</time></trkpt>
<trkpt lat="47.608427" lon="10.268078"><ele>709.05</ele><time>2024-04-25T09:11:08Z</time></trkpt>
<trkpt lat="47.608321" lon="10.267673"><ele>708.0</ele><time>2024-04-25T09:11:10Z</time></trkpt>
<trkpt lat="47.608259" lon="10.267349"><ele>708.25</ele><time>2024-04-25T09:11:13Z</time></trkpt>
<trkpt lat="47.608225" lon="10.266949"><ele>708.22</ele><time>2024-04-25T09:11:16Z</time></trkpt>
<trkpt lat="47.608331" lon="10.265144"><ele>707.51</ele><time>2024-04-25T09:11:19Z</time></trkpt>
<trkpt lat="47.608287" lon="10.264465"><ele>706.06</ele><time>2024-04-25T09:11:22Z</time></trkpt>
<trkpt lat="47.608229" lon="10.26414"><ele>706.1</ele><time>2024-04-25T09:11:24Z</time></trkpt>
<trkpt lat="47.608155" lon="10.263856"><ele>707.12</ele><time>2024-04-25T09:11:27Z</time></trkpt>
<trkpt lat="47.607976" lon="10.263346"><ele>708.67</ele><time>2024-04-25T09:11:30Z</time></trkpt>
<trkpt lat="47.607647" lon="10.262518"><ele>708.52</ele><time>2024-04-25T09:11:33Z</time></trkpt>
<trkpt lat="47.606787" lon="10.260434"><ele>708.63</ele><time>2024-04-25T09:11:36Z</time></trkpt>
<trkpt lat="47.606584" lon="10.259985"><ele>709.74</ele><time>2024-04-25T09:11:38Z</time></trkpt>
<trkpt lat="47.606338" lon="10.259518"><ele>708.87</ele><time>2024-04-25T09:11:41Z</time></trkpt>
<trkpt lat="47.606122" lon="10.259171"><ele>707.05</ele><time>2024-04-25T09:11:44Z</time></trkpt>
<trkpt lat="47.605691" lon="10.258628"><ele>707.51</ele><time>2024-04-25T09:11:47Z</time></trkpt>
<trkpt lat="47.603718" lon="10.256496"><ele>706.0</ele><time>2024-04-25T09:11:50Z</time></trkpt>
<trkpt lat="47.603177" lon="10.25598"><ele>705.97</ele><time>2024-04-25T09:11:52Z</time></trkpt>
<trkpt lat="47.602805" lon="10.255719"><ele>705.37</ele><time>2024-04-25T09:11:55Z</time></trkpt>
<trkpt lat="47.601376" lon="10.255034"><ele>711.0</ele><time>2024-04-25T09:11:58Z</time></trkpt>
<trkpt lat="47.601228" lon="10.254942"><ele>710.79</ele><time>2024-04-25T09:12:01Z</time></trkpt>
<trkpt lat="47.60109" lon="10.254845"><ele>710.37</ele><time>2024-04-25T09:12:04Z</time></trkpt>
<trkpt lat="47.600187" lon="10.254035"><ele>706.64</ele><time>2024-04-25T09:12:06Z</time></trkpt>
<trkpt lat="47.599922" lon="10.253828"><ele>707.0</ele><time>2024-04-25T09:12:09Z</time></trkpt>
<trkpt lat="47.598902" lon="10.253161"><ele>708.0</ele><time>2024-04-25T09:12:12Z</time></trkpt>
<trkpt lat="47.598149" lon="10.252801"><ele>709.97</ele><time>2024-04-25T09:12:15Z</time></trkpt>
<trkpt lat="47.598391" lon="10.251557"><ele>708.0</ele><time>2024-04-25T09:12:26Z</time></trkpt>
<trkpt lat="47.598676" lon="10.248625"><ele>709.68</ele><time>2024-04-25T09:12:38Z</time></trkpt>
<trkpt lat="47.598708" lon="10.2481"><ele>710.94</ele><time>2024-04-25T09:12:49Z</time></trkpt>
<trkpt lat="47.598707" lon="10.247627"><ele>711.18</ele><time>2024-04-25T09:13:00Z</time></trkpt>
<trkpt lat="47.598646" lon="10.247017"><ele>712.13</ele><time>2024-04-25T09:13:12Z</time></trkpt>
<trkpt lat="47.598343" lon="10.244901"><ele>717.75</ele><time>2024-04-25T09:13:23Z</time></trkpt>
<trkpt lat="47.598364" lon="10.244583"><ele>719.05</ele><time>2024-04-25T09:13:35Z</time></trkpt>
<trkpt lat="47.598336" lon="10.244434"><ele>719.12</ele><time>2024-04-25T09:13:36Z</time></trkpt>
<trkpt lat="47.598273" lon="10.244279"><ele>720.48</ele><time>2024-04-25T09:13:37Z</time></trkpt>
<trkpt lat="47.598141" lon="10.244254"><ele>720.15</ele><time>2024-04-25T09:13:42Z</time></trkpt>
<trkpt lat="47.597629" lon="10.243916"><ele>718.99</ele><time>2024-04-25T09:13:47Z</time></trkpt>
<trkpt lat="47.597455" lon="10.243756"><ele>719.07</ele><time>2024-04-25T09:13:52Z</time></trkpt>
<trkpt lat="47.597011" lon="10.243265"><ele>719.94</ele><time>2024-04-25T09:13:57Z</time></trkpt>
<trkpt lat="47.596864" lon="10.243179"><ele>719.28</ele><time>2024-04-25T09:14:02Z</time></trkpt>
<trkpt lat="47.59617" lon="10.242971"><ele>723.53</ele><time>2024-04-25T09:14:07Z</time></trkpt>
<trkpt lat="47.595288" lon="10.242477"><ele>726.32</ele><time>2024-04-25T09:14:12Z</time></trkpt>
<trkpt lat="47.594773" lon="10.24234"><ele>722.85</ele><time>2024-04-25T09:14:17Z</time></trkpt>
<trkpt lat="47.594141" lon="10.242002"><ele>717.82</ele><time>2024-04-25T09:14:22Z</time></trkpt>
<trkpt lat="47.593992" lon="10.241965"><ele>716.74</ele><time>2024-04-25T09:14:27Z</time></trkpt>
<trkpt lat="47.593759" lon="10.241962"><ele>716.0</ele><time>2024-04-25T09:14:32Z</time></trkpt>
<trkpt lat="47.593594" lon="10.24191"><ele>715.89</ele><time>2024-04-25T09:14:37Z</time></trkpt>
<trkpt lat="47.593294" lon="10.241643"><ele>716.08</ele><time>2024-04-25T09:14:42Z</time></trkpt>
<trkpt lat="47.593108" lon="10.241575"><ele>716.33</ele><time>2024-04-25T09:14:47Z</time></trkpt>
<trkpt lat="47.592631" lon="10.241519"><ele>718.81</ele><time>2024-04-25T09:14:52Z</time></trkpt>
<trkpt lat="47.592114" lon="10.241052"><ele>720.68</ele><time>2024-04-25T09:14:57Z</time></trkpt>
<trkpt lat="47.591791" lon="10.240842"><ele>723.51</ele><time>2024-04-25T09:15:02Z</time></trkpt>
<trkpt lat="47.591539" lon="10.240729"><ele>724.2</ele><time>2024-04-25T09:15:07Z</time></trkpt>
<trkpt lat="47.591345" lon="10.240672"><ele>723.62</ele><time>2024-04-25T09:15:12Z</time></trkpt>
<trkpt lat="47.590784" lon="10.240649"><ele>721.09</ele><time>2024-04-25T09:15:17Z</time></trkpt>
<trkpt lat="47.590246" lon="10.240417"><ele>717.83</ele><time>2024-04-25T09:15:22Z</time></trkpt>
<trkpt lat="47.589907" lon="10.240196"><ele>717.49</ele><time>2024-04-25T09:15:27Z</time></trkpt>
<trkpt lat="47.589651" lon="10.24"><ele>717.74</ele><time>2024-04-25T09:15:32Z</time></trkpt>
<trkpt lat="47.589384" lon="10.239761"><ele>717.61</ele><time>2024-04-25T09:15:37Z</time></trkpt>
<trkpt lat="47.588993" lon="10.239339"><ele>716.61</ele><time>2024-04-25T09:15:42Z</time></trkpt>
<trkpt lat="47.588408" lon="10.238808"><ele>717.1</ele><time>2024-04-25T09:15:47Z</time></trkpt>
<trkpt lat="47.587421" lon="10.238366"><ele>717.6</ele><time>2024-04-25T09:15:52Z</time></trkpt>
<trkpt lat="47.587038" lon="10.238057"><ele>717.34</ele><time>2024-04-25T09:15:57Z</time></trkpt>
<trkpt lat="47.586506" lon="10.23895"><ele>718.13</ele><time>2024-04-25T09:16:04Z</time></trkpt>
<trkpt lat="47.586345" lon="10.239239"><ele>718.7</ele><time>2024-04-25T09:16:11Z</time></trkpt>
<trkpt lat="47.586248" lon="10.239492"><ele>717.32</ele><time>2024-04-25T09:16:18Z</time></trkpt>
<trkpt lat="47.586153" lon="10.239913"><ele>715.46</ele><time>2024-04-25T09:16:25Z</time></trkpt>
<trkpt lat="47.586033" lon="10.240597"><ele>715.4</ele><time>2024-04-25T09:16:32Z</time></trkpt>
<trkpt lat="47.585933" lon="10.241499"><ele>712.07</ele><time>2024-04-25T09:16:39Z</time></trkpt>
<trkpt lat="47.585853" lon="10.241931"><ele>711.86</ele><time>2024-04-25T09:16:45Z</time></trkpt>
<trkpt lat="47.585829" lon="10.241995"><ele>711.83</ele><time>2024-04-25T09:16:52Z</time></trkpt>
<trkpt lat="47.585782" lon="10.242064"><ele>711.68</ele><time>2024-04-25T09:16:53Z</time></trkpt>
<trkpt lat="47.585681" lon="10.242128"><ele>711.52</ele><time>2024-04-25T09:16:54Z</time></trkpt>
<trkpt lat="47.585538" lon="10.242114"><ele>711.77</ele><time>2024-04-25T09:16:55Z</time></trkpt>
<trkpt lat="47.584707" lon="10.241346"><ele>711.11</ele><time>2024-04-25T09:17:01Z</time></trkpt>
<trkpt lat="47.584234" lon="10.241005"><ele>713.99</ele><time>2024-04-25T09:17:07Z</time></trkpt>
<trkpt lat="47.583975" lon="10.240893"><ele>715.62</ele><time>2024-04-25T09:17:13Z</time></trkpt>
<trkpt lat="47.583674" lon="10.240794"><ele>717.44</ele><time>2024-04-25T09:17:19Z</time></trkpt>
<trkpt lat="47.583372" lon="10.240749"><ele>718.3</ele><time>2024-04-25T09:17:26Z</time></trkpt>
<trkpt lat="47.583069" lon="10.240748"><ele>717.14</ele><time>2024-04-25T09:17:32Z</time></trkpt>
<trkpt lat="47.582764" lon="10.240799"><ele>716.86</ele><time>2024-04-25T09:17:38Z</time></trkpt>
<trkpt lat="47.582421" lon="10.240919"><ele>719.28</ele><time>2024-04-25T09:17:44Z</time></trkpt>
<trkpt lat="47.581387" lon="10.24138"><ele>719.04</ele><time>2024-04-25T09:17:50Z</time></trkpt>
<trkpt lat="47.580601" lon="10.241603"><ele>720.65</ele><time>2024-04-25T09:17:57Z</time></trkpt>
<trkpt lat="47.580141" lon="10.241675"><ele>718.37</ele><time>2024-04-25T09:18:03Z</time></trkpt>
<trkpt lat="47.579809" lon="10.241695"><ele>716.98</ele><time>2024-04-25T09:18:09Z</time></trkpt>
<trkpt lat="47.579489" lon="10.241703"><ele>715.87</ele><time>2024-04-25T09:18:15Z</time></trkpt>
<trkpt lat="47.579096" lon="10.241647"><ele>714.31</ele><time>2024-04-25T09:18:21Z</time></trkpt>
<trkpt lat="47.578796" lon="10.241566"><ele>715.33</ele><time>2024-04-25T09:18:28Z</time></trkpt>
<trkpt lat="47.578423" lon="10.241408"><ele>715.95</ele><time>2024-04-25T09:18:34Z</time></trkpt>
<trkpt lat="47.57786" lon="10.241067"><ele>716.27</ele><time>2024-04-25T09:18:40Z</time></trkpt>
<trkpt lat="47.577356" lon="10.240759"><ele>718.91</ele><time>2024-04-25T09:18:46Z</time></trkpt>
<trkpt lat="47.577014" lon="10.24051"><ele>719.41</ele><time>2024-04-25T09:18:52Z</time></trkpt>
<trkpt lat="47.576138" lon="10.239945"><ele>723.85</ele><time>2024-04-25T09:18:59Z</time></trkpt>
<trkpt lat="47.574114" lon="10.238622"><ele>740.85</ele><time>2024-04-25T09:19:05Z</time></trkpt>
<trkpt lat="47.573741" lon="10.238374"><ele>738.61</ele><time>2024-04-25T09:19:11Z</time></trkpt>
<trkpt lat="47.573493" lon="10.238125"><ele>738.11</ele><time>2024-04-25T09:19:17Z</time></trkpt>
<trkpt lat="47.573381" lon="10.237953"><ele>737.84</ele><time>2024-04-25T09:19:23Z</time></trkpt>
<trkpt lat="47.573064" lon="10.237289"><ele>735.84</ele><time>2024-04-25T09:19:30Z</time></trkpt>
<trkpt lat="47.572905" lon="10.237041"><ele>736.73</ele><time>2024-04-25T09:19:36Z</time></trkpt>
<trkpt lat="47.572904" lon="10.236878"><ele>736.54</ele><time>2024-04-25T09:19:39Z</time></trkpt>
<trkpt lat="47.572855" lon="10.236732"><ele>736.72</ele><time>2024-04-25T09:19:43Z</time></trkpt>
<trkpt lat="47.572814" lon="10.236676"><ele>736.87</ele><time>2024-04-25T09:19:47Z</time></trkpt>
<trkpt lat="47.572713" lon="10.236611"><ele>737.43</ele><time>2024-04-25T09:19:50Z</time></trkpt>
<trkpt lat="47.572625" lon="10.236613"><ele>737.74</ele><time>2024-04-25T09:19:54Z</time></trkpt>
<trkpt lat="47.572543" lon="10.236662"><ele>737.86</ele><time>2024-04-25T09:19:58Z</time></trkpt>
<trkpt lat="47.572467" lon="10.236779"><ele>737.59</ele><time>2024-04-25T09:20:01Z</time></trkpt>
<trkpt lat="47.572359" lon="10.236817"><ele>737.46</ele><time>2024-04-25T09:20:05Z</time></trkpt>
<trkpt lat="47.57219" lon="10.236758"><ele>738.24</ele><time>2024-04-25T09:20:08Z</time></trkpt>
<trkpt lat="47.571902" lon="10.236616"><ele>743.16</ele><time>2024-04-25T09:20:12Z</time></trkpt>
<trkpt lat="47.571785" lon="10.236505"><ele>743.46</ele><time>2024-04-25T09:20:16Z</time></trkpt>
<trkpt lat="47.570408" lon="10.235099"><ele>730.42</ele><time>2024-04-25T09:20:19Z</time></trkpt>
<trkpt lat="47.569633" lon="10.234346"><ele>724.76</ele><time>2024-04-25T09:20:23Z</time></trkpt>
<trkpt lat="47.56869" lon="10.235418"><ele>720.5</ele><time>2024-04-25T09:20:26Z</time></trkpt>
<trkpt lat="47.568588" lon="10.235566"><ele>721.21</ele><time>2024-04-25T09:20:29Z</time></trkpt>
<trkpt lat="47.568547" lon="10.235677"><ele>722.0</ele><time>2024-04-25T09:20:32Z</time></trkpt>
<trkpt lat="47.568486" lon="10.235933"><ele>724.39</ele><time>2024-04-25T09:20:34Z</time></trkpt>
<trkpt lat="47.568463" lon="10.236203"><ele>728.64</ele><time>2024-04-25T09:20:37Z</time></trkpt>
<trkpt lat="47.568494" lon="10.236432"><ele>733.42</ele><time>2024-04-25T09:20:40Z</time></trkpt>
<trkpt lat="47.568534" lon="10.236578"><ele>737.03</ele><time>2024-04-25T09:20:43Z</time></trkpt>
<trkpt lat="47.568673" lon="10.236873"><ele>741.62</ele><time>2024-04-25T09:20:46Z</time></trkpt>
<trkpt lat="47.569495" lon="10.237796"><ele>741.68</ele><time>2024-04-25T09:20:49Z</time></trkpt>
<trkpt lat="47.569599" lon="10.237953"><ele>740.79</ele><time>2024-04-25T09:20:51Z</time></trkpt>
<trkpt lat="47.56969" lon="10.238172"><ele>740.86</ele><time>2024-04-25T09:20:54Z</time></trkpt>
<trkpt lat="47.569747" lon="10.238367"><ele>741.14</ele><time>2024-04-25T09:20:57Z</time></trkpt>
<trkpt lat="47.56979" lon="10.238616"><ele>742.89</ele><time>2024-04-25T09:21:00Z</time></trkpt>
<trkpt lat="47.56979" lon="10.238957"><ele>745.58</ele><time>2024-04-25T09:21:03Z</time></trkpt>
<trkpt lat="47.569762" lon="10.239167"><ele>745.26</ele><time>2024-04-25T09:21:06Z</time></trkpt>
<trkpt lat="47.569668" lon="10.239497"><ele>743.31</ele><time>2024-04-25T09:21:08Z</time></trkpt>
<trkpt lat="47.569527" lon="10.239746"><ele>740.29</ele><time>2024-04-25T09:21:11Z</time></trkpt>
<trkpt lat="47.569349" lon="10.239985"><ele>737.03</ele><time>2024-04-25T09:21:14Z</time></trkpt>
<trkpt lat="47.568923" lon="10.240377"><ele>729.58</ele><time>2024-04-25T09:21:17Z</time></trkpt>
<trkpt lat="47.56877" lon="10.240573"><ele>726.03</ele><time>2024-04-25T09:21:20Z</time></trkpt>
<trkpt lat="47.568632" lon="10.240808"><ele>724.92</ele><time>2024-04-25T09:21:22Z</time></trkpt>
<trkpt lat="47.568497" lon="10.241126"><ele>724.16</ele><time>2024-04-25T09:21:25Z</time></trkpt>
<trkpt lat="47.568359" lon="10.241498"><ele>723.86</ele><time>2024-04-25T09:21:28Z</time></trkpt>
<trkpt lat="47.568232" lon="10.241908"><ele>722.55</ele><time>2024-04-25T09:21:31Z</time></trkpt>
<trkpt lat="47.568199" lon="10.242159"><ele>723.23</ele><time>2024-04-25T09:21:34Z</time></trkpt>
<trkpt lat="47.568192" lon="10.242348"><ele>725.36</ele><time>2024-04-25T09:21:37Z</time></trkpt>
<trkpt lat="47.568251" lon="10.24284"><ele>731.04</ele><time>2024-04-25T09:21:39Z</time></trkpt>
<trkpt lat="47.568155" lon="10.242875"><ele>734.18</ele><time>2024-04-25T09:21:44Z</time></trkpt>
<trkpt lat="47.568093" lon="10.242861"><ele>735.81</ele><time>2024-04-25T09:21:49Z</time></trkpt>
<trkpt lat="47.568036" lon="10.242803"><ele>736.62</ele><time>2024-04-25T09:21:54Z</time></trkpt>
<trkpt lat="47.567813" lon="10.242365"><ele>733.3</ele><time>2024-04-25T09:21:59Z</time></trkpt>
<trkpt lat="47.567676" lon="10.242157"><ele>733.25</ele><time>2024-04-25T09:22:04Z</time></trkpt>
<trkpt lat="47.567518" lon="10.241934"><ele>733.54</ele><time>2024-04-25T09:22:09Z</time></trkpt>
<trkpt lat="47.567149" lon="10.241546"><ele>735.18</ele><time>2024-04-25T09:22:14Z</time></trkpt>
<trkpt lat="47.566943" lon="10.241414"><ele>737.2</ele><time>2024-04-25T09:22:19Z</time></trkpt>
<trkpt lat="47.566701" lon="10.241305"><ele>739.1</ele><time>2024-04-25T09:22:24Z</time></trkpt>
<trkpt lat="47.56647" lon="10.241244"><ele>739.66</ele><time>2024-04-25T09:22:29Z</time></trkpt>
<trkpt lat="47.566204" lon="10.241206"><ele>739.68</ele><time>2024-04-25T09:22:34Z</time></trkpt>
<trkpt lat="47.565924" lon="10.241218"><ele>740.7</ele><time>2024-04-25T09:22:39Z</time></trkpt>
<trkpt lat="47.565552" lon="10.241273"><ele>743.75</ele><time>2024-04-25T09:22:44Z</time></trkpt>
<trkpt lat="47.564493" lon="10.241576"><ele>750.95</ele><time>2024-04-25T09:22:49Z</time></trkpt>
<trkpt lat="47.56351" lon="10.24194"><ele>745.75</ele><time>2024-04-25T09:22:53Z</time></trkpt>
<trkpt lat="47.563194" lon="10.24214"><ele>740.2</ele><time>2024-04-25T09:22:58Z</time></trkpt>
<trkpt lat="47.562927" lon="10.242396"><ele>738.23</ele><time>2024-04-25T09:23:03Z</time></trkpt>
<trkpt lat="47.562413" lon="10.243025"><ele>735.18</ele><time>2024-04-25T09:23:08Z</time></trkpt>
<trkpt lat="47.562167" lon="10.243298"><ele>734.0</ele><time>2024-04-25T09:23:13Z</time></trkpt>
<trkpt lat="47.561112" lon="10.244075"><ele>730.67</ele><time>2024-04-25T09:23:18Z</time></trkpt>
<trkpt lat="47.560893" lon="10.244261"><ele>730.21</ele><time>2024-04-25T09:23:23Z</time></trkpt>
<trkpt lat="47.560694" lon="10.244486"><ele>728.35</ele><time>2024-04-25T09:23:28Z</time></trkpt>
<trkpt lat="47.560504" lon="10.244772"><ele>726.82</ele><time>2024-04-25T09:23:33Z</time></trkpt>
<trkpt lat="47.560376" lon="10.245078"><ele>726.0</ele><time>2024-04-25T09:23:38Z</time></trkpt>
<trkpt lat="47.560047" lon="10.246026"><ele>726.88</ele><time>2024-04-25T09:23:43Z</time></trkpt>
<trkpt lat="47.559912" lon="10.246307"><ele>727.54</ele><time>2024-04-25T09:23:48Z</time></trkpt>
<trkpt lat="47.559797" lon="10.246474"><ele>728.46</ele><time>2024-04-25T09:23:53Z</time></trkpt>
<trkpt lat="47.559697" lon="10.246587"><ele>728.97</ele><time>2024-04-25T09:23:58Z</time></trkpt>
<trkpt lat="47.559561" lon="10.246698"><ele>729.0</ele><time>2024-04-25T09:24:02Z</time></trkpt>
<trkpt lat="47.559215" lon="10.246901"><ele>729.0</ele><time>2024-04-25T09:24:07Z</time></trkpt>
<trkpt lat="47.559088" lon="10.247013"><ele>728.86</ele><time>2024-04-25T09:24:12Z</time></trkpt>
<trkpt lat="47.558988" lon="10.247171"><ele>727.95</ele><time>2024-04-25T09:24:17Z</time></trkpt>
<trkpt lat="47.558906" lon="10.24735"><ele>727.12</ele><time>2024-04-25T09:24:22Z</time></trkpt>
<trkpt lat="47.558842" lon="10.247574"><ele>726.88</ele><time>2024-04-25T09:24:27Z</time></trkpt>
<trkpt lat="47.558487" lon="10.250098"><ele>720.25</ele><time>2024-04-25T09:24:32Z</time></trkpt>
<trkpt lat="47.558485" lon="10.250335"><ele>719.81</ele><time>2024-04-25T09:24:37Z</time></trkpt>
<trkpt lat="47.558613" lon="10.250791"><ele>719.0</ele><time>2024-04-25T09:24:42Z</time></trkpt>
<trkpt lat="47.558616" lon="10.250929"><ele>719.68</ele><time>2024-04-25T09:24:47Z</time></trkpt>
<trkpt lat="47.558586" lon="10.251071"><ele>720.72</ele><time>2024-04-25T09:24:52Z</time></trkpt>
<trkpt lat="47.558514" lon="10.251224"><ele>721.41</ele><time>2024-04-25T09:24:57Z</time></trkpt>
<trkpt lat="47.55841" lon="10.251295"><ele>721.66</ele><time>2024-04-25T09:25:02Z</time></trkpt>
<trkpt lat="47.558222" lon="10.250548"><ele>720.43</ele><time>2024-04-25T09:25:04Z</time></trkpt>
<trkpt lat="47.558088" lon="10.250129"><ele>721.88</ele><time>2024-04-25T09:25:07Z</time></trkpt>
<trkpt lat="47.557928" lon="10.249726"><ele>723.98</ele><time>2024-04-25T09:25:10Z</time></trkpt>
<trkpt lat="47.557791" lon="10.249448"><ele>724.94</ele><time>2024-04-25T09:25:13Z</time></trkpt>
<trkpt lat="47.557654" lon="10.249222"><ele>725.36</ele><time>2024-04-25T09:25:16Z</time></trkpt>
<trkpt lat="47.55729" lon="10.248722"><ele>725.85</ele><time>2024-04-25T09:25:18Z</time></trkpt>
<trkpt lat="47.556758" lon="10.248148"><ele>727.78</ele><time>2024-04-25T09:25:21Z</time></trkpt>
<trkpt lat="47.556755" lon="10.248069"><ele>727.97</ele><time>2024-04-25T09:25:24Z</time></trkpt>
<trkpt lat="47.556733" lon="10.247996"><ele>728.0</ele><time>2024-04-25T09:25:27Z</time></trkpt>
<trkpt lat="47.556652" lon="10.247905"><ele>727.95</ele><time>2024-04-25T09:25:30Z</time></trkpt>
<trkpt lat="47.556553" lon="10.247909"><ele>727.59</ele><time>2024-04-25T09:25:34Z</time></trkpt>
<trkpt lat="47.556503" lon="10.24796"><ele>727.41</ele><time>2024-04-25T09:25:37Z</time></trkpt>
<trkpt lat="47.556311" lon="10.2479"><ele>726.75</ele><time>2024-04-25T09:25:40Z</time></trkpt>
<trkpt lat="47.555843" lon="10.247516"><ele>726.01</ele><time>2024-04-25T09:25:43Z</time></trkpt>
<trkpt lat="47.555453" lon="10.247065"><ele>726.5</ele><time>2024-04-25T09:25:46Z</time></trkpt>
<trkpt lat="47.555161" lon="10.246569"><ele>728.01</ele><time>2024-04-25T09:25:49Z</time></trkpt>
<trkpt lat="47.554965" lon="10.246154"><ele>725.05</ele><time>2024-04-25T09:25:52Z</time></trkpt>
<trkpt lat="47.554764" lon="10.245591"><ele>721.96</ele><time>2024-04-25T09:25:55Z</time></trkpt>
<trkpt lat="47.554689" lon="10.245357"><ele>721.32</ele><time>2024-04-25T09:25:58Z</time></trkpt>
<trkpt lat="47.554646" lon="10.245159"><ele>720.26</ele><time>2024-04-25T09:26:02Z</time></trkpt>
<trkpt lat="47.554562" lon="10.244733"><ele>719.02</ele><time>2024-04-25T09:26:05Z</time></trkpt>
<trkpt lat="47.554489" lon="10.244029"><ele>719.24</ele><time>2024-04-25T09:26:08Z</time></trkpt>
<trkpt lat="47.554477" lon="10.243719"><ele>719.16</ele><time>2024-04-25T09:26:11Z</time></trkpt>
<trkpt lat="47.554492" lon="10.243246"><ele>719.51</ele><time>2024-04-25T09:26:14Z</time></trkpt>
<trkpt lat="47.554534" lon="10.242759"><ele>718.31</ele><time>2024-04-25T09:26:17Z</time></trkpt>
<trkpt lat="47.554644" lon="10.242167"><ele>717.34</ele><time>2024-04-25T09:26:20Z</time></trkpt>
<trkpt lat="47.554771" lon="10.24166"><ele>717.66</ele><time>2024-04-25T09:26:23Z</time></trkpt>
<trkpt lat="47.554968" lon="10.241068"><ele>717.37</ele><time>2024-04-25T09:26:26Z</time></trkpt>
<trkpt lat="47.55546" lon="10.23975"><ele>720.97</ele><time>2024-04-25T09:26:30Z</time></trkpt>
<trkpt lat="47.555714" lon="10.239"><ele>719.17</ele><time>2024-04-25T09:26:33Z</time></trkpt>
<trkpt lat="47.55586" lon="10.238411"><ele>718.03</ele><time>2024-04-25T09:26:36Z</time></trkpt>
<trkpt lat="47.555971" lon="10.237802"><ele>719.41</ele><time>2024-04-25T09:26:39Z</time></trkpt>
<trkpt lat="47.556031" lon="10.237261"><ele>721.21</ele><time>2024-04-25T09:26:42Z</time></trkpt>
<trkpt lat="47.55606" lon="10.236709"><ele>720.34</ele><time>2024-04-25T09:26:45Z</time></trkpt>
<trkpt lat="47.556058" lon="10.236326"><ele>719.15</ele><time>2024-04-25T09:26:48Z</time></trkpt>
<trkpt lat="47.556033" lon="10.235872"><ele>719.0</ele><time>2024-04-25T09:26:51Z</time></trkpt>
<trkpt lat="47.555978" lon="10.235302"><ele>719.52</ele><time>2024-04-25T09:26:54Z</time></trkpt>
<trkpt lat="47.555836" lon="10.234572"><ele>719.54</ele><time>2024-04-25T09:26:58Z</time></trkpt>
<trkpt lat="47.555742" lon="10.234231"><ele>719.92</ele><time>2024-04-25T09:27:01Z</time></trkpt>
<trkpt lat="47.55559" lon="10.233862"><ele>719.91</ele><time>2024-04-25T09:27:04Z</time></trkpt>
<trkpt lat="47.554701" lon="10.232008"><ele>719.23</ele><time>2024-04-25T09:27:07Z</time></trkpt>
<trkpt lat="47.554615" lon="10.231741"><ele>719.28</ele><time>2024-04-25T09:27:10Z</time></trkpt>
<trkpt lat="47.554631" lon="10.23167"><ele>719.32</ele><time>2024-04-25T09:27:12Z</time></trkpt>
<trkpt lat="47.554626" lon="10.231603"><ele>719.34</ele><time>2024-04-25T09:27:14Z</time></trkpt>
<trkpt lat="47.554583" lon="10.231517"><ele>719.5</ele><time>2024-04-25T09:27:16Z</time></trkpt>
<trkpt lat="47.554544" lon="10.231493"><ele>719.64</ele><time>2024-04-25T09:27:18Z</time></trkpt>
<trkpt lat="47.554482" lon="10.231499"><ele>719.86</ele><time>2024-04-25T09:27:20Z</time></trkpt>
<trkpt lat="47.554336" lon="10.23131"><ele>720.0</ele><time>2024-04-25T09:27:22Z</time></trkpt>
<trkpt lat="47.554139" lon="10.230924"><ele>720.0</ele><time>2024-04-25T09:27:24Z</time></trkpt>
<trkpt lat="47.553951" lon="10.230692"><ele>719.6</ele><time>2024-04-25T09:27:26Z</time></trkpt>
<trkpt lat="47.553814" lon="10.230598"><ele>719.11</ele><time>2024-04-25T09:27:28Z</time></trkpt>
<trkpt lat="47.553459" lon="10.230485"><ele>719.55</ele><time>2024-04-25T09:27:30Z</time></trkpt>
<trkpt lat="47.553431" lon="10.230416"><ele>719.65</ele><time>2024-04-25T09:27:36Z</time></trkpt>
<trkpt lat="47.553382" lon="10.230379"><ele>719.82</ele><time>2024-04-25T09:27:41Z</time></trkpt>
<trkpt lat="47.553332" lon="10.230381"><ele>720.01</ele><time>2024-04-25T09:27:46Z</time></trkpt>
<trkpt lat="47.553289" lon="10.230418"><ele>720.4</ele><time>2024-04-25T09:27:52Z</time></trkpt>
<trkpt lat="47.553261" lon="10.230491"><ele>720.72</ele><time>2024-04-25T09:27:57Z</time></trkpt>
<trkpt lat="47.553264" lon="10.230575"><ele>720.8</ele><time>2024-04-25T09:28:02Z</time></trkpt>
<trkpt lat="47.553158" lon="10.230845"><ele>722.26</ele><time>2024-04-25T09:28:07Z</time></trkpt>
<trkpt lat="47.552999" lon="10.231109"><ele>723.62</ele><time>2024-04-25T09:28:13Z</time></trkpt>
<trkpt lat="47.552746" lon="10.231649"><ele>722.36</ele><time>2024-04-25T09:28:18Z</time></trkpt>
<trkpt lat="47.552371" lon="10.232767"><ele>721.46</ele><time>2024-04-25T09:28:23Z</time></trkpt>
<trkpt lat="47.550978" lon="10.236692"><ele>726.31</ele><time>2024-04-25T09:28:29Z</time></trkpt>
<trkpt lat="47.550923" lon="10.236865"><ele>726.41</ele><time>2024-04-25T09:28:34Z</time></trkpt>
<trkpt lat="47.550802" lon="10.237416"><ele>725.64</ele><time>2024-04-25T09:28:39Z</time></trkpt>
<trkpt lat="47.550671" lon="10.238203"><ele>725.16</ele><time>2024-04-25T09:28:45Z</time></trkpt>
<trkpt lat="47.550614" lon="10.238743"><ele>724.94</ele><time>2024-04-25T09:28:50Z</time></trkpt>
<trkpt lat="47.550586" lon="10.239223"><ele>723.77</ele><time>2024-04-25T09:28:55Z</time></trkpt>
<trkpt lat="47.550579" lon="10.240038"><ele>721.87</ele><time>2024-04-25T09:29:00Z</time></trkpt>
<trkpt lat="47.550212" lon="10.240162"><ele>725.4</ele><time>2024-04-25T09:29:03Z</time></trkpt>
<trkpt lat="47.550075" lon="10.240243"><ele>727.58</ele><time>2024-04-25T09:29:05Z</time></trkpt>
<trkpt lat="47.54992" lon="10.240274"><ele>729.56</ele><time>2024-04-25T09:29:07Z</time></trkpt>
<trkpt lat="47.549746" lon="10.240256"><ele>730.75</ele><time>2024-04-25T09:29:10Z</time></trkpt>
<trkpt lat="47.549315" lon="10.240095"><ele>732.27</ele><time>2024-04-25T09:29:12Z</time></trkpt>
<trkpt lat="47.549131" lon="10.240094"><ele>733.64</ele><time>2024-04-25T09:29:14Z</time></trkpt>
<trkpt lat="47.549001" lon="10.240162"><ele>735.13</ele><time>2024-04-25T09:29:17Z</time></trkpt>
<trkpt lat="47.548876" lon="10.240281"><ele>737.24</ele><time>2024-04-25T09:29:19Z</time></trkpt>
<trkpt lat="47.548826" lon="10.24039"><ele>738.63</ele><time>2024-04-25T09:29:21Z</time></trkpt>
<trkpt lat="47.548781" lon="10.240532"><ele>740.21</ele><time>2024-04-25T09:29:24Z</time></trkpt>
<trkpt lat="47.54871" lon="10.240905"><ele>746.21</ele><time>2024-04-25T09:29:26Z</time></trkpt>
<trkpt lat="47.548672" lon="10.241274"><ele>749.36</ele><time>2024-04-25T09:29:28Z</time></trkpt>
<trkpt lat="47.548707" lon="10.241569"><ele>749.26</ele><time>2024-04-25T09:29:30Z</time></trkpt>
<trkpt lat="47.548688" lon="10.241823"><ele>750.86</ele><time>2024-04-25T09:29:33Z</time></trkpt>
<trkpt lat="47.548641" lon="10.241893"><ele>752.11</ele><time>2024-04-25T09:29:35Z</time></trkpt>
<trkpt lat="47.548566" lon="10.241908"><ele>753.4</ele><time>2024-04-25T09:29:37Z</time></trkpt>
<trkpt lat="47.548491" lon="10.241859"><ele>754.11</ele><time>2024-04-25T09:29:40Z</time></trkpt>
<trkpt lat="47.548135" lon="10.241486"><ele>756.56</ele><time>2024-04-25T09:29:42Z</time></trkpt>
<trkpt lat="47.548012" lon="10.241426"><ele>757.76</ele><time>2024-04-25T09:29:44Z</time></trkpt>
<trkpt lat="47.547907" lon="10.241467"><ele>759.32</ele><time>2024-04-25T09:29:47Z</time></trkpt>
<trkpt lat="47.54787" lon="10.241554"><ele>760.59</ele><time>2024-04-25T09:29:49Z</time></trkpt>
<trkpt lat="47.547845" lon="10.241672"><ele>762.12</ele><time>2024-04-25T09:29:51Z</time></trkpt>
<trkpt lat="47.547845" lon="10.241796"><ele>764.02</ele><time>2024-04-25T09:29:54Z</time></trkpt>
<trkpt lat="47.547901" lon="10.242161"><ele>767.92</ele><time>2024-04-25T09:29:56Z</time></trkpt>
<trkpt lat="47.547898" lon="10.242298"><ele>768.96</ele><time>2024-04-25T09:29:58Z</time></trkpt>
<trkpt lat="47.547869" lon="10.242396"><ele>769.5</ele><time>2024-04-25T09:30:00Z</time></trkpt>
<trkpt lat="47.547817" lon="10.242463"><ele>769.85</ele><time>2024-04-25T09:30:03Z</time></trkpt>
<trkpt lat="47.547696" lon="10.24256"><ele>770.96</ele><time>2024-04-25T09:30:05Z</time></trkpt>
<trkpt lat="47.547516" lon="10.242685"><ele>771.72</ele><time>2024-04-25T09:30:07Z</time></trkpt>
<trkpt lat="47.547391" lon="10.242827"><ele>772.22</ele><time>2024-04-25T09:30:10Z</time></trkpt>
<trkpt lat="47.546954" lon="10.243554"><ele>771.06</ele><time>2024-04-25T09:30:12Z</time></trkpt>
<trkpt lat="47.54621" lon="10.244632"><ele>776.85</ele><time>2024-04-25T09:30:14Z</time></trkpt>
<trkpt lat="47.546114" lon="10.244742"><ele>777.98</ele><time>2024-04-25T09:30:17Z</time></trkpt>
<trkpt lat="47.545794" lon="10.245023"><ele>776.36</ele><time>2024-04-25T09:30:19Z</time></trkpt>
<trkpt lat="47.545695" lon="10.245142"><ele>774.74</ele><time>2024-04-25T09:30:21Z</time></trkpt>
<trkpt lat="47.545644" lon="10.245254"><ele>773.99</ele><time>2024-04-25T09:30:24Z</time></trkpt>
<trkpt lat="47.545534" lon="10.245631"><ele>771.44</ele><time>2024-04-25T09:30:26Z</time></trkpt>
<trkpt lat="47.545426" lon="10.245895"><ele>769.59</ele><time>2024-04-25T09:30:28Z</time></trkpt>
<trkpt lat="47.545365" lon="10.246141"><ele>768.91</ele><time>2024-04-25T09:30:30Z</time></trkpt>
<trkpt lat="47.545173" lon="10.247196"><ele>767.28</ele><time>2024-04-25T09:30:33Z</time></trkpt>
<trkpt lat="47.545054" lon="10.247544"><ele>766.01</ele><time>2024-04-25T09:30:35Z</time></trkpt>
<trkpt lat="47.544873" lon="10.247859"><ele>764.84</ele><time>2024-04-25T09:30:37Z</time></trkpt>
<trkpt lat="47.54462" lon="10.248204"><ele>764.12</ele><time>2024-04-25T09:30:40Z</time></trkpt>
<trkpt lat="47.54421" lon="10.248057"><ele>764.99</ele><time>2024-04-25T09:30:42Z</time></trkpt>
<trkpt lat="47.543929" lon="10.248299"><ele>764.87</ele><time>2024-04-25T09:30:44Z</time></trkpt>
<trkpt lat="47.543776" lon="10.248378"><ele>765.1</ele><time>2024-04-25T09:30:46Z</time></trkpt>
<trkpt lat="47.543662" lon="10.248363"><ele>765.02</ele><time>2024-04-25T09:30:49Z</time></trkpt>
<trkpt lat="47.543292" lon="10.248192"><ele>765.58</ele><time>2024-04-25T09:30:51Z</time></trkpt>
<trkpt lat="47.543137" lon="10.248187"><ele>765.9</ele><time>2024-04-25T09:30:53Z</time></trkpt>
<trkpt lat="47.542777" lon="10.248358"><ele>766.92</ele><time>2024-04-25T09:30:55Z</time></trkpt>
<trkpt lat="47.542735" lon="10.248352"><ele>767.55</ele><time>2024-04-25T09:30:57Z</time></trkpt>
<trkpt lat="47.542507" lon="10.248146"><ele>771.59</ele><time>2024-04-25T09:31:00Z</time></trkpt>
<trkpt lat="47.542435" lon="10.248112"><ele>772.6</ele><time>2024-04-25T09:31:02Z</time></trkpt>
<trkpt lat="47.542235" lon="10.248159"><ele>775.19</ele><time>2024-04-25T09:31:04Z</time></trkpt>
<trkpt lat="47.542092" lon="10.248246"><ele>776.16</ele><time>2024-04-25T09:31:06Z</time></trkpt>
<trkpt lat="47.541915" lon="10.248441"><ele>777.53</ele><time>2024-04-25T09:31:08Z</time></trkpt>
<trkpt lat="47.541545" lon="10.248774"><ele>784.97</ele><time>2024-04-25T09:31:11Z</time></trkpt>
<trkpt lat="47.5415" lon="10.248881"><ele>787.47</ele><time>2024-04-25T09:31:13Z</time></trkpt>
<trkpt lat="47.541487" lon="10.248999"><ele>789.69</ele><time>2024-04-25T09:31:15Z</time></trkpt>
<trkpt lat="47.541499" lon="10.249367"><ele>793.47</ele><time>2024-04-25T09:31:17Z</time></trkpt>
<trkpt lat="47.541491" lon="10.249499"><ele>794.18</ele><time>2024-04-25T09:31:19Z</time></trkpt>
<trkpt lat="47.541452" lon="10.249656"><ele>795.37</ele><time>2024-04-25T09:31:22Z</time></trkpt>
<trkpt lat="47.541351" lon="10.249945"><ele>798.0</ele><time>2024-04-25T09:31:24Z</time></trkpt>
<trkpt lat="47.541263" lon="10.250041"><ele>801.81</ele><time>2024-04-25T09:31:26Z</time></trkpt>
<trkpt lat="47.541184" lon="10.250047"><ele>805.3</ele><time>2024-04-25T09:31:28Z</time></trkpt>
<trkpt lat="47.541115" lon="10.250004"><ele>807.88</ele><time>2024-04-25T09:31:30Z</time></trkpt>
<trkpt lat="47.541041" lon="10.249918"><ele>812.03</ele><time>2024-04-25T09:31:33Z</time></trkpt>
<trkpt lat="47.540729" lon="10.249339"><ele>820.45</ele><time>2024-04-25T09:31:35Z</time></trkpt>
<trkpt lat="47.540427" lon="10.248727"><ele>833.74</ele><time>2024-04-25T09:31:37Z</time></trkpt>
<trkpt lat="47.540366" lon="10.248491"><ele>838.01</ele><time>2024-04-25T09:31:39Z</time></trkpt>
<trkpt lat="47.540331" lon="10.247937"><ele>842.37</ele><time>2024-04-25T09:31:41Z</time></trkpt>
<trkpt lat="47.540439" lon="10.247231"><ele>839.61</ele><time>2024-04-25T09:31:44Z</time></trkpt>
<trkpt lat="47.540439" lon="10.246901"><ele>841.79</ele><time>2024-04-25T09:31:46Z</time></trkpt>
<trkpt lat="47.54018" lon="10.244942"><ele>857.9</ele><time>2024-04-25T09:31:48Z</time></trkpt>
<trkpt lat="47.540039" lon="10.244582"><ele>863.66</ele><time>2024-04-25T09:31:50Z</time></trkpt>
<trkpt lat="47.539941" lon="10.244422"><ele>866.49</ele><time>2024-04-25T09:31:52Z</time></trkpt>
<trkpt lat="47.539846" lon="10.24431"><ele>868.88</ele><time>2024-04-25T09:31:55Z</time></trkpt>
<trkpt lat="47.539643" lon="10.244153"><ele>872.65</ele><time>2024-04-25T09:31:57Z</time></trkpt>
<trkpt lat="47.539291" lon="10.244113"><ele>872.37</ele><time>2024-04-25T09:31:59Z</time></trkpt>
<trkpt lat="47.539212" lon="10.244074"><ele>871.66</ele><time>2024-04-25T09:32:01Z</time></trkpt>
<trkpt lat="47.539153" lon="10.244"><ele>871.45</ele><time>2024-04-25T09:32:04Z</time></trkpt>
<trkpt lat="47.539096" lon="10.243861"><ele>871.53</ele><time>2024-04-25T09:32:06Z</time></trkpt>
<trkpt lat="47.538986" lon="10.243371"><ele>876.03</ele><time>2024-04-25T09:32:08Z</time></trkpt>
<trkpt lat="47.538687" lon="10.242819"><ele>878.39</ele><time>2024-04-25T09:32:10Z</time></trkpt>
<trkpt lat="47.538242" lon="10.242182"><ele>873.34</ele><time>2024-04-25T09:32:12Z</time></trkpt>
<trkpt lat="47.538123" lon="10.242073"><ele>875.92</ele><time>2024-04-25T09:32:15Z</time></trkpt>
<trkpt lat="47.537656" lon="10.24191"><ele>880.92</ele><time>2024-04-25T09:32:17Z</time></trkpt>
<trkpt lat="47.537269" lon="10.241321"><ele>888.81</ele><time>2024-04-25T09:32:19Z</time></trkpt>
<trkpt lat="47.536967" lon="10.240668"><ele>891.35</ele><time>2024-04-25T09:32:21Z</time></trkpt>
<trkpt lat="47.536639" lon="10.240045"><ele>888.61</ele><time>2024-04-25T09:32:23Z</time></trkpt>
<trkpt lat="47.536475" lon="10.239853"><ele>888.01</ele><time>2024-04-25T09:32:26Z</time></trkpt>
<trkpt lat="47.536183" lon="10.23959"><ele>886.14</ele><time>2024-04-25T09:32:28Z</time></trkpt>
<trkpt lat="47.536102" lon="10.239441"><ele>887.97</ele><time>2024-04-25T09:32:30Z</time></trkpt>
<trkpt lat="47.535788" lon="10.238078"><ele>905.18</ele><time>2024-04-25T09:32:32Z</time></trkpt>
<trkpt lat="47.535699" lon="10.237867"><ele>908.34</ele><time>2024-04-25T09:32:34Z</time></trkpt>
<trkpt lat="47.535644" lon="10.237848"><ele>910.12</ele><time>2024-04-25T09:32:37Z</time></trkpt>
<trkpt lat="47.535591" lon="10.237876"><ele>911.85</ele><time>2024-04-25T09:32:39Z</time></trkpt>
<trkpt lat="47.535544" lon="10.237968"><ele>913.1</ele><time>2024-04-25T09:32:41Z</time></trkpt>
<trkpt lat="47.53546" lon="10.238336"><ele>911.63</ele><time>2024-04-25T09:32:43Z</time></trkpt>
<trkpt lat="47.535345" lon="10.23861"><ele>908.56</ele><time>2024-04-25T09:32:45Z</time></trkpt>
<trkpt lat="47.535126" lon="10.238831"><ele>906.24</ele><time>2024-04-25T09:32:48Z</time></trkpt>
<trkpt lat="47.535006" lon="10.238901"><ele>905.85</ele><time>2024-04-25T09:32:50Z</time></trkpt>
<trkpt lat="47.534897" lon="10.238924"><ele>905.58</ele><time>2024-04-25T09:32:52Z</time></trkpt>
<trkpt lat="47.534432" lon="10.238929"><ele>904.71</ele><time>2024-04-25T09:32:54Z</time></trkpt>
<trkpt lat="47.532953" lon="10.23869"><ele>921.5</ele><time>2024-04-25T09:32:56Z</time></trkpt>
<trkpt lat="47.532752" lon="10.238612"><ele>921.62</ele><time>2024-04-25T09:32:59Z</time></trkpt>
<trkpt lat="47.532646" lon="10.238494"><ele>921.37</ele><time>2024-04-25T09:33:01Z</time></trkpt>
<trkpt lat="47.532398" lon="10.238012"><ele>922.18</ele><time>2024-04-25T09:33:03Z</time></trkpt>
<trkpt lat="47.531859" lon="10.237226"><ele>924.43</ele><time>2024-04-25T09:33:05Z</time></trkpt>
<trkpt lat="47.531354" lon="10.236571"><ele>925.94</ele><time>2024-04-25T09:33:07Z</time></trkpt>
<trkpt lat="47.530729" lon="10.235884"><ele>935.7</ele><time>2024-04-25T09:33:10Z</time></trkpt>
<trkpt lat="47.530501" lon="10.23539"><ele>938.29</ele><time>2024-04-25T09:33:12Z</time></trkpt>
<trkpt lat="47.530427" lon="10.235299"><ele>937.65</ele><time>2024-04-25T09:33:14Z</time></trkpt>
<trkpt lat="47.529859" lon="10.234776"><ele>935.22</ele><time>2024-04-25T09:33:16Z</time></trkpt>
<trkpt lat="47.529707" lon="10.234474"><ele>932.8</ele><time>2024-04-25T09:33:19Z</time></trkpt>
<trkpt lat="47.529234" lon="10.23339"><ele>926.03</ele><time>2024-04-25T09:33:21Z</time></trkpt>
<trkpt lat="47.528985" lon="10.232976"><ele>927.14</ele><time>2024-04-25T09:33:23Z</time></trkpt>
<trkpt lat="47.528813" lon="10.232799"><ele>927.17</ele><time>2024-04-25T09:33:25Z</time></trkpt>
<trkpt lat="47.52776" lon="10.232026"><ele>923.1</ele><time>2024-04-25T09:33:27Z</time></trkpt>
<trkpt lat="47.527704" lon="10.232005"><ele>924.24</ele><time>2024-04-25T09:33:30Z</time></trkpt>
<trkpt lat="47.527639" lon="10.232019"><ele>925.04</ele><time>2024-04-25T09:33:32Z</time></trkpt>
<trkpt lat="47.527611" lon="10.232085"><ele>924.67</ele><time>2024-04-25T09:33:34Z</time></trkpt>
<trkpt lat="47.527631" lon="10.23295"><ele>918.97</ele><time>2024-04-25T09:33:36Z</time></trkpt>
<trkpt lat="47.527608" lon="10.233073"><ele>918.73</ele><time>2024-04-25T09:33:38Z</time></trkpt>
<trkpt lat="47.527241" lon="10.233641"><ele>917.72</ele><time>2024-04-25T09:33:41Z</time></trkpt>
<trkpt lat="47.527096" lon="10.233804"><ele>917.07</ele><time>2024-04-25T09:33:43Z</time></trkpt>
<trkpt lat="47.526953" lon="10.233882"><ele>917.02</ele><time>2024-04-25T09:33:45Z</time></trkpt>
<trkpt lat="47.526826" lon="10.233892"><ele>917.38</ele><time>2024-04-25T09:33:47Z</time></trkpt>
<trkpt lat="47.526748" lon="10.233882"><ele>917.76</ele><time>2024-04-25T09:33:49Z</time></trkpt>
<trkpt lat="47.526544" lon="10.233773"><ele>918.83</ele><time>2024-04-25T09:33:52Z</time></trkpt>
<trkpt lat="47.526488" lon="10.233778"><ele>918.8</ele><time>2024-04-25T09:33:54Z</time></trkpt>
<trkpt lat="47.526412" lon="10.23381"><ele>918.57</ele><time>2024-04-25T09:33:56Z</time></trkpt>
<trkpt lat="47.526233" lon="10.234038"><ele>915.03</ele><time>2024-04-25T09:33:58Z</time></trkpt>
<trkpt lat="47.52613" lon="10.234055"><ele>914.31</ele><time>2024-04-25T09:34:00Z</time></trkpt>
<trkpt lat="47.526064" lon="10.234014"><ele>913.89</ele><time>2024-04-25T09:34:03Z</time></trkpt>
<trkpt lat="47.525975" lon="10.233869"><ele>914.21</ele><time>2024-04-25T09:34:05Z</time></trkpt>
<trkpt lat="47.525176" lon="10.232274"><ele>913.16</ele><time>2024-04-25T09:34:07Z</time></trkpt>
<trkpt lat="47.525054" lon="10.232109"><ele>914.29</ele><time>2024-04-25T09:34:09Z</time></trkpt>
<trkpt lat="47.524752" lon="10.231821"><ele>913.36</ele><time>2024-04-25T09:34:11Z</time></trkpt>
<trkpt lat="47.524606" lon="10.231578"><ele>909.53</ele><time>2024-04-25T09:34:14Z</time></trkpt>
<trkpt lat="47.524451" lon="10.231037"><ele>904.5</ele><time>2024-04-25T09:34:16Z</time></trkpt>
<trkpt lat="47.524333" lon="10.230714"><ele>900.97</ele><time>2024-04-25T09:34:18Z</time></trkpt>
<trkpt lat="47.523748" lon="10.229458"><ele>892.85</ele><time>2024-04-25T09:34:20Z</time></trkpt>
<trkpt lat="47.523423" lon="10.228693"><ele>892.33</ele><time>2024-04-25T09:34:22Z</time></trkpt>
<trkpt lat="47.523222" lon="10.228427"><ele>890.86</ele><time>2024-04-25T09:34:25Z</time></trkpt>
<trkpt lat="47.523147" lon="10.228395"><ele>890.02</ele><time>2024-04-25T09:34:27Z</time></trkpt>
<trkpt lat="47.52306" lon="10.228429"><ele>888.71</ele><time>2024-04-25T09:34:29Z</time></trkpt>
<trkpt lat="47.522704" lon="10.228719"><ele>885.39</ele><time>2024-04-25T09:34:31Z</time></trkpt>
<trkpt lat="47.522612" lon="10.228759"><ele>885.21</ele><time>2024-04-25T09:34:34Z</time></trkpt>
<trkpt lat="47.522588" lon="10.228946"><ele>883.66</ele><time>2024-04-25T09:34:36Z</time></trkpt>
<trkpt lat="47.522542" lon="10.229045"><ele>882.96</ele><time>2024-04-25T09:34:38Z</time></trkpt>
<trkpt lat="47.522177" lon="10.229226"><ele>881.28</ele><time>2024-04-25T09:34:40Z</time></trkpt>
<trkpt lat="47.522022" lon="10.229316"><ele>879.87</ele><time>2024-04-25T09:34:42Z</time></trkpt>
<trkpt lat="47.521983" lon="10.229364"><ele>879.47</ele><time>2024-04-25T09:34:45Z</time></trkpt>
<trkpt lat="47.52193" lon="10.229466"><ele>878.95</ele><time>2024-04-25T09:34:47Z</time></trkpt>
<trkpt lat="47.521909" lon="10.229612"><ele>878.87</ele><time>2024-04-25T09:34:49Z</time></trkpt>
<trkpt lat="47.52194" lon="10.229855"><ele>878.98</ele><time>2024-04-25T09:34:51Z</time></trkpt>
<trkpt lat="47.521991" lon="10.230113"><ele>879.0</ele><time>2024-04-25T09:34:53Z</time></trkpt>
<trkpt lat="47.522034" lon="10.230235"><ele>879.0</ele><time>2024-04-25T09:34:55Z</time></trkpt>
<trkpt lat="47.52234" lon="10.230761"><ele>879.0</ele><time>2024-04-25T09:34:58Z</time></trkpt>
<trkpt lat="47.52245" lon="10.231002"><ele>878.5</ele><time>2024-04-25T09:35:00Z</time></trkpt>
<trkpt lat="47.522527" lon="10.231222"><ele>877.64</ele><time>2024-04-25T09:35:02Z</time></trkpt>
<trkpt lat="47.522614" lon="10.231654"><ele>877.24</ele><time>2024-04-25T09:35:04Z</time></trkpt>
<trkpt lat="47.522621" lon="10.231803"><ele>877.37</ele><time>2024-04-25T09:35:06Z</time></trkpt>
<trkpt lat="47.522603" lon="10.232066"><ele>877.53</ele><time>2024-04-25T09:35:09Z</time></trkpt>
<trkpt lat="47.522538" lon="10.232254"><ele>877.37</ele><time>2024-04-25T09:35:11Z</time></trkpt>
<trkpt lat="47.522489" lon="10.232348"><ele>877.45</ele><time>2024-04-25T09:35:13Z</time></trkpt>
<trkpt lat="47.522293" lon="10.232597"><ele>878.87</ele><time>2024-04-25T09:35:15Z</time></trkpt>
<trkpt lat="47.522197" lon="10.232761"><ele>881.1</ele><time>2024-04-25T09:35:17Z</time></trkpt>
<trkpt lat="47.522127" lon="10.233037"><ele>883.9</ele><time>2024-04-25T09:35:20Z</time></trkpt>
<trkpt lat="47.522121" lon="10.23312"><ele>884.55</ele><time>2024-04-25T09:35:22Z</time></trkpt>
<trkpt lat="47.522143" lon="10.23337"><ele>885.99</ele><time>2024-04-25T09:35:24Z</time></trkpt>
<trkpt lat="47.522201" lon="10.233611"><ele>886.22</ele><time>2024-04-25T09:35:26Z</time></trkpt>
<trkpt lat="47.522312" lon="10.233898"><ele>886.04</ele><time>2024-04-25T09:35:28Z</time></trkpt>
<trkpt lat="47.522395" lon="10.234067"><ele>885.53</ele><time>2024-04-25T09:35:30Z</time></trkpt>
<trkpt lat="47.522706" lon="10.234568"><ele>886.89</ele><time>2024-04-25T09:35:33Z</time></trkpt>
<trkpt lat="47.52291" lon="10.234953"><ele>888.87</ele><time>2024-04-25T09:35:35Z</time></trkpt>
<trkpt lat="47.523056" lon="10.235326"><ele>888.17</ele><time>2024-04-25T09:35:37Z</time></trkpt>
<trkpt lat="47.523353" lon="10.236277"><ele>893.58</ele><time>2024-04-25T09:35:39Z</time></trkpt>
<trkpt lat="47.523582" lon="10.236746"><ele>900.34</ele><time>2024-04-25T09:35:41Z</time></trkpt>
<trkpt lat="47.523913" lon="10.237296"><ele>900.19</ele><time>2024-04-25T09:35:44Z</time></trkpt>
<trkpt lat="47.524354" lon="10.238239"><ele>894.66</ele><time>2024-04-25T09:35:46Z</time></trkpt>
<trkpt lat="47.524475" lon="10.238433"><ele>893.86</ele><time>2024-04-25T09:35:48Z</time></trkpt>
<trkpt lat="47.52464" lon="10.238626"><ele>894.34</ele><time>2024-04-25T09:35:50Z</time></trkpt>
<trkpt lat="47.525543" lon="10.239479"><ele>885.88</ele><time>2024-04-25T09:35:52Z</time></trkpt>
<trkpt lat="47.525782" lon="10.239732"><ele>886.57</ele><time>2024-04-25T09:35:55Z</time></trkpt>
<trkpt lat="47.525942" lon="10.239932"><ele>885.1</ele><time>2024-04-25T09:35:57Z</time></trkpt>
<trkpt lat="47.526062" lon="10.24012"><ele>882.88</ele><time>2024-04-25T09:35:59Z</time></trkpt>
<trkpt lat="47.526136" lon="10.240273"><ele>881.32</ele><time>2024-04-25T09:36:01Z</time></trkpt>
<trkpt lat="47.526411" lon="10.241006"><ele>879.95</ele><time>2024-04-25T09:36:03Z</time></trkpt>
<trkpt lat="47.526531" lon="10.241284"><ele>876.91</ele><time>2024-04-25T09:36:05Z</time></trkpt>
<trkpt lat="47.526991" lon="10.242138"><ele>870.25</ele><time>2024-04-25T09:36:08Z</time></trkpt>
<trkpt lat="47.527109" lon="10.242418"><ele>868.07</ele><time>2024-04-25T09:36:10Z</time></trkpt>
<trkpt lat="47.52714" lon="10.24254"><ele>867.07</ele><time>2024-04-25T09:36:12Z</time></trkpt>
<trkpt lat="47.527154" lon="10.242676"><ele>866.09</ele><time>2024-04-25T09:36:14Z</time></trkpt>
<trkpt lat="47.527127" lon="10.242961"><ele>864.09</ele><time>2024-04-25T09:36:16Z</time></trkpt>
<trkpt lat="47.527089" lon="10.243126"><ele>863.34</ele><time>2024-04-25T09:36:19Z</time></trkpt>
<trkpt lat="47.526969" lon="10.243673"><ele>863.24</ele><time>2024-04-25T09:36:21Z</time></trkpt>
<trkpt lat="47.526916" lon="10.244155"><ele>862.8</ele><time>2024-04-25T09:36:23Z</time></trkpt>
<trkpt lat="47.526888" lon="10.244255"><ele>862.28</ele><time>2024-04-25T09:36:25Z</time></trkpt>
<trkpt lat="47.52666" lon="10.244625"><ele>858.72</ele><time>2024-04-25T09:36:27Z</time></trkpt>
<trkpt lat="47.526632" lon="10.244705"><ele>858.25</ele><time>2024-04-25T09:36:30Z</time></trkpt>
<trkpt lat="47.526614" lon="10.24487"><ele>857.66</ele><time>2024-04-25T09:36:32Z</time></trkpt>
<trkpt lat="47.526649" lon="10.245284"><ele>855.79</ele><time>2024-04-25T09:36:34Z</time></trkpt>
<trkpt lat="47.526731" lon="10.245596"><ele>852.58</ele><time>2024-04-25T09:36:36Z</time></trkpt>
<trkpt lat="47.526803" lon="10.245753"><ele>851.61</ele><time>2024-04-25T09:36:38Z</time></trkpt>
<trkpt lat="47.526941" lon="10.245896"><ele>852.02</ele><time>2024-04-25T09:36:40Z</time></trkpt>
<trkpt lat="47.52715" lon="10.246052"><ele>850.9</ele><time>2024-04-25T09:36:43Z</time></trkpt>
<trkpt lat="47.527448" lon="10.246494"><ele>846.11</ele><time>2024-04-25T09:36:45Z</time></trkpt>
<trkpt lat="47.527584" lon="10.246613"><ele>845.79</ele><time>2024-04-25T09:36:47Z</time></trkpt>
<trkpt lat="47.527863" lon="10.246786"><ele>846.51</ele><time>2024-04-25T09:36:49Z</time></trkpt>
<trkpt lat="47.527948" lon="10.246861"><ele>846.64</ele><time>2024-04-25T09:36:51Z</time></trkpt>
<trkpt lat="47.528038" lon="10.246967"><ele>846.33</ele><time>2024-04-25T09:36:54Z</time></trkpt>
<trkpt lat="47.528246" lon="10.247299"><ele>842.97</ele><time>2024-04-25T09:36:56Z</time></trkpt>
<trkpt lat="47.528415" lon="10.247471"><ele>839.77</ele><time>2024-04-25T09:36:58Z</time></trkpt>
<trkpt lat="47.528564" lon="10.247558"><ele>837.53</ele><time>2024-04-25T09:37:00Z</time></trkpt>
<trkpt lat="47.528855" lon="10.247681"><ele>834.43</ele><time>2024-04-25T09:37:02Z</time></trkpt>
<trkpt lat="47.529016" lon="10.247799"><ele>832.39</ele><time>2024-04-25T09:37:05Z</time></trkpt>
<trkpt lat="47.52935" lon="10.248179"><ele>826.12</ele><time>2024-04-25T09:37:07Z</time></trkpt>
<trkpt lat="47.529521" lon="10.248323"><ele>825.31</ele><time>2024-04-25T09:37:09Z</time></trkpt>
<trkpt lat="47.529952" lon="10.248554"><ele>824.88</ele><time>2024-04-25T09:37:11Z</time></trkpt>
<trkpt lat="47.530448" lon="10.248929"><ele>818.32</ele><time>2024-04-25T09:37:13Z</time></trkpt>
<trkpt lat="47.530939" lon="10.249239"><ele>811.31</ele><time>2024-04-25T09:37:15Z</time></trkpt>
<trkpt lat="47.531082" lon="10.249372"><ele>810.02</ele><time>2024-04-25T09:37:18Z</time></trkpt>
<trkpt lat="47.531209" lon="10.249522"><ele>809.15</ele><time>2024-04-25T09:37:20Z</time></trkpt>
<trkpt lat="47.531361" lon="10.24977"><ele>808.95</ele><time>2024-04-25T09:37:22Z</time></trkpt>
<trkpt lat="47.531404" lon="10.249888"><ele>808.35</ele><time>2024-04-25T09:37:24Z</time></trkpt>
<trkpt lat="47.531413" lon="10.24999"><ele>807.37</ele><time>2024-04-25T09:37:26Z</time></trkpt>
<trkpt lat="47.531382" lon="10.250157"><ele>804.01</ele><time>2024-04-25T09:37:29Z</time></trkpt>
<trkpt lat="47.531303" lon="10.250223"><ele>800.83</ele><time>2024-04-25T09:37:31Z</time></trkpt>
<trkpt lat="47.531225" lon="10.250236"><ele>798.62</ele><time>2024-04-25T09:37:33Z</time></trkpt>
<trkpt lat="47.531168" lon="10.250221"><ele>797.44</ele><time>2024-04-25T09:37:36Z</time></trkpt>
<trkpt lat="47.530898" lon="10.250001"><ele>796.16</ele><time>2024-04-25T09:37:38Z</time></trkpt>
<trkpt lat="47.530606" lon="10.249888"><ele>796.04</ele><time>2024-04-25T09:37:40Z</time></trkpt>
<trkpt lat="47.530285" lon="10.249888"><ele>791.91</ele><time>2024-04-25T09:37:43Z</time></trkpt>
<trkpt lat="47.529995" lon="10.249838"><ele>789.46</ele><time>2024-04-25T09:37:45Z</time></trkpt>
<trkpt lat="47.529804" lon="10.249832"><ele>788.23</ele><time>2024-04-25T09:37:47Z</time></trkpt>
<trkpt lat="47.529592" lon="10.249897"><ele>787.45</ele><time>2024-04-25T09:37:50Z</time></trkpt>
<trkpt lat="47.529489" lon="10.250022"><ele>786.24</ele><time>2024-04-25T09:37:52Z</time></trkpt>
<trkpt lat="47.52946" lon="10.25017"><ele>784.48</ele><time>2024-04-25T09:37:54Z</time></trkpt>
<trkpt lat="47.529497" lon="10.250323"><ele>782.71</ele><time>2024-04-25T09:37:57Z</time></trkpt>
<trkpt lat="47.529583" lon="10.250403"><ele>782.32</ele><time>2024-04-25T09:37:59Z</time></trkpt>
<trkpt lat="47.529814" lon="10.250441"><ele>782.22</ele><time>2024-04-25T09:38:01Z</time></trkpt>
<trkpt lat="47.530042" lon="10.250564"><ele>780.97</ele><time>2024-04-25T09:38:04Z</time></trkpt>
<trkpt lat="47.530337" lon="10.25078"><ele>779.64</ele><time>2024-04-25T09:38:06Z</time></trkpt>
<trkpt lat="47.530462" lon="10.250896"><ele>779.51</ele><time>2024-04-25T09:38:09Z</time></trkpt>
<trkpt lat="47.530551" lon="10.251015"><ele>779.34</ele><time>2024-04-25T09:38:11Z</time></trkpt>
<trkpt lat="47.530681" lon="10.251326"><ele>779.76</ele><time>2024-04-25T09:38:13Z</time></trkpt>
<trkpt lat="47.530747" lon="10.251669"><ele>777.28</ele><time>2024-04-25T09:38:16Z</time></trkpt>
<trkpt lat="47.530803" lon="10.252166"><ele>771.8</ele><time>2024-04-25T09:38:18Z</time></trkpt>
<trkpt lat="47.530758" lon="10.25275"><ele>766.35</ele><time>2024-04-25T09:38:20Z</time></trkpt>
<trkpt lat="47.530764" lon="10.253062"><ele>763.41</ele><time>2024-04-25T09:38:23Z</time></trkpt>
<trkpt lat="47.530824" lon="10.253318"><ele>759.28</ele><time>2024-04-25T09:38:25Z</time></trkpt>
<trkpt lat="47.530877" lon="10.253459"><ele>758.18</ele><time>2024-04-25T09:38:27Z</time></trkpt>
<trkpt lat="47.531021" lon="10.253708"><ele>755.82</ele><time>2024-04-25T09:38:30Z</time></trkpt>
<trkpt lat="47.531295" lon="10.254023"><ele>749.91</ele><time>2024-04-25T09:38:32Z</time></trkpt>
<trkpt lat="47.531375" lon="10.25415"><ele>747.4</ele><time>2024-04-25T09:38:34Z</time></trkpt>
<trkpt lat="47.531501" lon="10.254453"><ele>744.53</ele><time>2024-04-25T09:38:37Z</time></trkpt>
<trkpt lat="47.531548" lon="10.254662"><ele>742.41</ele><time>2024-04-25T09:38:39Z</time></trkpt>
<trkpt lat="47.531578" lon="10.254967"><ele>740.16</ele><time>2024-04-25T09:38:41Z</time></trkpt>
<trkpt lat="47.531569" lon="10.255203"><ele>739.07</ele><time>2024-04-25T09:38:44Z</time></trkpt>
<trkpt lat="47.531474" lon="10.256194"><ele>730.92</ele><time>2024-04-25T09:38:46Z</time></trkpt>
<trkpt lat="47.531464" lon="10.256521"><ele>730.0</ele><time>2024-04-25T09:38:48Z</time></trkpt>
<trkpt lat="47.531472" lon="10.256791"><ele>729.86</ele><time>2024-04-25T09:38:51Z</time></trkpt>
<trkpt lat="47.531549" lon="10.25766"><ele>729.6</ele><time>2024-04-25T09:38:53Z</time></trkpt>
<trkpt lat="47.530848" lon="10.257793"><ele>730.0</ele><time>2024-04-25T09:38:59Z</time></trkpt>
<trkpt lat="47.530645" lon="10.257803"><ele>730.06</ele><time>2024-04-25T09:39:06Z</time></trkpt>
<trkpt lat="47.530405" lon="10.257789"><ele>730.54</ele><time>2024-04-25T09:39:12Z</time></trkpt>
<trkpt lat="47.530051" lon="10.257684"><ele>731.21</ele><time>2024-04-25T09:39:18Z</time></trkpt>
<trkpt lat="47.529876" lon="10.257595"><ele>731.36</ele><time>2024-04-25T09:39:24Z</time></trkpt>
<trkpt lat="47.529369" lon="10.257331"><ele>732.32</ele><time>2024-04-25T09:39:31Z</time></trkpt>
<trkpt lat="47.529134" lon="10.257279"><ele>733.01</ele><time>2024-04-25T09:39:37Z</time></trkpt>
<trkpt lat="47.528921" lon="10.257258"><ele>734.53</ele><time>2024-04-25T09:39:43Z</time></trkpt>
<trkpt lat="47.528505" lon="10.257286"><ele>734.78</ele><time>2024-04-25T09:39:49Z</time></trkpt>
<trkpt lat="47.528242" lon="10.257354"><ele>732.72</ele><time>2024-04-25T09:39:56Z</time></trkpt>
<trkpt lat="47.527907" lon="10.257481"><ele>730.6</ele><time>2024-04-25T09:40:02Z</time></trkpt>
<trkpt lat="47.52748" lon="10.25775"><ele>730.01</ele><time>2024-04-25T09:40:08Z</time></trkpt>
<trkpt lat="47.5269" lon="10.258305"><ele>731.16</ele><time>2024-04-25T09:40:15Z</time></trkpt>
<trkpt lat="47.526354" lon="10.258869"><ele>732.0</ele><time>2024-04-25T09:40:21Z</time></trkpt>
<trkpt lat="47.525732" lon="10.259278"><ele>730.41</ele><time>2024-04-25T09:40:27Z</time></trkpt>
<trkpt lat="47.525217" lon="10.259656"><ele>729.54</ele><time>2024-04-25T09:40:33Z</time></trkpt>
<trkpt lat="47.524881" lon="10.260126"><ele>731.41</ele><time>2024-04-25T09:40:40Z</time></trkpt>
<trkpt lat="47.524711" lon="10.260443"><ele>733.64</ele><time>2024-04-25T09:40:46Z</time></trkpt>
<trkpt lat="47.524673" lon="10.260524"><ele>734.06</ele><time>2024-04-25T09:40:52Z</time></trkpt>
<trkpt lat="47.524278" lon="10.261273"><ele>734.6</ele><time>2024-04-25T09:40:58Z</time></trkpt>
<trkpt lat="47.524034" lon="10.261714"><ele>734.0</ele><time>2024-04-25T09:41:05Z</time></trkpt>
<trkpt lat="47.522975" lon="10.262897"><ele>733.88</ele><time>2024-04-25T09:41:11Z</time></trkpt>
<trkpt lat="47.523137" lon="10.263278"><ele>733.76</ele><time>2024-04-25T09:41:20Z</time></trkpt>
<trkpt lat="47.523743" lon="10.264583"><ele>733.55</ele><time>2024-04-25T09:41:29Z</time></trkpt>
<trkpt lat="47.523772" lon="10.264784"><ele>732.75</ele><time>2024-04-25T09:41:38Z</time></trkpt>
<trkpt lat="47.523754" lon="10.26499"><ele>732.5</ele><time>2024-04-25T09:41:47Z</time></trkpt>
<trkpt lat="47.523696" lon="10.265129"><ele>732.37</ele><time>2024-04-25T09:41:56Z</time></trkpt>
<trkpt lat="47.52367" lon="10.265273"><ele>732.01</ele><time>2024-04-25T09:42:05Z</time></trkpt>
<trkpt lat="47.523676" lon="10.265374"><ele>732.27</ele><time>2024-04-25T09:42:14Z</time></trkpt>
<trkpt lat="47.52392" lon="10.2659"><ele>733.03</ele><time>2024-04-25T09:42:23Z</time></trkpt>
<trkpt lat="47.524175" lon="10.26748"><ele>736.07</ele><time>2024-04-25T09:42:32Z</time></trkpt>
<trkpt lat="47.52431" lon="10.268437"><ele>735.63</ele><time>2024-04-25T09:42:41Z</time></trkpt>
<trkpt lat="47.524326" lon="10.268722"><ele>734.83</ele><time>2024-04-25T09:42:50Z</time></trkpt>
<trkpt lat="47.524293" lon="10.268716"><ele>734.79</ele><time>2024-04-25T09:42:54Z</time></trkpt>
<trkpt lat="47.524235" lon="10.26875"><ele>734.62</ele><time>2024-04-25T09:42:58Z</time></trkpt>
<trkpt lat="47.524212" lon="10.268793"><ele>734.45</ele><time>2024-04-25T09:43:02Z</time></trkpt>
<trkpt lat="47.524202" lon="10.26889"><ele>734.13</ele><time>2024-04-25T09:43:05Z</time></trkpt>
<trkpt lat="47.524235" lon="10.268973"><ele>734.17</ele><time>2024-04-25T09:43:09Z</time></trkpt>
<trkpt lat="47.524296" lon="10.269008"><ele>734.27</ele><time>2024-04-25T09:43:13Z</time></trkpt>
<trkpt lat="47.524329" lon="10.269001"><ele>734.35</ele><time>2024-04-25T09:43:17Z</time></trkpt>
<trkpt lat="47.52438" lon="10.268946"><ele>734.61</ele><time>2024-04-25T09:43:20Z</time></trkpt>
<trkpt lat="47.524467" lon="10.26928"><ele>734.16</ele><time>2024-04-25T09:43:24Z</time></trkpt>
<trkpt lat="47.524623" lon="10.270405"><ele>736.1</ele><time>2024-04-25T09:43:28Z</time></trkpt>
<trkpt lat="47.524658" lon="10.271069"><ele>738.85</ele><time>2024-04-25T09:43:32Z</time></trkpt>
<trkpt lat="47.524632" lon="10.271591"><ele>741.29</ele><time>2024-04-25T09:43:36Z</time></trkpt>
<trkpt lat="47.524313" lon="10.273759"><ele>741.35</ele><time>2024-04-25T09:43:39Z</time></trkpt>
<trkpt lat="47.524176" lon="10.273937"><ele>741.55</ele><time>2024-04-25T09:43:42Z</time></trkpt>
<trkpt lat="47.523943" lon="10.274039"><ele>742.52</ele><time>2024-04-25T09:43:45Z</time></trkpt>
<trkpt lat="47.524253" lon="10.27423"><ele>739.15</ele><time>2024-04-25T09:45:33Z</time></trkpt>
<trkpt lat="47.524918" lon="10.274657"><ele>737.77</ele><time>2024-04-25T09:47:21Z</time></trkpt>
<trkpt lat="47.525072" lon="10.274657"><ele>738.22</ele><time>2024-04-25T09:49:10Z</time></trkpt>
<trkpt lat="47.525342" lon="10.274168"><ele>737.23</ele><time>2024-04-25T09:49:19Z</time></trkpt>
<trkpt lat="47.525765" lon="10.273627"><ele>737.0</ele><time>2024-04-25T09:49:28Z</time></trkpt>
<trkpt lat="47.525991" lon="10.273575"><ele>737.0</ele><time>2024-04-25T09:49:38Z</time></trkpt>
<trkpt lat="47.526054" lon="10.273447"><ele>737.0</ele><time>2024-04-25T09:49:52Z</time></trkpt>
<trkpt lat="47.526632" lon="10.272005"><ele>737.06</ele><time>2024-04-25T09:50:06Z</time></trkpt>
<trkpt lat="47.52685" lon="10.272091"><ele>736.87</ele><time>2024-04-25T09:50:14Z</time></trkpt>
<trkpt lat="47.526936" lon="10.272037"><ele>736.36</ele><time>2024-04-25T09:50:23Z</time></trkpt>
<trkpt lat="47.527028" lon="10.271745"><ele>736.0</ele><time>2024-04-25T09:50:31Z</time></trkpt>
<trkpt lat="47.52719" lon="10.271329"><ele>735.89</ele><time>2024-04-25T09:50:39Z</time></trkpt>
<trkpt lat="47.527884" lon="10.270016"><ele>737.38</ele><time>2024-04-25T09:50:47Z</time></trkpt>
<trkpt lat="47.528133" lon="10.269389"><ele>735.8</ele><time>2024-04-25T09:50:55Z</time></trkpt>
<trkpt lat="47.528199" lon="10.269132"><ele>735.0</ele><time>2024-04-25T09:51:04Z</time></trkpt>
<trkpt lat="47.528192" lon="10.268855"><ele>735.12</ele><time>2024-04-25T09:51:12Z</time></trkpt>
<trkpt lat="47.528295" lon="10.268745"><ele>735.52</ele><time>2024-04-25T09:51:19Z</time></trkpt>
<trkpt lat="47.52842" lon="10.268546"><ele>735.69</ele><time>2024-04-25T09:51:25Z</time></trkpt>
<trkpt lat="47.528548" lon="10.268149"><ele>735.89</ele><time>2024-04-25T09:51:32Z</time></trkpt>
<trkpt lat="47.528659" lon="10.267588"><ele>737.19</ele><time>2024-04-25T09:51:39Z</time></trkpt>
<trkpt lat="47.528511" lon="10.267068"><ele>737.88</ele><time>2024-04-25T09:51:46Z</time></trkpt>
<trkpt lat="47.528507" lon="10.266753"><ele>735.87</ele><time>2024-04-25T09:51:52Z</time></trkpt>
<trkpt lat="47.528649" lon="10.26646"><ele>734.92</ele><time>2024-04-25T09:51:59Z</time></trkpt>
<trkpt lat="47.528862" lon="10.26636"><ele>736.51</ele><time>2024-04-25T09:52:06Z</time></trkpt>
<trkpt lat="47.52924" lon="10.266451"><ele>738.53</ele><time>2024-04-25T09:52:13Z</time></trkpt>
<trkpt lat="47.529761" lon="10.266434"><ele>736.02</ele><time>2024-04-25T09:52:20Z</time></trkpt>
<trkpt lat="47.529958" lon="10.266408"><ele>735.22</ele><time>2024-04-25T09:52:26Z</time></trkpt>
<trkpt lat="47.530091" lon="10.266349"><ele>734.53</ele><time>2024-04-25T09:52:33Z</time></trkpt>
<trkpt lat="47.530186" lon="10.266235"><ele>733.78</ele><time>2024-04-25T09:52:40Z</time></trkpt>
<trkpt lat="47.530548" lon="10.265357"><ele>732.75</ele><time>2024-04-25T09:52:47Z</time></trkpt>
</trkseg>
</trk>
</gpx>